<?xml version="1.0" encoding="UTF-8" standalone="no" ?>
<gpx xmlns="http://www.topografix.com/GPX/1/1" xmlns:xsi="http://www.w3.org/2001/XMLSchema-instance" xsi:schemaLocation="http://www.topografix.com/GPX/1/1 http://www.topografix.com/GPX/1/1/gpx.xsd" version="1.1" creator="VisuGPX - https://www.visugpx.com">
  <metadata>
    <name>SAINTE BAUME</name>
    <desc><![CDATA[Difficulté moyenne,beau panorama,
départ depuis le petit village de RIBOUX.

]]></desc>
  </metadata>
  <trk>
    <name><![CDATA[SAINTE BAUME_1]]></name>
    <trkseg>
      <trkpt lat="43.3049" lon="5.76373">
        <ele>565</ele>
        <time>2019-10-16T09:02:17Z</time>
      </trkpt>
      <trkpt lat="43.3049" lon="5.76381">
        <ele>569</ele>
        <time>2019-10-16T09:02:25Z</time>
      </trkpt>
      <trkpt lat="43.30493" lon="5.76387">
        <ele>570</ele>
        <time>2019-10-16T09:02:29Z</time>
      </trkpt>
      <trkpt lat="43.30497" lon="5.7639">
        <ele>571</ele>
        <time>2019-10-16T09:02:35Z</time>
      </trkpt>
      <trkpt lat="43.30502" lon="5.76393">
        <ele>571</ele>
        <time>2019-10-16T09:02:41Z</time>
      </trkpt>
      <trkpt lat="43.30507" lon="5.76399">
        <ele>572</ele>
        <time>2019-10-16T09:02:47Z</time>
      </trkpt>
      <trkpt lat="43.30512" lon="5.76403">
        <ele>573</ele>
        <time>2019-10-16T09:02:53Z</time>
      </trkpt>
      <trkpt lat="43.30518" lon="5.76405">
        <ele>574</ele>
        <time>2019-10-16T09:02:59Z</time>
      </trkpt>
      <trkpt lat="43.30524" lon="5.76407">
        <ele>575</ele>
        <time>2019-10-16T09:03:05Z</time>
      </trkpt>
      <trkpt lat="43.30529" lon="5.76409">
        <ele>575</ele>
        <time>2019-10-16T09:03:11Z</time>
      </trkpt>
      <trkpt lat="43.30535" lon="5.7641">
        <ele>576</ele>
        <time>2019-10-16T09:03:21Z</time>
      </trkpt>
      <trkpt lat="43.30541" lon="5.76411">
        <ele>575</ele>
        <time>2019-10-16T09:03:27Z</time>
      </trkpt>
      <trkpt lat="43.30545" lon="5.7641">
        <ele>574</ele>
        <time>2019-10-16T09:03:31Z</time>
      </trkpt>
      <trkpt lat="43.3055" lon="5.76411">
        <ele>574</ele>
        <time>2019-10-16T09:03:35Z</time>
      </trkpt>
      <trkpt lat="43.30555" lon="5.7641">
        <ele>575</ele>
        <time>2019-10-16T09:03:41Z</time>
      </trkpt>
      <trkpt lat="43.30561" lon="5.76409">
        <ele>575</ele>
        <time>2019-10-16T09:03:47Z</time>
      </trkpt>
      <trkpt lat="43.30567" lon="5.76407">
        <ele>574</ele>
        <time>2019-10-16T09:03:53Z</time>
      </trkpt>
      <trkpt lat="43.30573" lon="5.76406">
        <ele>577</ele>
        <time>2019-10-16T09:03:59Z</time>
      </trkpt>
      <trkpt lat="43.30578" lon="5.76407">
        <ele>578</ele>
        <time>2019-10-16T09:04:05Z</time>
      </trkpt>
      <trkpt lat="43.30583" lon="5.76407">
        <ele>580</ele>
        <time>2019-10-16T09:04:29Z</time>
      </trkpt>
      <trkpt lat="43.30587" lon="5.76408">
        <ele>580</ele>
        <time>2019-10-16T09:04:35Z</time>
      </trkpt>
      <trkpt lat="43.30594" lon="5.7641">
        <ele>580</ele>
        <time>2019-10-16T09:04:41Z</time>
      </trkpt>
      <trkpt lat="43.30599" lon="5.76415">
        <ele>581</ele>
        <time>2019-10-16T09:04:47Z</time>
      </trkpt>
      <trkpt lat="43.30605" lon="5.76419">
        <ele>581</ele>
        <time>2019-10-16T09:04:53Z</time>
      </trkpt>
      <trkpt lat="43.30611" lon="5.76422">
        <ele>581</ele>
        <time>2019-10-16T09:04:59Z</time>
      </trkpt>
      <trkpt lat="43.30616" lon="5.76423">
        <ele>581</ele>
        <time>2019-10-16T09:05:05Z</time>
      </trkpt>
      <trkpt lat="43.30622" lon="5.76425">
        <ele>584</ele>
        <time>2019-10-16T09:05:13Z</time>
      </trkpt>
      <trkpt lat="43.30628" lon="5.76426">
        <ele>583</ele>
        <time>2019-10-16T09:05:17Z</time>
      </trkpt>
      <trkpt lat="43.30634" lon="5.76425">
        <ele>585</ele>
        <time>2019-10-16T09:05:23Z</time>
      </trkpt>
      <trkpt lat="43.30641" lon="5.76424">
        <ele>586</ele>
        <time>2019-10-16T09:05:29Z</time>
      </trkpt>
      <trkpt lat="43.30647" lon="5.76421">
        <ele>589</ele>
        <time>2019-10-16T09:05:35Z</time>
      </trkpt>
      <trkpt lat="43.30653" lon="5.76419">
        <ele>590</ele>
        <time>2019-10-16T09:05:41Z</time>
      </trkpt>
      <trkpt lat="43.30658" lon="5.76418">
        <ele>590</ele>
        <time>2019-10-16T09:05:45Z</time>
      </trkpt>
      <trkpt lat="43.30664" lon="5.76417">
        <ele>592</ele>
        <time>2019-10-16T09:05:51Z</time>
      </trkpt>
      <trkpt lat="43.30669" lon="5.76415">
        <ele>591</ele>
        <time>2019-10-16T09:05:55Z</time>
      </trkpt>
      <trkpt lat="43.30674" lon="5.76414">
        <ele>593</ele>
        <time>2019-10-16T09:05:59Z</time>
      </trkpt>
      <trkpt lat="43.30678" lon="5.76415">
        <ele>594</ele>
        <time>2019-10-16T09:06:03Z</time>
      </trkpt>
      <trkpt lat="43.30684" lon="5.76416">
        <ele>594</ele>
        <time>2019-10-16T09:06:09Z</time>
      </trkpt>
      <trkpt lat="43.30688" lon="5.76414">
        <ele>594</ele>
        <time>2019-10-16T09:06:13Z</time>
      </trkpt>
      <trkpt lat="43.30694" lon="5.76413">
        <ele>595</ele>
        <time>2019-10-16T09:06:19Z</time>
      </trkpt>
      <trkpt lat="43.30699" lon="5.76412">
        <ele>595</ele>
        <time>2019-10-16T09:06:23Z</time>
      </trkpt>
      <trkpt lat="43.30704" lon="5.7641">
        <ele>597</ele>
        <time>2019-10-16T09:06:29Z</time>
      </trkpt>
      <trkpt lat="43.30711" lon="5.76406">
        <ele>597</ele>
        <time>2019-10-16T09:06:35Z</time>
      </trkpt>
      <trkpt lat="43.30715" lon="5.76403">
        <ele>596</ele>
        <time>2019-10-16T09:06:41Z</time>
      </trkpt>
      <trkpt lat="43.3072" lon="5.764">
        <ele>596</ele>
        <time>2019-10-16T09:06:47Z</time>
      </trkpt>
      <trkpt lat="43.30726" lon="5.764">
        <ele>598</ele>
        <time>2019-10-16T09:06:53Z</time>
      </trkpt>
      <trkpt lat="43.30731" lon="5.76399">
        <ele>599</ele>
        <time>2019-10-16T09:06:57Z</time>
      </trkpt>
      <trkpt lat="43.30736" lon="5.76397">
        <ele>601</ele>
        <time>2019-10-16T09:07:01Z</time>
      </trkpt>
      <trkpt lat="43.30741" lon="5.76394">
        <ele>600</ele>
        <time>2019-10-16T09:07:05Z</time>
      </trkpt>
      <trkpt lat="43.30746" lon="5.76391">
        <ele>600</ele>
        <time>2019-10-16T09:07:09Z</time>
      </trkpt>
      <trkpt lat="43.30751" lon="5.76389">
        <ele>601</ele>
        <time>2019-10-16T09:07:13Z</time>
      </trkpt>
      <trkpt lat="43.30757" lon="5.76388">
        <ele>601</ele>
        <time>2019-10-16T09:07:19Z</time>
      </trkpt>
      <trkpt lat="43.30763" lon="5.76386">
        <ele>602</ele>
        <time>2019-10-16T09:07:25Z</time>
      </trkpt>
      <trkpt lat="43.30769" lon="5.76384">
        <ele>603</ele>
        <time>2019-10-16T09:07:31Z</time>
      </trkpt>
      <trkpt lat="43.30774" lon="5.76384">
        <ele>603</ele>
        <time>2019-10-16T09:07:35Z</time>
      </trkpt>
      <trkpt lat="43.3078" lon="5.76383">
        <ele>606</ele>
        <time>2019-10-16T09:07:41Z</time>
      </trkpt>
      <trkpt lat="43.30785" lon="5.76383">
        <ele>607</ele>
        <time>2019-10-16T09:07:45Z</time>
      </trkpt>
      <trkpt lat="43.30791" lon="5.76383">
        <ele>607</ele>
        <time>2019-10-16T09:07:51Z</time>
      </trkpt>
      <trkpt lat="43.30796" lon="5.76382">
        <ele>605</ele>
        <time>2019-10-16T09:07:55Z</time>
      </trkpt>
      <trkpt lat="43.30802" lon="5.76382">
        <ele>603</ele>
        <time>2019-10-16T09:07:59Z</time>
      </trkpt>
      <trkpt lat="43.30806" lon="5.76381">
        <ele>601</ele>
        <time>2019-10-16T09:08:05Z</time>
      </trkpt>
      <trkpt lat="43.30812" lon="5.7638">
        <ele>596</ele>
        <time>2019-10-16T09:08:13Z</time>
      </trkpt>
      <trkpt lat="43.30817" lon="5.7638">
        <ele>598</ele>
        <time>2019-10-16T09:08:17Z</time>
      </trkpt>
      <trkpt lat="43.30823" lon="5.7638">
        <ele>597</ele>
        <time>2019-10-16T09:08:21Z</time>
      </trkpt>
      <trkpt lat="43.30828" lon="5.7638">
        <ele>596</ele>
        <time>2019-10-16T09:08:25Z</time>
      </trkpt>
      <trkpt lat="43.30833" lon="5.76381">
        <ele>594</ele>
        <time>2019-10-16T09:08:31Z</time>
      </trkpt>
      <trkpt lat="43.30838" lon="5.76382">
        <ele>597</ele>
        <time>2019-10-16T09:08:35Z</time>
      </trkpt>
      <trkpt lat="43.30843" lon="5.76384">
        <ele>599</ele>
        <time>2019-10-16T09:08:39Z</time>
      </trkpt>
      <trkpt lat="43.30848" lon="5.76385">
        <ele>601</ele>
        <time>2019-10-16T09:08:43Z</time>
      </trkpt>
      <trkpt lat="43.30853" lon="5.76386">
        <ele>603</ele>
        <time>2019-10-16T09:08:47Z</time>
      </trkpt>
      <trkpt lat="43.30859" lon="5.76386">
        <ele>604</ele>
        <time>2019-10-16T09:08:51Z</time>
      </trkpt>
      <trkpt lat="43.30863" lon="5.76386">
        <ele>605</ele>
        <time>2019-10-16T09:08:55Z</time>
      </trkpt>
      <trkpt lat="43.30869" lon="5.76386">
        <ele>607</ele>
        <time>2019-10-16T09:09:01Z</time>
      </trkpt>
      <trkpt lat="43.30874" lon="5.76386">
        <ele>608</ele>
        <time>2019-10-16T09:09:05Z</time>
      </trkpt>
      <trkpt lat="43.30881" lon="5.76387">
        <ele>609</ele>
        <time>2019-10-16T09:09:11Z</time>
      </trkpt>
      <trkpt lat="43.30885" lon="5.76387">
        <ele>610</ele>
        <time>2019-10-16T09:09:15Z</time>
      </trkpt>
      <trkpt lat="43.30892" lon="5.7639">
        <ele>612</ele>
        <time>2019-10-16T09:09:21Z</time>
      </trkpt>
      <trkpt lat="43.30898" lon="5.76392">
        <ele>612</ele>
        <time>2019-10-16T09:09:27Z</time>
      </trkpt>
      <trkpt lat="43.30905" lon="5.76392">
        <ele>612</ele>
        <time>2019-10-16T09:09:33Z</time>
      </trkpt>
      <trkpt lat="43.30911" lon="5.76391">
        <ele>613</ele>
        <time>2019-10-16T09:09:39Z</time>
      </trkpt>
      <trkpt lat="43.30917" lon="5.7639">
        <ele>613</ele>
        <time>2019-10-16T09:09:45Z</time>
      </trkpt>
      <trkpt lat="43.30924" lon="5.7639">
        <ele>613</ele>
        <time>2019-10-16T09:09:51Z</time>
      </trkpt>
      <trkpt lat="43.30928" lon="5.76391">
        <ele>614</ele>
        <time>2019-10-16T09:09:55Z</time>
      </trkpt>
      <trkpt lat="43.30933" lon="5.76392">
        <ele>615</ele>
        <time>2019-10-16T09:10:01Z</time>
      </trkpt>
      <trkpt lat="43.30938" lon="5.76391">
        <ele>615</ele>
        <time>2019-10-16T09:10:05Z</time>
      </trkpt>
      <trkpt lat="43.30943" lon="5.76392">
        <ele>614</ele>
        <time>2019-10-16T09:10:09Z</time>
      </trkpt>
      <trkpt lat="43.30947" lon="5.76393">
        <ele>615</ele>
        <time>2019-10-16T09:10:13Z</time>
      </trkpt>
      <trkpt lat="43.30952" lon="5.76393">
        <ele>615</ele>
        <time>2019-10-16T09:10:17Z</time>
      </trkpt>
      <trkpt lat="43.30957" lon="5.76394">
        <ele>616</ele>
        <time>2019-10-16T09:10:21Z</time>
      </trkpt>
      <trkpt lat="43.30962" lon="5.76395">
        <ele>616</ele>
        <time>2019-10-16T09:10:25Z</time>
      </trkpt>
      <trkpt lat="43.30967" lon="5.76395">
        <ele>616</ele>
        <time>2019-10-16T09:10:29Z</time>
      </trkpt>
      <trkpt lat="43.30971" lon="5.76396">
        <ele>616</ele>
        <time>2019-10-16T09:10:35Z</time>
      </trkpt>
      <trkpt lat="43.30975" lon="5.76391">
        <ele>612</ele>
        <time>2019-10-16T09:10:53Z</time>
      </trkpt>
      <trkpt lat="43.3098" lon="5.76389">
        <ele>611</ele>
        <time>2019-10-16T09:10:59Z</time>
      </trkpt>
      <trkpt lat="43.30986" lon="5.76388">
        <ele>609</ele>
        <time>2019-10-16T09:11:05Z</time>
      </trkpt>
      <trkpt lat="43.30993" lon="5.76387">
        <ele>608</ele>
        <time>2019-10-16T09:11:11Z</time>
      </trkpt>
      <trkpt lat="43.30998" lon="5.76386">
        <ele>609</ele>
        <time>2019-10-16T09:11:15Z</time>
      </trkpt>
      <trkpt lat="43.31004" lon="5.76385">
        <ele>610</ele>
        <time>2019-10-16T09:11:21Z</time>
      </trkpt>
      <trkpt lat="43.31009" lon="5.76384">
        <ele>610</ele>
        <time>2019-10-16T09:11:25Z</time>
      </trkpt>
      <trkpt lat="43.31016" lon="5.76381">
        <ele>610</ele>
        <time>2019-10-16T09:11:31Z</time>
      </trkpt>
      <trkpt lat="43.31021" lon="5.76378">
        <ele>610</ele>
        <time>2019-10-16T09:11:37Z</time>
      </trkpt>
      <trkpt lat="43.31027" lon="5.76378">
        <ele>611</ele>
        <time>2019-10-16T09:11:43Z</time>
      </trkpt>
      <trkpt lat="43.31033" lon="5.76378">
        <ele>611</ele>
        <time>2019-10-16T09:11:49Z</time>
      </trkpt>
      <trkpt lat="43.31038" lon="5.76379">
        <ele>610</ele>
        <time>2019-10-16T09:11:55Z</time>
      </trkpt>
      <trkpt lat="43.31044" lon="5.76377">
        <ele>609</ele>
        <time>2019-10-16T09:11:59Z</time>
      </trkpt>
      <trkpt lat="43.31049" lon="5.76375">
        <ele>608</ele>
        <time>2019-10-16T09:12:03Z</time>
      </trkpt>
      <trkpt lat="43.31053" lon="5.76371">
        <ele>608</ele>
        <time>2019-10-16T09:12:07Z</time>
      </trkpt>
      <trkpt lat="43.31057" lon="5.76366">
        <ele>608</ele>
        <time>2019-10-16T09:12:11Z</time>
      </trkpt>
      <trkpt lat="43.31061" lon="5.76362">
        <ele>610</ele>
        <time>2019-10-16T09:12:15Z</time>
      </trkpt>
      <trkpt lat="43.31066" lon="5.76357">
        <ele>611</ele>
        <time>2019-10-16T09:12:21Z</time>
      </trkpt>
      <trkpt lat="43.3107" lon="5.76354">
        <ele>612</ele>
        <time>2019-10-16T09:12:25Z</time>
      </trkpt>
      <trkpt lat="43.31075" lon="5.76352">
        <ele>611</ele>
        <time>2019-10-16T09:12:29Z</time>
      </trkpt>
      <trkpt lat="43.31079" lon="5.76351">
        <ele>611</ele>
        <time>2019-10-16T09:12:33Z</time>
      </trkpt>
      <trkpt lat="43.31085" lon="5.76351">
        <ele>611</ele>
        <time>2019-10-16T09:12:39Z</time>
      </trkpt>
      <trkpt lat="43.3109" lon="5.76353">
        <ele>610</ele>
        <time>2019-10-16T09:12:43Z</time>
      </trkpt>
      <trkpt lat="43.31094" lon="5.76358">
        <ele>611</ele>
        <time>2019-10-16T09:12:49Z</time>
      </trkpt>
      <trkpt lat="43.31098" lon="5.76363">
        <ele>610</ele>
        <time>2019-10-16T09:12:55Z</time>
      </trkpt>
      <trkpt lat="43.31102" lon="5.76367">
        <ele>612</ele>
        <time>2019-10-16T09:13:01Z</time>
      </trkpt>
      <trkpt lat="43.31107" lon="5.76373">
        <ele>612</ele>
        <time>2019-10-16T09:13:07Z</time>
      </trkpt>
      <trkpt lat="43.31112" lon="5.76375">
        <ele>613</ele>
        <time>2019-10-16T09:13:11Z</time>
      </trkpt>
      <trkpt lat="43.31118" lon="5.76374">
        <ele>612</ele>
        <time>2019-10-16T09:13:15Z</time>
      </trkpt>
      <trkpt lat="43.31124" lon="5.76375">
        <ele>612</ele>
        <time>2019-10-16T09:13:21Z</time>
      </trkpt>
      <trkpt lat="43.31131" lon="5.76374">
        <ele>613</ele>
        <time>2019-10-16T09:13:27Z</time>
      </trkpt>
      <trkpt lat="43.31137" lon="5.76373">
        <ele>617</ele>
        <time>2019-10-16T09:13:33Z</time>
      </trkpt>
      <trkpt lat="43.31142" lon="5.7637">
        <ele>617</ele>
        <time>2019-10-16T09:13:39Z</time>
      </trkpt>
      <trkpt lat="43.31147" lon="5.76371">
        <ele>619</ele>
        <time>2019-10-16T09:13:47Z</time>
      </trkpt>
      <trkpt lat="43.31153" lon="5.7637">
        <ele>618</ele>
        <time>2019-10-16T09:13:53Z</time>
      </trkpt>
      <trkpt lat="43.3116" lon="5.76371">
        <ele>620</ele>
        <time>2019-10-16T09:13:59Z</time>
      </trkpt>
      <trkpt lat="43.31166" lon="5.76373">
        <ele>619</ele>
        <time>2019-10-16T09:14:05Z</time>
      </trkpt>
      <trkpt lat="43.31171" lon="5.76375">
        <ele>619</ele>
        <time>2019-10-16T09:14:09Z</time>
      </trkpt>
      <trkpt lat="43.31176" lon="5.76377">
        <ele>620</ele>
        <time>2019-10-16T09:14:13Z</time>
      </trkpt>
      <trkpt lat="43.31181" lon="5.7638">
        <ele>622</ele>
        <time>2019-10-16T09:14:19Z</time>
      </trkpt>
      <trkpt lat="43.31187" lon="5.76384">
        <ele>624</ele>
        <time>2019-10-16T09:14:25Z</time>
      </trkpt>
      <trkpt lat="43.31192" lon="5.76386">
        <ele>625</ele>
        <time>2019-10-16T09:14:29Z</time>
      </trkpt>
      <trkpt lat="43.31196" lon="5.76389">
        <ele>626</ele>
        <time>2019-10-16T09:14:35Z</time>
      </trkpt>
      <trkpt lat="43.31201" lon="5.7639">
        <ele>626</ele>
        <time>2019-10-16T09:14:49Z</time>
      </trkpt>
      <trkpt lat="43.31206" lon="5.76392">
        <ele>627</ele>
        <time>2019-10-16T09:14:55Z</time>
      </trkpt>
      <trkpt lat="43.31212" lon="5.76395">
        <ele>628</ele>
        <time>2019-10-16T09:15:01Z</time>
      </trkpt>
      <trkpt lat="43.31216" lon="5.76398">
        <ele>631</ele>
        <time>2019-10-16T09:15:06Z</time>
      </trkpt>
      <trkpt lat="43.31221" lon="5.76402">
        <ele>632</ele>
        <time>2019-10-16T09:15:11Z</time>
      </trkpt>
      <trkpt lat="43.31225" lon="5.76407">
        <ele>633</ele>
        <time>2019-10-16T09:15:15Z</time>
      </trkpt>
      <trkpt lat="43.31228" lon="5.76414">
        <ele>635</ele>
        <time>2019-10-16T09:15:19Z</time>
      </trkpt>
      <trkpt lat="43.31232" lon="5.76418">
        <ele>633</ele>
        <time>2019-10-16T09:15:24Z</time>
      </trkpt>
      <trkpt lat="43.31237" lon="5.76425">
        <ele>633</ele>
        <time>2019-10-16T09:15:30Z</time>
      </trkpt>
      <trkpt lat="43.31239" lon="5.7643">
        <ele>633</ele>
        <time>2019-10-16T09:15:34Z</time>
      </trkpt>
      <trkpt lat="43.31244" lon="5.76437">
        <ele>629</ele>
        <time>2019-10-16T09:15:40Z</time>
      </trkpt>
      <trkpt lat="43.31248" lon="5.76444">
        <ele>629</ele>
        <time>2019-10-16T09:15:46Z</time>
      </trkpt>
      <trkpt lat="43.3125" lon="5.76451">
        <ele>630</ele>
        <time>2019-10-16T09:15:50Z</time>
      </trkpt>
      <trkpt lat="43.31253" lon="5.76457">
        <ele>629</ele>
        <time>2019-10-16T09:15:56Z</time>
      </trkpt>
      <trkpt lat="43.31254" lon="5.76465">
        <ele>628</ele>
        <time>2019-10-16T09:16:02Z</time>
      </trkpt>
      <trkpt lat="43.31256" lon="5.76471">
        <ele>628</ele>
        <time>2019-10-16T09:16:06Z</time>
      </trkpt>
      <trkpt lat="43.31258" lon="5.7648">
        <ele>628</ele>
        <time>2019-10-16T09:16:12Z</time>
      </trkpt>
      <trkpt lat="43.31259" lon="5.76487">
        <ele>628</ele>
        <time>2019-10-16T09:16:16Z</time>
      </trkpt>
      <trkpt lat="43.3126" lon="5.76493">
        <ele>628</ele>
        <time>2019-10-16T09:16:20Z</time>
      </trkpt>
      <trkpt lat="43.31262" lon="5.76503">
        <ele>628</ele>
        <time>2019-10-16T09:16:26Z</time>
      </trkpt>
      <trkpt lat="43.31263" lon="5.76509">
        <ele>628</ele>
        <time>2019-10-16T09:16:30Z</time>
      </trkpt>
      <trkpt lat="43.31264" lon="5.76516">
        <ele>628</ele>
        <time>2019-10-16T09:16:34Z</time>
      </trkpt>
      <trkpt lat="43.31265" lon="5.76522">
        <ele>627</ele>
        <time>2019-10-16T09:16:38Z</time>
      </trkpt>
      <trkpt lat="43.31266" lon="5.76528">
        <ele>626</ele>
        <time>2019-10-16T09:16:42Z</time>
      </trkpt>
      <trkpt lat="43.31267" lon="5.76534">
        <ele>627</ele>
        <time>2019-10-16T09:16:46Z</time>
      </trkpt>
      <trkpt lat="43.31269" lon="5.7654">
        <ele>627</ele>
        <time>2019-10-16T09:16:50Z</time>
      </trkpt>
      <trkpt lat="43.31271" lon="5.76546">
        <ele>627</ele>
        <time>2019-10-16T09:16:54Z</time>
      </trkpt>
      <trkpt lat="43.31272" lon="5.76553">
        <ele>627</ele>
        <time>2019-10-16T09:16:58Z</time>
      </trkpt>
      <trkpt lat="43.31274" lon="5.7656">
        <ele>626</ele>
        <time>2019-10-16T09:17:02Z</time>
      </trkpt>
      <trkpt lat="43.31276" lon="5.76567">
        <ele>626</ele>
        <time>2019-10-16T09:17:06Z</time>
      </trkpt>
      <trkpt lat="43.31277" lon="5.76575">
        <ele>628</ele>
        <time>2019-10-16T09:17:12Z</time>
      </trkpt>
      <trkpt lat="43.31277" lon="5.76581">
        <ele>628</ele>
        <time>2019-10-16T09:17:16Z</time>
      </trkpt>
      <trkpt lat="43.31276" lon="5.7659">
        <ele>627</ele>
        <time>2019-10-16T09:17:22Z</time>
      </trkpt>
      <trkpt lat="43.31276" lon="5.76597">
        <ele>627</ele>
        <time>2019-10-16T09:17:26Z</time>
      </trkpt>
      <trkpt lat="43.31279" lon="5.76603">
        <ele>626</ele>
        <time>2019-10-16T09:17:30Z</time>
      </trkpt>
      <trkpt lat="43.31284" lon="5.7661">
        <ele>625</ele>
        <time>2019-10-16T09:17:36Z</time>
      </trkpt>
      <trkpt lat="43.3129" lon="5.76615">
        <ele>625</ele>
        <time>2019-10-16T09:17:42Z</time>
      </trkpt>
      <trkpt lat="43.31295" lon="5.76616">
        <ele>623</ele>
        <time>2019-10-16T09:17:46Z</time>
      </trkpt>
      <trkpt lat="43.31301" lon="5.76617">
        <ele>625</ele>
        <time>2019-10-16T09:17:52Z</time>
      </trkpt>
      <trkpt lat="43.31308" lon="5.76617">
        <ele>627</ele>
        <time>2019-10-16T09:17:58Z</time>
      </trkpt>
      <trkpt lat="43.31313" lon="5.76615">
        <ele>623</ele>
        <time>2019-10-16T09:18:02Z</time>
      </trkpt>
      <trkpt lat="43.31318" lon="5.76614">
        <ele>626</ele>
        <time>2019-10-16T09:18:06Z</time>
      </trkpt>
      <trkpt lat="43.31322" lon="5.76613">
        <ele>625</ele>
        <time>2019-10-16T09:18:10Z</time>
      </trkpt>
      <trkpt lat="43.31328" lon="5.76612">
        <ele>625</ele>
        <time>2019-10-16T09:18:14Z</time>
      </trkpt>
      <trkpt lat="43.31332" lon="5.7661">
        <ele>624</ele>
        <time>2019-10-16T09:18:18Z</time>
      </trkpt>
      <trkpt lat="43.31337" lon="5.7661">
        <ele>626</ele>
        <time>2019-10-16T09:18:22Z</time>
      </trkpt>
      <trkpt lat="43.31343" lon="5.76606">
        <ele>620</ele>
        <time>2019-10-16T09:18:26Z</time>
      </trkpt>
      <trkpt lat="43.31348" lon="5.76607">
        <ele>620</ele>
        <time>2019-10-16T09:18:30Z</time>
      </trkpt>
      <trkpt lat="43.31352" lon="5.76611">
        <ele>619</ele>
        <time>2019-10-16T09:18:34Z</time>
      </trkpt>
      <trkpt lat="43.31355" lon="5.76617">
        <ele>618</ele>
        <time>2019-10-16T09:18:38Z</time>
      </trkpt>
      <trkpt lat="43.31356" lon="5.76623">
        <ele>617</ele>
        <time>2019-10-16T09:18:42Z</time>
      </trkpt>
      <trkpt lat="43.31355" lon="5.76632">
        <ele>618</ele>
        <time>2019-10-16T09:18:48Z</time>
      </trkpt>
      <trkpt lat="43.31354" lon="5.76639">
        <ele>619</ele>
        <time>2019-10-16T09:18:52Z</time>
      </trkpt>
      <trkpt lat="43.31353" lon="5.76645">
        <ele>618</ele>
        <time>2019-10-16T09:18:56Z</time>
      </trkpt>
      <trkpt lat="43.31352" lon="5.76652">
        <ele>619</ele>
        <time>2019-10-16T09:19:00Z</time>
      </trkpt>
      <trkpt lat="43.31352" lon="5.76659">
        <ele>618</ele>
        <time>2019-10-16T09:19:04Z</time>
      </trkpt>
      <trkpt lat="43.3135" lon="5.76667">
        <ele>618</ele>
        <time>2019-10-16T09:19:10Z</time>
      </trkpt>
      <trkpt lat="43.31349" lon="5.76674">
        <ele>618</ele>
        <time>2019-10-16T09:19:14Z</time>
      </trkpt>
      <trkpt lat="43.31349" lon="5.76681">
        <ele>618</ele>
        <time>2019-10-16T09:19:18Z</time>
      </trkpt>
      <trkpt lat="43.3135" lon="5.76687">
        <ele>618</ele>
        <time>2019-10-16T09:19:22Z</time>
      </trkpt>
      <trkpt lat="43.31352" lon="5.76696">
        <ele>619</ele>
        <time>2019-10-16T09:19:28Z</time>
      </trkpt>
      <trkpt lat="43.31353" lon="5.76703">
        <ele>619</ele>
        <time>2019-10-16T09:19:32Z</time>
      </trkpt>
      <trkpt lat="43.31355" lon="5.7671">
        <ele>621</ele>
        <time>2019-10-16T09:19:36Z</time>
      </trkpt>
      <trkpt lat="43.31357" lon="5.76717">
        <ele>621</ele>
        <time>2019-10-16T09:19:40Z</time>
      </trkpt>
      <trkpt lat="43.31359" lon="5.76723">
        <ele>622</ele>
        <time>2019-10-16T09:19:44Z</time>
      </trkpt>
      <trkpt lat="43.3136" lon="5.7673">
        <ele>622</ele>
        <time>2019-10-16T09:19:48Z</time>
      </trkpt>
      <trkpt lat="43.31362" lon="5.76739">
        <ele>622</ele>
        <time>2019-10-16T09:19:54Z</time>
      </trkpt>
      <trkpt lat="43.31362" lon="5.76746">
        <ele>621</ele>
        <time>2019-10-16T09:19:58Z</time>
      </trkpt>
      <trkpt lat="43.31362" lon="5.76753">
        <ele>620</ele>
        <time>2019-10-16T09:20:02Z</time>
      </trkpt>
      <trkpt lat="43.31363" lon="5.76759">
        <ele>619</ele>
        <time>2019-10-16T09:20:06Z</time>
      </trkpt>
      <trkpt lat="43.31366" lon="5.76767">
        <ele>619</ele>
        <time>2019-10-16T09:20:12Z</time>
      </trkpt>
      <trkpt lat="43.31368" lon="5.76774">
        <ele>618</ele>
        <time>2019-10-16T09:20:16Z</time>
      </trkpt>
      <trkpt lat="43.3137" lon="5.7678">
        <ele>619</ele>
        <time>2019-10-16T09:20:20Z</time>
      </trkpt>
      <trkpt lat="43.31373" lon="5.76785">
        <ele>620</ele>
        <time>2019-10-16T09:20:24Z</time>
      </trkpt>
      <trkpt lat="43.31377" lon="5.76792">
        <ele>620</ele>
        <time>2019-10-16T09:20:30Z</time>
      </trkpt>
      <trkpt lat="43.3138" lon="5.76798">
        <ele>620</ele>
        <time>2019-10-16T09:20:34Z</time>
      </trkpt>
      <trkpt lat="43.31384" lon="5.76806">
        <ele>622</ele>
        <time>2019-10-16T09:20:40Z</time>
      </trkpt>
      <trkpt lat="43.31386" lon="5.76812">
        <ele>623</ele>
        <time>2019-10-16T09:20:44Z</time>
      </trkpt>
      <trkpt lat="43.31389" lon="5.76819">
        <ele>623</ele>
        <time>2019-10-16T09:20:48Z</time>
      </trkpt>
      <trkpt lat="43.31391" lon="5.76824">
        <ele>624</ele>
        <time>2019-10-16T09:20:52Z</time>
      </trkpt>
      <trkpt lat="43.31395" lon="5.76832">
        <ele>623</ele>
        <time>2019-10-16T09:20:58Z</time>
      </trkpt>
      <trkpt lat="43.31396" lon="5.7684">
        <ele>625</ele>
        <time>2019-10-16T09:21:04Z</time>
      </trkpt>
      <trkpt lat="43.31398" lon="5.76848">
        <ele>624</ele>
        <time>2019-10-16T09:21:10Z</time>
      </trkpt>
      <trkpt lat="43.314" lon="5.76855">
        <ele>625</ele>
        <time>2019-10-16T09:21:14Z</time>
      </trkpt>
      <trkpt lat="43.314" lon="5.76862">
        <ele>624</ele>
        <time>2019-10-16T09:21:18Z</time>
      </trkpt>
      <trkpt lat="43.31401" lon="5.76868">
        <ele>625</ele>
        <time>2019-10-16T09:21:22Z</time>
      </trkpt>
      <trkpt lat="43.31403" lon="5.76877">
        <ele>626</ele>
        <time>2019-10-16T09:21:28Z</time>
      </trkpt>
      <trkpt lat="43.31406" lon="5.76883">
        <ele>626</ele>
        <time>2019-10-16T09:21:32Z</time>
      </trkpt>
      <trkpt lat="43.31409" lon="5.7689">
        <ele>625</ele>
        <time>2019-10-16T09:21:36Z</time>
      </trkpt>
      <trkpt lat="43.31412" lon="5.76895">
        <ele>626</ele>
        <time>2019-10-16T09:21:40Z</time>
      </trkpt>
      <trkpt lat="43.31415" lon="5.76903">
        <ele>628</ele>
        <time>2019-10-16T09:21:46Z</time>
      </trkpt>
      <trkpt lat="43.31417" lon="5.76908">
        <ele>628</ele>
        <time>2019-10-16T09:21:50Z</time>
      </trkpt>
      <trkpt lat="43.31421" lon="5.76916">
        <ele>628</ele>
        <time>2019-10-16T09:21:56Z</time>
      </trkpt>
      <trkpt lat="43.31423" lon="5.76922">
        <ele>629</ele>
        <time>2019-10-16T09:22:00Z</time>
      </trkpt>
      <trkpt lat="43.31425" lon="5.76927">
        <ele>628</ele>
        <time>2019-10-16T09:22:04Z</time>
      </trkpt>
      <trkpt lat="43.31428" lon="5.76932">
        <ele>627</ele>
        <time>2019-10-16T09:22:08Z</time>
      </trkpt>
      <trkpt lat="43.31431" lon="5.7694">
        <ele>628</ele>
        <time>2019-10-16T09:22:14Z</time>
      </trkpt>
      <trkpt lat="43.31434" lon="5.76947">
        <ele>629</ele>
        <time>2019-10-16T09:22:20Z</time>
      </trkpt>
      <trkpt lat="43.31437" lon="5.76955">
        <ele>631</ele>
        <time>2019-10-16T09:22:26Z</time>
      </trkpt>
      <trkpt lat="43.31439" lon="5.76961">
        <ele>632</ele>
        <time>2019-10-16T09:22:30Z</time>
      </trkpt>
      <trkpt lat="43.31443" lon="5.76969">
        <ele>632</ele>
        <time>2019-10-16T09:22:36Z</time>
      </trkpt>
      <trkpt lat="43.31446" lon="5.76974">
        <ele>632</ele>
        <time>2019-10-16T09:22:40Z</time>
      </trkpt>
      <trkpt lat="43.31448" lon="5.7698">
        <ele>633</ele>
        <time>2019-10-16T09:22:44Z</time>
      </trkpt>
      <trkpt lat="43.31451" lon="5.76987">
        <ele>635</ele>
        <time>2019-10-16T09:22:50Z</time>
      </trkpt>
      <trkpt lat="43.31455" lon="5.76992">
        <ele>636</ele>
        <time>2019-10-16T09:22:54Z</time>
      </trkpt>
      <trkpt lat="43.31457" lon="5.76998">
        <ele>637</ele>
        <time>2019-10-16T09:22:58Z</time>
      </trkpt>
      <trkpt lat="43.31459" lon="5.77004">
        <ele>637</ele>
        <time>2019-10-16T09:23:02Z</time>
      </trkpt>
      <trkpt lat="43.31461" lon="5.7701">
        <ele>637</ele>
        <time>2019-10-16T09:23:06Z</time>
      </trkpt>
      <trkpt lat="43.31461" lon="5.77016">
        <ele>638</ele>
        <time>2019-10-16T09:23:10Z</time>
      </trkpt>
      <trkpt lat="43.31464" lon="5.77025">
        <ele>638</ele>
        <time>2019-10-16T09:23:16Z</time>
      </trkpt>
      <trkpt lat="43.31465" lon="5.77031">
        <ele>637</ele>
        <time>2019-10-16T09:23:20Z</time>
      </trkpt>
      <trkpt lat="43.31466" lon="5.77038">
        <ele>638</ele>
        <time>2019-10-16T09:23:24Z</time>
      </trkpt>
      <trkpt lat="43.31468" lon="5.77044">
        <ele>637</ele>
        <time>2019-10-16T09:23:28Z</time>
      </trkpt>
      <trkpt lat="43.31471" lon="5.77052">
        <ele>637</ele>
        <time>2019-10-16T09:23:34Z</time>
      </trkpt>
      <trkpt lat="43.31473" lon="5.77058">
        <ele>638</ele>
        <time>2019-10-16T09:23:38Z</time>
      </trkpt>
      <trkpt lat="43.31476" lon="5.77066">
        <ele>638</ele>
        <time>2019-10-16T09:23:44Z</time>
      </trkpt>
      <trkpt lat="43.31478" lon="5.77071">
        <ele>638</ele>
        <time>2019-10-16T09:23:48Z</time>
      </trkpt>
      <trkpt lat="43.31481" lon="5.7708">
        <ele>637</ele>
        <time>2019-10-16T09:23:54Z</time>
      </trkpt>
      <trkpt lat="43.31483" lon="5.77085">
        <ele>637</ele>
        <time>2019-10-16T09:23:58Z</time>
      </trkpt>
      <trkpt lat="43.31486" lon="5.77091">
        <ele>638</ele>
        <time>2019-10-16T09:24:02Z</time>
      </trkpt>
      <trkpt lat="43.31489" lon="5.77096">
        <ele>638</ele>
        <time>2019-10-16T09:24:06Z</time>
      </trkpt>
      <trkpt lat="43.31494" lon="5.771">
        <ele>638</ele>
        <time>2019-10-16T09:24:12Z</time>
      </trkpt>
      <trkpt lat="43.315" lon="5.771">
        <ele>638</ele>
        <time>2019-10-16T09:24:18Z</time>
      </trkpt>
      <trkpt lat="43.31507" lon="5.771">
        <ele>638</ele>
        <time>2019-10-16T09:24:24Z</time>
      </trkpt>
      <trkpt lat="43.31513" lon="5.77102">
        <ele>638</ele>
        <time>2019-10-16T09:24:30Z</time>
      </trkpt>
      <trkpt lat="43.31518" lon="5.77105">
        <ele>638</ele>
        <time>2019-10-16T09:24:36Z</time>
      </trkpt>
      <trkpt lat="43.31523" lon="5.77109">
        <ele>637</ele>
        <time>2019-10-16T09:24:42Z</time>
      </trkpt>
      <trkpt lat="43.31529" lon="5.77112">
        <ele>638</ele>
        <time>2019-10-16T09:24:48Z</time>
      </trkpt>
      <trkpt lat="43.31535" lon="5.77115">
        <ele>639</ele>
        <time>2019-10-16T09:24:54Z</time>
      </trkpt>
      <trkpt lat="43.3154" lon="5.77117">
        <ele>638</ele>
        <time>2019-10-16T09:25:00Z</time>
      </trkpt>
      <trkpt lat="43.31546" lon="5.77119">
        <ele>639</ele>
        <time>2019-10-16T09:25:06Z</time>
      </trkpt>
      <trkpt lat="43.31551" lon="5.77124">
        <ele>637</ele>
        <time>2019-10-16T09:25:12Z</time>
      </trkpt>
      <trkpt lat="43.31552" lon="5.77131">
        <ele>636</ele>
        <time>2019-10-16T09:25:16Z</time>
      </trkpt>
      <trkpt lat="43.31552" lon="5.77138">
        <ele>636</ele>
        <time>2019-10-16T09:25:20Z</time>
      </trkpt>
      <trkpt lat="43.3155" lon="5.77145">
        <ele>637</ele>
        <time>2019-10-16T09:25:26Z</time>
      </trkpt>
      <trkpt lat="43.31547" lon="5.77152">
        <ele>638</ele>
        <time>2019-10-16T09:25:32Z</time>
      </trkpt>
      <trkpt lat="43.31543" lon="5.77159">
        <ele>639</ele>
        <time>2019-10-16T09:25:38Z</time>
      </trkpt>
      <trkpt lat="43.3154" lon="5.77165">
        <ele>639</ele>
        <time>2019-10-16T09:25:44Z</time>
      </trkpt>
      <trkpt lat="43.31539" lon="5.77172">
        <ele>640</ele>
        <time>2019-10-16T09:25:50Z</time>
      </trkpt>
      <trkpt lat="43.3154" lon="5.77179">
        <ele>640</ele>
        <time>2019-10-16T09:25:56Z</time>
      </trkpt>
      <trkpt lat="43.3154" lon="5.77188">
        <ele>641</ele>
        <time>2019-10-16T09:26:02Z</time>
      </trkpt>
      <trkpt lat="43.31539" lon="5.77195">
        <ele>642</ele>
        <time>2019-10-16T09:26:08Z</time>
      </trkpt>
      <trkpt lat="43.31539" lon="5.77202">
        <ele>642</ele>
        <time>2019-10-16T09:26:12Z</time>
      </trkpt>
      <trkpt lat="43.31539" lon="5.7721">
        <ele>643</ele>
        <time>2019-10-16T09:26:18Z</time>
      </trkpt>
      <trkpt lat="43.31539" lon="5.77219">
        <ele>644</ele>
        <time>2019-10-16T09:26:24Z</time>
      </trkpt>
      <trkpt lat="43.31537" lon="5.77225">
        <ele>644</ele>
        <time>2019-10-16T09:26:28Z</time>
      </trkpt>
      <trkpt lat="43.31534" lon="5.77233">
        <ele>645</ele>
        <time>2019-10-16T09:26:34Z</time>
      </trkpt>
      <trkpt lat="43.31532" lon="5.7724">
        <ele>644</ele>
        <time>2019-10-16T09:26:40Z</time>
      </trkpt>
      <trkpt lat="43.31529" lon="5.77248">
        <ele>644</ele>
        <time>2019-10-16T09:26:46Z</time>
      </trkpt>
      <trkpt lat="43.31528" lon="5.77254">
        <ele>644</ele>
        <time>2019-10-16T09:26:50Z</time>
      </trkpt>
      <trkpt lat="43.31528" lon="5.77263">
        <ele>643</ele>
        <time>2019-10-16T09:26:56Z</time>
      </trkpt>
      <trkpt lat="43.31526" lon="5.77269">
        <ele>644</ele>
        <time>2019-10-16T09:27:00Z</time>
      </trkpt>
      <trkpt lat="43.31525" lon="5.77279">
        <ele>644</ele>
        <time>2019-10-16T09:27:06Z</time>
      </trkpt>
      <trkpt lat="43.31523" lon="5.77286">
        <ele>643</ele>
        <time>2019-10-16T09:27:12Z</time>
      </trkpt>
      <trkpt lat="43.31521" lon="5.77294">
        <ele>643</ele>
        <time>2019-10-16T09:27:18Z</time>
      </trkpt>
      <trkpt lat="43.3152" lon="5.773">
        <ele>643</ele>
        <time>2019-10-16T09:27:22Z</time>
      </trkpt>
      <trkpt lat="43.31518" lon="5.77306">
        <ele>642</ele>
        <time>2019-10-16T09:27:26Z</time>
      </trkpt>
      <trkpt lat="43.31515" lon="5.77313">
        <ele>642</ele>
        <time>2019-10-16T09:27:32Z</time>
      </trkpt>
      <trkpt lat="43.3151" lon="5.77319">
        <ele>641</ele>
        <time>2019-10-16T09:27:38Z</time>
      </trkpt>
      <trkpt lat="43.31508" lon="5.77325">
        <ele>642</ele>
        <time>2019-10-16T09:27:42Z</time>
      </trkpt>
      <trkpt lat="43.31506" lon="5.77331">
        <ele>641</ele>
        <time>2019-10-16T09:27:46Z</time>
      </trkpt>
      <trkpt lat="43.31503" lon="5.77337">
        <ele>641</ele>
        <time>2019-10-16T09:27:50Z</time>
      </trkpt>
      <trkpt lat="43.31502" lon="5.77344">
        <ele>641</ele>
        <time>2019-10-16T09:27:54Z</time>
      </trkpt>
      <trkpt lat="43.315" lon="5.7735">
        <ele>640</ele>
        <time>2019-10-16T09:27:58Z</time>
      </trkpt>
      <trkpt lat="43.315" lon="5.77357">
        <ele>641</ele>
        <time>2019-10-16T09:28:02Z</time>
      </trkpt>
      <trkpt lat="43.31501" lon="5.77363">
        <ele>641</ele>
        <time>2019-10-16T09:28:06Z</time>
      </trkpt>
      <trkpt lat="43.31501" lon="5.7737">
        <ele>642</ele>
        <time>2019-10-16T09:28:10Z</time>
      </trkpt>
      <trkpt lat="43.31501" lon="5.77376">
        <ele>644</ele>
        <time>2019-10-16T09:28:14Z</time>
      </trkpt>
      <trkpt lat="43.31501" lon="5.77384">
        <ele>645</ele>
        <time>2019-10-16T09:28:20Z</time>
      </trkpt>
      <trkpt lat="43.31505" lon="5.77389">
        <ele>646</ele>
        <time>2019-10-16T09:28:26Z</time>
      </trkpt>
      <trkpt lat="43.3151" lon="5.77392">
        <ele>644</ele>
        <time>2019-10-16T09:28:32Z</time>
      </trkpt>
      <trkpt lat="43.31515" lon="5.77398">
        <ele>645</ele>
        <time>2019-10-16T09:28:40Z</time>
      </trkpt>
      <trkpt lat="43.31518" lon="5.77404">
        <ele>644</ele>
        <time>2019-10-16T09:28:46Z</time>
      </trkpt>
      <trkpt lat="43.31522" lon="5.7741">
        <ele>647</ele>
        <time>2019-10-16T09:28:54Z</time>
      </trkpt>
      <trkpt lat="43.31527" lon="5.77414">
        <ele>649</ele>
        <time>2019-10-16T09:29:00Z</time>
      </trkpt>
      <trkpt lat="43.3153" lon="5.77421">
        <ele>650</ele>
        <time>2019-10-16T09:29:06Z</time>
      </trkpt>
      <trkpt lat="43.31534" lon="5.77426">
        <ele>652</ele>
        <time>2019-10-16T09:29:14Z</time>
      </trkpt>
      <trkpt lat="43.31538" lon="5.7743">
        <ele>655</ele>
        <time>2019-10-16T09:29:20Z</time>
      </trkpt>
      <trkpt lat="43.31543" lon="5.77433">
        <ele>657</ele>
        <time>2019-10-16T09:29:26Z</time>
      </trkpt>
      <trkpt lat="43.31549" lon="5.77435">
        <ele>657</ele>
        <time>2019-10-16T09:29:32Z</time>
      </trkpt>
      <trkpt lat="43.31554" lon="5.77438">
        <ele>658</ele>
        <time>2019-10-16T09:29:38Z</time>
      </trkpt>
      <trkpt lat="43.31559" lon="5.77443">
        <ele>657</ele>
        <time>2019-10-16T09:29:44Z</time>
      </trkpt>
      <trkpt lat="43.31563" lon="5.77448">
        <ele>657</ele>
        <time>2019-10-16T09:29:50Z</time>
      </trkpt>
      <trkpt lat="43.31567" lon="5.77452">
        <ele>658</ele>
        <time>2019-10-16T09:29:58Z</time>
      </trkpt>
      <trkpt lat="43.3157" lon="5.77447">
        <ele>664</ele>
        <time>2019-10-16T09:31:38Z</time>
      </trkpt>
      <trkpt lat="43.31569" lon="5.77453">
        <ele>663</ele>
        <time>2019-10-16T09:32:06Z</time>
      </trkpt>
      <trkpt lat="43.31567" lon="5.77459">
        <ele>662</ele>
        <time>2019-10-16T09:32:16Z</time>
      </trkpt>
      <trkpt lat="43.31566" lon="5.77465">
        <ele>662</ele>
        <time>2019-10-16T09:32:24Z</time>
      </trkpt>
      <trkpt lat="43.31564" lon="5.77472">
        <ele>664</ele>
        <time>2019-10-16T09:32:30Z</time>
      </trkpt>
      <trkpt lat="43.31563" lon="5.77479">
        <ele>664</ele>
        <time>2019-10-16T09:32:38Z</time>
      </trkpt>
      <trkpt lat="43.31562" lon="5.77485">
        <ele>663</ele>
        <time>2019-10-16T09:32:44Z</time>
      </trkpt>
      <trkpt lat="43.31561" lon="5.77493">
        <ele>661</ele>
        <time>2019-10-16T09:32:52Z</time>
      </trkpt>
      <trkpt lat="43.31561" lon="5.775">
        <ele>660</ele>
        <time>2019-10-16T09:32:58Z</time>
      </trkpt>
      <trkpt lat="43.31559" lon="5.77507">
        <ele>662</ele>
        <time>2019-10-16T09:33:06Z</time>
      </trkpt>
      <trkpt lat="43.31557" lon="5.77513">
        <ele>666</ele>
        <time>2019-10-16T09:33:12Z</time>
      </trkpt>
      <trkpt lat="43.31556" lon="5.77522">
        <ele>666</ele>
        <time>2019-10-16T09:33:18Z</time>
      </trkpt>
      <trkpt lat="43.31556" lon="5.77529">
        <ele>665</ele>
        <time>2019-10-16T09:33:24Z</time>
      </trkpt>
      <trkpt lat="43.31553" lon="5.77535">
        <ele>668</ele>
        <time>2019-10-16T09:33:30Z</time>
      </trkpt>
      <trkpt lat="43.31553" lon="5.77543">
        <ele>667</ele>
        <time>2019-10-16T09:33:36Z</time>
      </trkpt>
      <trkpt lat="43.31551" lon="5.7755">
        <ele>669</ele>
        <time>2019-10-16T09:33:42Z</time>
      </trkpt>
      <trkpt lat="43.3155" lon="5.77556">
        <ele>670</ele>
        <time>2019-10-16T09:33:46Z</time>
      </trkpt>
      <trkpt lat="43.31547" lon="5.77561">
        <ele>673</ele>
        <time>2019-10-16T09:33:52Z</time>
      </trkpt>
      <trkpt lat="43.31545" lon="5.7757">
        <ele>671</ele>
        <time>2019-10-16T09:33:58Z</time>
      </trkpt>
      <trkpt lat="43.31545" lon="5.77577">
        <ele>668</ele>
        <time>2019-10-16T09:34:02Z</time>
      </trkpt>
      <trkpt lat="43.31543" lon="5.77585">
        <ele>667</ele>
        <time>2019-10-16T09:34:08Z</time>
      </trkpt>
      <trkpt lat="43.31541" lon="5.77593">
        <ele>665</ele>
        <time>2019-10-16T09:34:12Z</time>
      </trkpt>
      <trkpt lat="43.3154" lon="5.77599">
        <ele>664</ele>
        <time>2019-10-16T09:34:16Z</time>
      </trkpt>
      <trkpt lat="43.31539" lon="5.77606">
        <ele>663</ele>
        <time>2019-10-16T09:34:20Z</time>
      </trkpt>
      <trkpt lat="43.31538" lon="5.77612">
        <ele>663</ele>
        <time>2019-10-16T09:34:24Z</time>
      </trkpt>
      <trkpt lat="43.31535" lon="5.7762">
        <ele>664</ele>
        <time>2019-10-16T09:34:30Z</time>
      </trkpt>
      <trkpt lat="43.31532" lon="5.77629">
        <ele>666</ele>
        <time>2019-10-16T09:34:36Z</time>
      </trkpt>
      <trkpt lat="43.3153" lon="5.77637">
        <ele>664</ele>
        <time>2019-10-16T09:34:42Z</time>
      </trkpt>
      <trkpt lat="43.31528" lon="5.77645">
        <ele>663</ele>
        <time>2019-10-16T09:34:48Z</time>
      </trkpt>
      <trkpt lat="43.31524" lon="5.77652">
        <ele>663</ele>
        <time>2019-10-16T09:34:54Z</time>
      </trkpt>
      <trkpt lat="43.3152" lon="5.77656">
        <ele>663</ele>
        <time>2019-10-16T09:34:58Z</time>
      </trkpt>
      <trkpt lat="43.31517" lon="5.77662">
        <ele>664</ele>
        <time>2019-10-16T09:35:02Z</time>
      </trkpt>
      <trkpt lat="43.31515" lon="5.77667">
        <ele>661</ele>
        <time>2019-10-16T09:35:08Z</time>
      </trkpt>
      <trkpt lat="43.31513" lon="5.77675">
        <ele>660</ele>
        <time>2019-10-16T09:35:14Z</time>
      </trkpt>
      <trkpt lat="43.31511" lon="5.77683">
        <ele>659</ele>
        <time>2019-10-16T09:35:20Z</time>
      </trkpt>
      <trkpt lat="43.31516" lon="5.77689">
        <ele>658</ele>
        <time>2019-10-16T09:35:26Z</time>
      </trkpt>
      <trkpt lat="43.31521" lon="5.77694">
        <ele>657</ele>
        <time>2019-10-16T09:35:30Z</time>
      </trkpt>
      <trkpt lat="43.31526" lon="5.77699">
        <ele>658</ele>
        <time>2019-10-16T09:35:34Z</time>
      </trkpt>
      <trkpt lat="43.31529" lon="5.77702">
        <ele>659</ele>
        <time>2019-10-16T09:35:38Z</time>
      </trkpt>
      <trkpt lat="43.31534" lon="5.77703">
        <ele>661</ele>
        <time>2019-10-16T09:35:44Z</time>
      </trkpt>
      <trkpt lat="43.31541" lon="5.77704">
        <ele>660</ele>
        <time>2019-10-16T09:35:50Z</time>
      </trkpt>
      <trkpt lat="43.31548" lon="5.77706">
        <ele>660</ele>
        <time>2019-10-16T09:35:56Z</time>
      </trkpt>
      <trkpt lat="43.31553" lon="5.77706">
        <ele>661</ele>
        <time>2019-10-16T09:36:02Z</time>
      </trkpt>
      <trkpt lat="43.31559" lon="5.77705">
        <ele>661</ele>
        <time>2019-10-16T09:36:08Z</time>
      </trkpt>
      <trkpt lat="43.31565" lon="5.77705">
        <ele>660</ele>
        <time>2019-10-16T09:36:14Z</time>
      </trkpt>
      <trkpt lat="43.3157" lon="5.77704">
        <ele>660</ele>
        <time>2019-10-16T09:36:20Z</time>
      </trkpt>
      <trkpt lat="43.31576" lon="5.77704">
        <ele>661</ele>
        <time>2019-10-16T09:36:26Z</time>
      </trkpt>
      <trkpt lat="43.31581" lon="5.77708">
        <ele>660</ele>
        <time>2019-10-16T09:36:30Z</time>
      </trkpt>
      <trkpt lat="43.31586" lon="5.77707">
        <ele>660</ele>
        <time>2019-10-16T09:36:36Z</time>
      </trkpt>
      <trkpt lat="43.31591" lon="5.7771">
        <ele>661</ele>
        <time>2019-10-16T09:36:46Z</time>
      </trkpt>
      <trkpt lat="43.31595" lon="5.77707">
        <ele>659</ele>
        <time>2019-10-16T09:37:04Z</time>
      </trkpt>
      <trkpt lat="43.316" lon="5.77705">
        <ele>660</ele>
        <time>2019-10-16T09:37:20Z</time>
      </trkpt>
      <trkpt lat="43.31606" lon="5.77706">
        <ele>663</ele>
        <time>2019-10-16T09:37:28Z</time>
      </trkpt>
      <trkpt lat="43.3161" lon="5.77706">
        <ele>665</ele>
        <time>2019-10-16T09:37:36Z</time>
      </trkpt>
      <trkpt lat="43.31614" lon="5.77703">
        <ele>667</ele>
        <time>2019-10-16T09:37:48Z</time>
      </trkpt>
      <trkpt lat="43.31619" lon="5.77702">
        <ele>665</ele>
        <time>2019-10-16T09:37:54Z</time>
      </trkpt>
      <trkpt lat="43.31624" lon="5.77704">
        <ele>665</ele>
        <time>2019-10-16T09:38:02Z</time>
      </trkpt>
      <trkpt lat="43.3163" lon="5.77704">
        <ele>665</ele>
        <time>2019-10-16T09:38:10Z</time>
      </trkpt>
      <trkpt lat="43.31635" lon="5.77703">
        <ele>666</ele>
        <time>2019-10-16T09:38:20Z</time>
      </trkpt>
      <trkpt lat="43.3164" lon="5.77702">
        <ele>667</ele>
        <time>2019-10-16T09:38:34Z</time>
      </trkpt>
      <trkpt lat="43.31644" lon="5.77699">
        <ele>669</ele>
        <time>2019-10-16T09:38:46Z</time>
      </trkpt>
      <trkpt lat="43.31646" lon="5.77691">
        <ele>666</ele>
        <time>2019-10-16T09:38:58Z</time>
      </trkpt>
      <trkpt lat="43.31647" lon="5.77684">
        <ele>660</ele>
        <time>2019-10-16T09:39:02Z</time>
      </trkpt>
      <trkpt lat="43.3165" lon="5.77679">
        <ele>664</ele>
        <time>2019-10-16T09:39:10Z</time>
      </trkpt>
      <trkpt lat="43.31654" lon="5.77675">
        <ele>665</ele>
        <time>2019-10-16T09:39:20Z</time>
      </trkpt>
      <trkpt lat="43.31659" lon="5.77672">
        <ele>669</ele>
        <time>2019-10-16T09:39:28Z</time>
      </trkpt>
      <trkpt lat="43.31664" lon="5.77668">
        <ele>667</ele>
        <time>2019-10-16T09:39:34Z</time>
      </trkpt>
      <trkpt lat="43.31668" lon="5.77664">
        <ele>670</ele>
        <time>2019-10-16T09:39:40Z</time>
      </trkpt>
      <trkpt lat="43.31672" lon="5.77663">
        <ele>673</ele>
        <time>2019-10-16T09:39:56Z</time>
      </trkpt>
      <trkpt lat="43.31678" lon="5.77661">
        <ele>676</ele>
        <time>2019-10-16T09:40:06Z</time>
      </trkpt>
      <trkpt lat="43.31683" lon="5.7766">
        <ele>678</ele>
        <time>2019-10-16T09:40:18Z</time>
      </trkpt>
      <trkpt lat="43.31684" lon="5.77653">
        <ele>678</ele>
        <time>2019-10-16T09:40:24Z</time>
      </trkpt>
      <trkpt lat="43.31686" lon="5.77648">
        <ele>678</ele>
        <time>2019-10-16T09:40:30Z</time>
      </trkpt>
      <trkpt lat="43.31686" lon="5.7764">
        <ele>676</ele>
        <time>2019-10-16T09:40:38Z</time>
      </trkpt>
      <trkpt lat="43.31683" lon="5.77635">
        <ele>677</ele>
        <time>2019-10-16T09:40:44Z</time>
      </trkpt>
      <trkpt lat="43.31681" lon="5.7763">
        <ele>675</ele>
        <time>2019-10-16T09:40:50Z</time>
      </trkpt>
      <trkpt lat="43.31677" lon="5.77624">
        <ele>677</ele>
        <time>2019-10-16T09:40:58Z</time>
      </trkpt>
      <trkpt lat="43.31673" lon="5.77618">
        <ele>678</ele>
        <time>2019-10-16T09:41:06Z</time>
      </trkpt>
      <trkpt lat="43.31672" lon="5.77612">
        <ele>680</ele>
        <time>2019-10-16T09:41:12Z</time>
      </trkpt>
      <trkpt lat="43.31669" lon="5.77606">
        <ele>680</ele>
        <time>2019-10-16T09:41:18Z</time>
      </trkpt>
      <trkpt lat="43.31666" lon="5.776">
        <ele>679</ele>
        <time>2019-10-16T09:41:24Z</time>
      </trkpt>
      <trkpt lat="43.31664" lon="5.77593">
        <ele>678</ele>
        <time>2019-10-16T09:41:32Z</time>
      </trkpt>
      <trkpt lat="43.31664" lon="5.77586">
        <ele>679</ele>
        <time>2019-10-16T09:41:40Z</time>
      </trkpt>
      <trkpt lat="43.31666" lon="5.77579">
        <ele>681</ele>
        <time>2019-10-16T09:41:48Z</time>
      </trkpt>
      <trkpt lat="43.3167" lon="5.77572">
        <ele>683</ele>
        <time>2019-10-16T09:41:58Z</time>
      </trkpt>
      <trkpt lat="43.31673" lon="5.77567">
        <ele>684</ele>
        <time>2019-10-16T09:42:08Z</time>
      </trkpt>
      <trkpt lat="43.31675" lon="5.7756">
        <ele>684</ele>
        <time>2019-10-16T09:42:16Z</time>
      </trkpt>
      <trkpt lat="43.31678" lon="5.77554">
        <ele>684</ele>
        <time>2019-10-16T09:42:24Z</time>
      </trkpt>
      <trkpt lat="43.31681" lon="5.77548">
        <ele>685</ele>
        <time>2019-10-16T09:42:30Z</time>
      </trkpt>
      <trkpt lat="43.31685" lon="5.77543">
        <ele>685</ele>
        <time>2019-10-16T09:42:38Z</time>
      </trkpt>
      <trkpt lat="43.31688" lon="5.77538">
        <ele>686</ele>
        <time>2019-10-16T09:42:46Z</time>
      </trkpt>
      <trkpt lat="43.31687" lon="5.77531">
        <ele>688</ele>
        <time>2019-10-16T09:43:48Z</time>
      </trkpt>
      <trkpt lat="43.3169" lon="5.77526">
        <ele>690</ele>
        <time>2019-10-16T09:44:08Z</time>
      </trkpt>
      <trkpt lat="43.31692" lon="5.77519">
        <ele>692</ele>
        <time>2019-10-16T09:44:18Z</time>
      </trkpt>
      <trkpt lat="43.31693" lon="5.77511">
        <ele>694</ele>
        <time>2019-10-16T09:44:26Z</time>
      </trkpt>
      <trkpt lat="43.31693" lon="5.77504">
        <ele>696</ele>
        <time>2019-10-16T09:44:34Z</time>
      </trkpt>
      <trkpt lat="43.31696" lon="5.77497">
        <ele>697</ele>
        <time>2019-10-16T09:44:44Z</time>
      </trkpt>
      <trkpt lat="43.31697" lon="5.7749">
        <ele>700</ele>
        <time>2019-10-16T09:44:52Z</time>
      </trkpt>
      <trkpt lat="43.31698" lon="5.77483">
        <ele>700</ele>
        <time>2019-10-16T09:45:00Z</time>
      </trkpt>
      <trkpt lat="43.31699" lon="5.77476">
        <ele>702</ele>
        <time>2019-10-16T09:45:08Z</time>
      </trkpt>
      <trkpt lat="43.31702" lon="5.7747">
        <ele>703</ele>
        <time>2019-10-16T09:45:18Z</time>
      </trkpt>
      <trkpt lat="43.31704" lon="5.77463">
        <ele>703</ele>
        <time>2019-10-16T09:45:26Z</time>
      </trkpt>
      <trkpt lat="43.31706" lon="5.77457">
        <ele>706</ele>
        <time>2019-10-16T09:45:36Z</time>
      </trkpt>
      <trkpt lat="43.31707" lon="5.7745">
        <ele>706</ele>
        <time>2019-10-16T09:45:46Z</time>
      </trkpt>
      <trkpt lat="43.31709" lon="5.77443">
        <ele>707</ele>
        <time>2019-10-16T09:45:58Z</time>
      </trkpt>
      <trkpt lat="43.31711" lon="5.77435">
        <ele>706</ele>
        <time>2019-10-16T09:46:04Z</time>
      </trkpt>
      <trkpt lat="43.31712" lon="5.77428">
        <ele>707</ele>
        <time>2019-10-16T09:46:10Z</time>
      </trkpt>
      <trkpt lat="43.31714" lon="5.77422">
        <ele>707</ele>
        <time>2019-10-16T09:46:16Z</time>
      </trkpt>
      <trkpt lat="43.31716" lon="5.77416">
        <ele>707</ele>
        <time>2019-10-16T09:46:24Z</time>
      </trkpt>
      <trkpt lat="43.31718" lon="5.7741">
        <ele>707</ele>
        <time>2019-10-16T09:46:30Z</time>
      </trkpt>
      <trkpt lat="43.31719" lon="5.77404">
        <ele>711</ele>
        <time>2019-10-16T09:46:38Z</time>
      </trkpt>
      <trkpt lat="43.31721" lon="5.77397">
        <ele>712</ele>
        <time>2019-10-16T09:46:46Z</time>
      </trkpt>
      <trkpt lat="43.31725" lon="5.774">
        <ele>714</ele>
        <time>2019-10-16T09:46:56Z</time>
      </trkpt>
      <trkpt lat="43.31728" lon="5.77404">
        <ele>715</ele>
        <time>2019-10-16T09:47:02Z</time>
      </trkpt>
      <trkpt lat="43.3173" lon="5.77411">
        <ele>716</ele>
        <time>2019-10-16T09:47:12Z</time>
      </trkpt>
      <trkpt lat="43.31732" lon="5.77416">
        <ele>716</ele>
        <time>2019-10-16T09:47:36Z</time>
      </trkpt>
      <trkpt lat="43.31734" lon="5.77422">
        <ele>716</ele>
        <time>2019-10-16T09:47:44Z</time>
      </trkpt>
      <trkpt lat="43.31738" lon="5.77429">
        <ele>716</ele>
        <time>2019-10-16T09:47:52Z</time>
      </trkpt>
      <trkpt lat="43.3174" lon="5.77434">
        <ele>716</ele>
        <time>2019-10-16T09:48:00Z</time>
      </trkpt>
      <trkpt lat="43.31741" lon="5.77441">
        <ele>718</ele>
        <time>2019-10-16T09:48:08Z</time>
      </trkpt>
      <trkpt lat="43.31745" lon="5.77445">
        <ele>718</ele>
        <time>2019-10-16T09:48:16Z</time>
      </trkpt>
      <trkpt lat="43.31748" lon="5.77451">
        <ele>720</ele>
        <time>2019-10-16T09:48:22Z</time>
      </trkpt>
      <trkpt lat="43.31752" lon="5.77456">
        <ele>721</ele>
        <time>2019-10-16T09:48:30Z</time>
      </trkpt>
      <trkpt lat="43.31757" lon="5.77461">
        <ele>723</ele>
        <time>2019-10-16T09:48:40Z</time>
      </trkpt>
      <trkpt lat="43.31761" lon="5.77466">
        <ele>724</ele>
        <time>2019-10-16T09:48:46Z</time>
      </trkpt>
      <trkpt lat="43.31765" lon="5.7747">
        <ele>725</ele>
        <time>2019-10-16T09:48:56Z</time>
      </trkpt>
      <trkpt lat="43.31769" lon="5.77474">
        <ele>728</ele>
        <time>2019-10-16T09:49:06Z</time>
      </trkpt>
      <trkpt lat="43.31773" lon="5.77478">
        <ele>727</ele>
        <time>2019-10-16T09:49:16Z</time>
      </trkpt>
      <trkpt lat="43.31779" lon="5.77481">
        <ele>728</ele>
        <time>2019-10-16T09:49:24Z</time>
      </trkpt>
      <trkpt lat="43.31783" lon="5.77483">
        <ele>729</ele>
        <time>2019-10-16T09:49:30Z</time>
      </trkpt>
      <trkpt lat="43.31788" lon="5.77487">
        <ele>732</ele>
        <time>2019-10-16T09:49:38Z</time>
      </trkpt>
      <trkpt lat="43.31792" lon="5.77494">
        <ele>732</ele>
        <time>2019-10-16T09:49:50Z</time>
      </trkpt>
      <trkpt lat="43.31797" lon="5.77495">
        <ele>733</ele>
        <time>2019-10-16T09:49:58Z</time>
      </trkpt>
      <trkpt lat="43.31802" lon="5.77498">
        <ele>733</ele>
        <time>2019-10-16T09:50:04Z</time>
      </trkpt>
      <trkpt lat="43.31806" lon="5.77499">
        <ele>733</ele>
        <time>2019-10-16T09:50:12Z</time>
      </trkpt>
      <trkpt lat="43.31812" lon="5.77501">
        <ele>735</ele>
        <time>2019-10-16T09:50:20Z</time>
      </trkpt>
      <trkpt lat="43.31817" lon="5.77504">
        <ele>738</ele>
        <time>2019-10-16T09:50:26Z</time>
      </trkpt>
      <trkpt lat="43.31821" lon="5.77507">
        <ele>739</ele>
        <time>2019-10-16T09:50:32Z</time>
      </trkpt>
      <trkpt lat="43.31826" lon="5.77509">
        <ele>741</ele>
        <time>2019-10-16T09:50:40Z</time>
      </trkpt>
      <trkpt lat="43.31831" lon="5.77509">
        <ele>742</ele>
        <time>2019-10-16T09:50:46Z</time>
      </trkpt>
      <trkpt lat="43.31836" lon="5.7751">
        <ele>744</ele>
        <time>2019-10-16T09:50:54Z</time>
      </trkpt>
      <trkpt lat="43.31841" lon="5.77513">
        <ele>745</ele>
        <time>2019-10-16T09:51:00Z</time>
      </trkpt>
      <trkpt lat="43.31846" lon="5.77515">
        <ele>745</ele>
        <time>2019-10-16T09:51:06Z</time>
      </trkpt>
      <trkpt lat="43.31851" lon="5.77516">
        <ele>745</ele>
        <time>2019-10-16T09:51:12Z</time>
      </trkpt>
      <trkpt lat="43.31856" lon="5.77517">
        <ele>746</ele>
        <time>2019-10-16T09:51:20Z</time>
      </trkpt>
      <trkpt lat="43.31862" lon="5.77518">
        <ele>747</ele>
        <time>2019-10-16T09:51:30Z</time>
      </trkpt>
      <trkpt lat="43.31866" lon="5.77515">
        <ele>748</ele>
        <time>2019-10-16T09:51:38Z</time>
      </trkpt>
      <trkpt lat="43.31871" lon="5.77516">
        <ele>749</ele>
        <time>2019-10-16T09:51:46Z</time>
      </trkpt>
      <trkpt lat="43.31876" lon="5.77517">
        <ele>753</ele>
        <time>2019-10-16T09:51:54Z</time>
      </trkpt>
      <trkpt lat="43.31881" lon="5.77515">
        <ele>752</ele>
        <time>2019-10-16T09:52:02Z</time>
      </trkpt>
      <trkpt lat="43.31886" lon="5.77513">
        <ele>753</ele>
        <time>2019-10-16T09:52:10Z</time>
      </trkpt>
      <trkpt lat="43.31891" lon="5.77512">
        <ele>754</ele>
        <time>2019-10-16T09:52:16Z</time>
      </trkpt>
      <trkpt lat="43.31896" lon="5.77513">
        <ele>754</ele>
        <time>2019-10-16T09:52:24Z</time>
      </trkpt>
      <trkpt lat="43.31901" lon="5.77513">
        <ele>756</ele>
        <time>2019-10-16T09:52:32Z</time>
      </trkpt>
      <trkpt lat="43.31906" lon="5.77514">
        <ele>760</ele>
        <time>2019-10-16T09:52:42Z</time>
      </trkpt>
      <trkpt lat="43.31911" lon="5.77512">
        <ele>760</ele>
        <time>2019-10-16T09:52:50Z</time>
      </trkpt>
      <trkpt lat="43.31916" lon="5.77512">
        <ele>761</ele>
        <time>2019-10-16T09:52:58Z</time>
      </trkpt>
      <trkpt lat="43.31921" lon="5.7751">
        <ele>762</ele>
        <time>2019-10-16T09:53:06Z</time>
      </trkpt>
      <trkpt lat="43.31927" lon="5.7751">
        <ele>763</ele>
        <time>2019-10-16T09:53:14Z</time>
      </trkpt>
      <trkpt lat="43.31932" lon="5.77511">
        <ele>764</ele>
        <time>2019-10-16T09:53:22Z</time>
      </trkpt>
      <trkpt lat="43.31937" lon="5.7751">
        <ele>765</ele>
        <time>2019-10-16T09:53:30Z</time>
      </trkpt>
      <trkpt lat="43.31942" lon="5.77508">
        <ele>767</ele>
        <time>2019-10-16T09:53:36Z</time>
      </trkpt>
      <trkpt lat="43.31946" lon="5.77508">
        <ele>767</ele>
        <time>2019-10-16T09:53:44Z</time>
      </trkpt>
      <trkpt lat="43.31951" lon="5.77505">
        <ele>768</ele>
        <time>2019-10-16T09:53:52Z</time>
      </trkpt>
      <trkpt lat="43.31954" lon="5.775">
        <ele>768</ele>
        <time>2019-10-16T09:53:58Z</time>
      </trkpt>
      <trkpt lat="43.31953" lon="5.77493">
        <ele>770</ele>
        <time>2019-10-16T09:54:10Z</time>
      </trkpt>
      <trkpt lat="43.31952" lon="5.77487">
        <ele>771</ele>
        <time>2019-10-16T09:54:16Z</time>
      </trkpt>
      <trkpt lat="43.3195" lon="5.77481">
        <ele>768</ele>
        <time>2019-10-16T09:54:22Z</time>
      </trkpt>
      <trkpt lat="43.31948" lon="5.77474">
        <ele>767</ele>
        <time>2019-10-16T09:54:30Z</time>
      </trkpt>
      <trkpt lat="43.31948" lon="5.77467">
        <ele>766</ele>
        <time>2019-10-16T09:54:38Z</time>
      </trkpt>
      <trkpt lat="43.31945" lon="5.7746">
        <ele>766</ele>
        <time>2019-10-16T09:54:46Z</time>
      </trkpt>
      <trkpt lat="43.31947" lon="5.77454">
        <ele>771</ele>
        <time>2019-10-16T09:55:00Z</time>
      </trkpt>
      <trkpt lat="43.31949" lon="5.77448">
        <ele>773</ele>
        <time>2019-10-16T09:55:10Z</time>
      </trkpt>
      <trkpt lat="43.31951" lon="5.77442">
        <ele>774</ele>
        <time>2019-10-16T09:55:18Z</time>
      </trkpt>
      <trkpt lat="43.31955" lon="5.77436">
        <ele>780</ele>
        <time>2019-10-16T09:55:36Z</time>
      </trkpt>
      <trkpt lat="43.31959" lon="5.7743">
        <ele>779</ele>
        <time>2019-10-16T09:55:44Z</time>
      </trkpt>
      <trkpt lat="43.31962" lon="5.77425">
        <ele>783</ele>
        <time>2019-10-16T09:55:56Z</time>
      </trkpt>
      <trkpt lat="43.31965" lon="5.7742">
        <ele>784</ele>
        <time>2019-10-16T09:56:02Z</time>
      </trkpt>
      <trkpt lat="43.31971" lon="5.77419">
        <ele>787</ele>
        <time>2019-10-16T09:56:10Z</time>
      </trkpt>
      <trkpt lat="43.31976" lon="5.77416">
        <ele>787</ele>
        <time>2019-10-16T09:56:20Z</time>
      </trkpt>
      <trkpt lat="43.31981" lon="5.77414">
        <ele>786</ele>
        <time>2019-10-16T09:56:28Z</time>
      </trkpt>
      <trkpt lat="43.31985" lon="5.7741">
        <ele>785</ele>
        <time>2019-10-16T09:56:36Z</time>
      </trkpt>
      <trkpt lat="43.31988" lon="5.77404">
        <ele>785</ele>
        <time>2019-10-16T09:56:46Z</time>
      </trkpt>
      <trkpt lat="43.31994" lon="5.77401">
        <ele>789</ele>
        <time>2019-10-16T09:56:54Z</time>
      </trkpt>
      <trkpt lat="43.31998" lon="5.77398">
        <ele>790</ele>
        <time>2019-10-16T09:57:02Z</time>
      </trkpt>
      <trkpt lat="43.32003" lon="5.77394">
        <ele>792</ele>
        <time>2019-10-16T09:57:14Z</time>
      </trkpt>
      <trkpt lat="43.32008" lon="5.7739">
        <ele>792</ele>
        <time>2019-10-16T09:57:26Z</time>
      </trkpt>
      <trkpt lat="43.32011" lon="5.77385">
        <ele>794</ele>
        <time>2019-10-16T09:57:38Z</time>
      </trkpt>
      <trkpt lat="43.32014" lon="5.7738">
        <ele>795</ele>
        <time>2019-10-16T10:01:38Z</time>
      </trkpt>
      <trkpt lat="43.32012" lon="5.77385">
        <ele>798</ele>
        <time>2019-10-16T10:02:54Z</time>
      </trkpt>
      <trkpt lat="43.32015" lon="5.7738">
        <ele>797</ele>
        <time>2019-10-16T10:07:26Z</time>
      </trkpt>
      <trkpt lat="43.32018" lon="5.77374">
        <ele>798</ele>
        <time>2019-10-16T10:07:34Z</time>
      </trkpt>
      <trkpt lat="43.3202" lon="5.77367">
        <ele>798</ele>
        <time>2019-10-16T10:07:42Z</time>
      </trkpt>
      <trkpt lat="43.32025" lon="5.77364">
        <ele>800</ele>
        <time>2019-10-16T10:07:48Z</time>
      </trkpt>
      <trkpt lat="43.32028" lon="5.7736">
        <ele>802</ele>
        <time>2019-10-16T10:07:56Z</time>
      </trkpt>
      <trkpt lat="43.32031" lon="5.77353">
        <ele>802</ele>
        <time>2019-10-16T10:08:06Z</time>
      </trkpt>
      <trkpt lat="43.32034" lon="5.77347">
        <ele>802</ele>
        <time>2019-10-16T10:08:16Z</time>
      </trkpt>
      <trkpt lat="43.32037" lon="5.77343">
        <ele>806</ele>
        <time>2019-10-16T10:08:28Z</time>
      </trkpt>
      <trkpt lat="43.32042" lon="5.77342">
        <ele>809</ele>
        <time>2019-10-16T10:08:38Z</time>
      </trkpt>
      <trkpt lat="43.32047" lon="5.77338">
        <ele>805</ele>
        <time>2019-10-16T10:08:46Z</time>
      </trkpt>
      <trkpt lat="43.32051" lon="5.77336">
        <ele>804</ele>
        <time>2019-10-16T10:08:58Z</time>
      </trkpt>
      <trkpt lat="43.32056" lon="5.77333">
        <ele>805</ele>
        <time>2019-10-16T10:09:06Z</time>
      </trkpt>
      <trkpt lat="43.3206" lon="5.77332">
        <ele>807</ele>
        <time>2019-10-16T10:09:14Z</time>
      </trkpt>
      <trkpt lat="43.32066" lon="5.77332">
        <ele>809</ele>
        <time>2019-10-16T10:09:22Z</time>
      </trkpt>
      <trkpt lat="43.32071" lon="5.77332">
        <ele>810</ele>
        <time>2019-10-16T10:09:28Z</time>
      </trkpt>
      <trkpt lat="43.32077" lon="5.77328">
        <ele>811</ele>
        <time>2019-10-16T10:09:36Z</time>
      </trkpt>
      <trkpt lat="43.32081" lon="5.77326">
        <ele>812</ele>
        <time>2019-10-16T10:09:44Z</time>
      </trkpt>
      <trkpt lat="43.32087" lon="5.77324">
        <ele>815</ele>
        <time>2019-10-16T10:09:52Z</time>
      </trkpt>
      <trkpt lat="43.32092" lon="5.77322">
        <ele>817</ele>
        <time>2019-10-16T10:10:02Z</time>
      </trkpt>
      <trkpt lat="43.32098" lon="5.77322">
        <ele>818</ele>
        <time>2019-10-16T10:10:12Z</time>
      </trkpt>
      <trkpt lat="43.32103" lon="5.77318">
        <ele>821</ele>
        <time>2019-10-16T10:10:24Z</time>
      </trkpt>
      <trkpt lat="43.32108" lon="5.77315">
        <ele>822</ele>
        <time>2019-10-16T10:10:34Z</time>
      </trkpt>
      <trkpt lat="43.32112" lon="5.77314">
        <ele>823</ele>
        <time>2019-10-16T10:10:42Z</time>
      </trkpt>
      <trkpt lat="43.32115" lon="5.77307">
        <ele>823</ele>
        <time>2019-10-16T10:10:56Z</time>
      </trkpt>
      <trkpt lat="43.3212" lon="5.77304">
        <ele>825</ele>
        <time>2019-10-16T10:11:06Z</time>
      </trkpt>
      <trkpt lat="43.32125" lon="5.77304">
        <ele>827</ele>
        <time>2019-10-16T10:11:16Z</time>
      </trkpt>
      <trkpt lat="43.32131" lon="5.77303">
        <ele>830</ele>
        <time>2019-10-16T10:11:26Z</time>
      </trkpt>
      <trkpt lat="43.32135" lon="5.77303">
        <ele>829</ele>
        <time>2019-10-16T10:11:34Z</time>
      </trkpt>
      <trkpt lat="43.3214" lon="5.77302">
        <ele>830</ele>
        <time>2019-10-16T10:11:42Z</time>
      </trkpt>
      <trkpt lat="43.32145" lon="5.77302">
        <ele>832</ele>
        <time>2019-10-16T10:11:52Z</time>
      </trkpt>
      <trkpt lat="43.3215" lon="5.77304">
        <ele>833</ele>
        <time>2019-10-16T10:12:00Z</time>
      </trkpt>
      <trkpt lat="43.32154" lon="5.77301">
        <ele>833</ele>
        <time>2019-10-16T10:12:08Z</time>
      </trkpt>
      <trkpt lat="43.32159" lon="5.77302">
        <ele>835</ele>
        <time>2019-10-16T10:12:18Z</time>
      </trkpt>
      <trkpt lat="43.32164" lon="5.77304">
        <ele>835</ele>
        <time>2019-10-16T10:12:28Z</time>
      </trkpt>
      <trkpt lat="43.32169" lon="5.77303">
        <ele>835</ele>
        <time>2019-10-16T10:12:40Z</time>
      </trkpt>
      <trkpt lat="43.32174" lon="5.77305">
        <ele>838</ele>
        <time>2019-10-16T10:12:50Z</time>
      </trkpt>
      <trkpt lat="43.32179" lon="5.77304">
        <ele>839</ele>
        <time>2019-10-16T10:13:02Z</time>
      </trkpt>
      <trkpt lat="43.32183" lon="5.77306">
        <ele>839</ele>
        <time>2019-10-16T10:13:12Z</time>
      </trkpt>
      <trkpt lat="43.32188" lon="5.77306">
        <ele>841</ele>
        <time>2019-10-16T10:13:20Z</time>
      </trkpt>
      <trkpt lat="43.32193" lon="5.77309">
        <ele>843</ele>
        <time>2019-10-16T10:13:28Z</time>
      </trkpt>
      <trkpt lat="43.32197" lon="5.7731">
        <ele>845</ele>
        <time>2019-10-16T10:13:38Z</time>
      </trkpt>
      <trkpt lat="43.32203" lon="5.77312">
        <ele>845</ele>
        <time>2019-10-16T10:13:46Z</time>
      </trkpt>
      <trkpt lat="43.32208" lon="5.77315">
        <ele>847</ele>
        <time>2019-10-16T10:13:54Z</time>
      </trkpt>
      <trkpt lat="43.32212" lon="5.77319">
        <ele>851</ele>
        <time>2019-10-16T10:14:04Z</time>
      </trkpt>
      <trkpt lat="43.32216" lon="5.77324">
        <ele>851</ele>
        <time>2019-10-16T10:14:12Z</time>
      </trkpt>
      <trkpt lat="43.3222" lon="5.77326">
        <ele>852</ele>
        <time>2019-10-16T10:14:20Z</time>
      </trkpt>
      <trkpt lat="43.32224" lon="5.77328">
        <ele>853</ele>
        <time>2019-10-16T10:14:26Z</time>
      </trkpt>
      <trkpt lat="43.32228" lon="5.77322">
        <ele>853</ele>
        <time>2019-10-16T10:14:36Z</time>
      </trkpt>
      <trkpt lat="43.32229" lon="5.77315">
        <ele>853</ele>
        <time>2019-10-16T10:14:48Z</time>
      </trkpt>
      <trkpt lat="43.32233" lon="5.7731">
        <ele>854</ele>
        <time>2019-10-16T10:15:00Z</time>
      </trkpt>
      <trkpt lat="43.32238" lon="5.77311">
        <ele>856</ele>
        <time>2019-10-16T10:15:12Z</time>
      </trkpt>
      <trkpt lat="43.32242" lon="5.77308">
        <ele>859</ele>
        <time>2019-10-16T10:15:24Z</time>
      </trkpt>
      <trkpt lat="43.32247" lon="5.7731">
        <ele>860</ele>
        <time>2019-10-16T10:15:34Z</time>
      </trkpt>
      <trkpt lat="43.32252" lon="5.77312">
        <ele>863</ele>
        <time>2019-10-16T10:15:44Z</time>
      </trkpt>
      <trkpt lat="43.32256" lon="5.77312">
        <ele>865</ele>
        <time>2019-10-16T10:15:54Z</time>
      </trkpt>
      <trkpt lat="43.32261" lon="5.77314">
        <ele>867</ele>
        <time>2019-10-16T10:16:06Z</time>
      </trkpt>
      <trkpt lat="43.32265" lon="5.77314">
        <ele>870</ele>
        <time>2019-10-16T10:16:16Z</time>
      </trkpt>
      <trkpt lat="43.3227" lon="5.77312">
        <ele>872</ele>
        <time>2019-10-16T10:16:28Z</time>
      </trkpt>
      <trkpt lat="43.32274" lon="5.77316">
        <ele>873</ele>
        <time>2019-10-16T10:16:38Z</time>
      </trkpt>
      <trkpt lat="43.32279" lon="5.77317">
        <ele>874</ele>
        <time>2019-10-16T10:16:44Z</time>
      </trkpt>
      <trkpt lat="43.32284" lon="5.77319">
        <ele>873</ele>
        <time>2019-10-16T10:16:52Z</time>
      </trkpt>
      <trkpt lat="43.32288" lon="5.77321">
        <ele>874</ele>
        <time>2019-10-16T10:17:00Z</time>
      </trkpt>
      <trkpt lat="43.32293" lon="5.77321">
        <ele>873</ele>
        <time>2019-10-16T10:17:08Z</time>
      </trkpt>
      <trkpt lat="43.32298" lon="5.77321">
        <ele>875</ele>
        <time>2019-10-16T10:17:20Z</time>
      </trkpt>
      <trkpt lat="43.32304" lon="5.7732">
        <ele>876</ele>
        <time>2019-10-16T10:17:32Z</time>
      </trkpt>
      <trkpt lat="43.32309" lon="5.77323">
        <ele>879</ele>
        <time>2019-10-16T10:17:42Z</time>
      </trkpt>
      <trkpt lat="43.32313" lon="5.77325">
        <ele>881</ele>
        <time>2019-10-16T10:17:50Z</time>
      </trkpt>
      <trkpt lat="43.32318" lon="5.77323">
        <ele>881</ele>
        <time>2019-10-16T10:17:56Z</time>
      </trkpt>
      <trkpt lat="43.32322" lon="5.77319">
        <ele>881</ele>
        <time>2019-10-16T10:18:04Z</time>
      </trkpt>
      <trkpt lat="43.32327" lon="5.77317">
        <ele>884</ele>
        <time>2019-10-16T10:18:14Z</time>
      </trkpt>
      <trkpt lat="43.32331" lon="5.77319">
        <ele>885</ele>
        <time>2019-10-16T10:18:22Z</time>
      </trkpt>
      <trkpt lat="43.32336" lon="5.77317">
        <ele>886</ele>
        <time>2019-10-16T10:18:34Z</time>
      </trkpt>
      <trkpt lat="43.32341" lon="5.77317">
        <ele>889</ele>
        <time>2019-10-16T10:18:48Z</time>
      </trkpt>
      <trkpt lat="43.32345" lon="5.77318">
        <ele>890</ele>
        <time>2019-10-16T10:18:56Z</time>
      </trkpt>
      <trkpt lat="43.32351" lon="5.77317">
        <ele>891</ele>
        <time>2019-10-16T10:19:04Z</time>
      </trkpt>
      <trkpt lat="43.32356" lon="5.77317">
        <ele>894</ele>
        <time>2019-10-16T10:19:10Z</time>
      </trkpt>
      <trkpt lat="43.3236" lon="5.77315">
        <ele>894</ele>
        <time>2019-10-16T10:19:18Z</time>
      </trkpt>
      <trkpt lat="43.32366" lon="5.77317">
        <ele>895</ele>
        <time>2019-10-16T10:19:30Z</time>
      </trkpt>
      <trkpt lat="43.32371" lon="5.77317">
        <ele>895</ele>
        <time>2019-10-16T10:19:38Z</time>
      </trkpt>
      <trkpt lat="43.32376" lon="5.77314">
        <ele>897</ele>
        <time>2019-10-16T10:20:20Z</time>
      </trkpt>
      <trkpt lat="43.32381" lon="5.77311">
        <ele>898</ele>
        <time>2019-10-16T10:20:36Z</time>
      </trkpt>
      <trkpt lat="43.32385" lon="5.77312">
        <ele>897</ele>
        <time>2019-10-16T10:23:04Z</time>
      </trkpt>
      <trkpt lat="43.32391" lon="5.7731">
        <ele>899</ele>
        <time>2019-10-16T10:23:14Z</time>
      </trkpt>
      <trkpt lat="43.32396" lon="5.7731">
        <ele>897</ele>
        <time>2019-10-16T10:23:22Z</time>
      </trkpt>
      <trkpt lat="43.32402" lon="5.77309">
        <ele>898</ele>
        <time>2019-10-16T10:23:30Z</time>
      </trkpt>
      <trkpt lat="43.32406" lon="5.77307">
        <ele>900</ele>
        <time>2019-10-16T10:23:36Z</time>
      </trkpt>
      <trkpt lat="43.32412" lon="5.77307">
        <ele>902</ele>
        <time>2019-10-16T10:23:44Z</time>
      </trkpt>
      <trkpt lat="43.32417" lon="5.77309">
        <ele>903</ele>
        <time>2019-10-16T10:23:52Z</time>
      </trkpt>
      <trkpt lat="43.32423" lon="5.77309">
        <ele>903</ele>
        <time>2019-10-16T10:24:02Z</time>
      </trkpt>
      <trkpt lat="43.32428" lon="5.77308">
        <ele>903</ele>
        <time>2019-10-16T10:24:08Z</time>
      </trkpt>
      <trkpt lat="43.32432" lon="5.77309">
        <ele>905</ele>
        <time>2019-10-16T10:24:18Z</time>
      </trkpt>
      <trkpt lat="43.32437" lon="5.77309">
        <ele>905</ele>
        <time>2019-10-16T10:24:24Z</time>
      </trkpt>
      <trkpt lat="43.32443" lon="5.77311">
        <ele>907</ele>
        <time>2019-10-16T10:24:30Z</time>
      </trkpt>
      <trkpt lat="43.32448" lon="5.77311">
        <ele>909</ele>
        <time>2019-10-16T10:24:38Z</time>
      </trkpt>
      <trkpt lat="43.32453" lon="5.77312">
        <ele>908</ele>
        <time>2019-10-16T10:24:46Z</time>
      </trkpt>
      <trkpt lat="43.32458" lon="5.7731">
        <ele>910</ele>
        <time>2019-10-16T10:24:54Z</time>
      </trkpt>
      <trkpt lat="43.32463" lon="5.77312">
        <ele>910</ele>
        <time>2019-10-16T10:25:02Z</time>
      </trkpt>
      <trkpt lat="43.32468" lon="5.77315">
        <ele>911</ele>
        <time>2019-10-16T10:25:08Z</time>
      </trkpt>
      <trkpt lat="43.32471" lon="5.77322">
        <ele>911</ele>
        <time>2019-10-16T10:25:20Z</time>
      </trkpt>
      <trkpt lat="43.32476" lon="5.77325">
        <ele>911</ele>
        <time>2019-10-16T10:25:28Z</time>
      </trkpt>
      <trkpt lat="43.3248" lon="5.77323">
        <ele>914</ele>
        <time>2019-10-16T10:25:36Z</time>
      </trkpt>
      <trkpt lat="43.32484" lon="5.77319">
        <ele>916</ele>
        <time>2019-10-16T10:25:46Z</time>
      </trkpt>
      <trkpt lat="43.32488" lon="5.7732">
        <ele>916</ele>
        <time>2019-10-16T10:25:54Z</time>
      </trkpt>
      <trkpt lat="43.32494" lon="5.7732">
        <ele>918</ele>
        <time>2019-10-16T10:26:04Z</time>
      </trkpt>
      <trkpt lat="43.32499" lon="5.77319">
        <ele>919</ele>
        <time>2019-10-16T10:26:16Z</time>
      </trkpt>
      <trkpt lat="43.32504" lon="5.77318">
        <ele>921</ele>
        <time>2019-10-16T10:26:26Z</time>
      </trkpt>
      <trkpt lat="43.32509" lon="5.77319">
        <ele>923</ele>
        <time>2019-10-16T10:26:38Z</time>
      </trkpt>
      <trkpt lat="43.32513" lon="5.77322">
        <ele>924</ele>
        <time>2019-10-16T10:26:56Z</time>
      </trkpt>
      <trkpt lat="43.32518" lon="5.77323">
        <ele>926</ele>
        <time>2019-10-16T10:27:12Z</time>
      </trkpt>
      <trkpt lat="43.32522" lon="5.77318">
        <ele>927</ele>
        <time>2019-10-16T10:27:32Z</time>
      </trkpt>
      <trkpt lat="43.32523" lon="5.77312">
        <ele>928</ele>
        <time>2019-10-16T10:27:40Z</time>
      </trkpt>
      <trkpt lat="43.32524" lon="5.77306">
        <ele>930</ele>
        <time>2019-10-16T10:27:50Z</time>
      </trkpt>
      <trkpt lat="43.32527" lon="5.77299">
        <ele>932</ele>
        <time>2019-10-16T10:28:00Z</time>
      </trkpt>
      <trkpt lat="43.3253" lon="5.77294">
        <ele>932</ele>
        <time>2019-10-16T10:28:14Z</time>
      </trkpt>
      <trkpt lat="43.32532" lon="5.77288">
        <ele>934</ele>
        <time>2019-10-16T10:28:26Z</time>
      </trkpt>
      <trkpt lat="43.32534" lon="5.77282">
        <ele>935</ele>
        <time>2019-10-16T10:28:36Z</time>
      </trkpt>
      <trkpt lat="43.32537" lon="5.77276">
        <ele>936</ele>
        <time>2019-10-16T10:28:46Z</time>
      </trkpt>
      <trkpt lat="43.32541" lon="5.77273">
        <ele>936</ele>
        <time>2019-10-16T10:28:54Z</time>
      </trkpt>
      <trkpt lat="43.32543" lon="5.77267">
        <ele>939</ele>
        <time>2019-10-16T10:29:04Z</time>
      </trkpt>
      <trkpt lat="43.32547" lon="5.77262">
        <ele>939</ele>
        <time>2019-10-16T10:29:14Z</time>
      </trkpt>
      <trkpt lat="43.32551" lon="5.77256">
        <ele>943</ele>
        <time>2019-10-16T10:29:28Z</time>
      </trkpt>
      <trkpt lat="43.32552" lon="5.7725">
        <ele>942</ele>
        <time>2019-10-16T10:29:34Z</time>
      </trkpt>
      <trkpt lat="43.32554" lon="5.77244">
        <ele>945</ele>
        <time>2019-10-16T10:29:42Z</time>
      </trkpt>
      <trkpt lat="43.32556" lon="5.77237">
        <ele>945</ele>
        <time>2019-10-16T10:29:54Z</time>
      </trkpt>
      <trkpt lat="43.32558" lon="5.77232">
        <ele>945</ele>
        <time>2019-10-16T10:30:00Z</time>
      </trkpt>
      <trkpt lat="43.3256" lon="5.77225">
        <ele>945</ele>
        <time>2019-10-16T10:30:08Z</time>
      </trkpt>
      <trkpt lat="43.3256" lon="5.77218">
        <ele>943</ele>
        <time>2019-10-16T10:30:16Z</time>
      </trkpt>
      <trkpt lat="43.32562" lon="5.7721">
        <ele>944</ele>
        <time>2019-10-16T10:30:24Z</time>
      </trkpt>
      <trkpt lat="43.32564" lon="5.77204">
        <ele>945</ele>
        <time>2019-10-16T10:30:30Z</time>
      </trkpt>
      <trkpt lat="43.32566" lon="5.77197">
        <ele>943</ele>
        <time>2019-10-16T10:30:38Z</time>
      </trkpt>
      <trkpt lat="43.32566" lon="5.7719">
        <ele>943</ele>
        <time>2019-10-16T10:30:48Z</time>
      </trkpt>
      <trkpt lat="43.32566" lon="5.77183">
        <ele>943</ele>
        <time>2019-10-16T10:30:58Z</time>
      </trkpt>
      <trkpt lat="43.32566" lon="5.77176">
        <ele>939</ele>
        <time>2019-10-16T10:31:16Z</time>
      </trkpt>
      <trkpt lat="43.32565" lon="5.7717">
        <ele>940</ele>
        <time>2019-10-16T10:31:22Z</time>
      </trkpt>
      <trkpt lat="43.32566" lon="5.77162">
        <ele>939</ele>
        <time>2019-10-16T10:31:30Z</time>
      </trkpt>
      <trkpt lat="43.32568" lon="5.77156">
        <ele>938</ele>
        <time>2019-10-16T10:31:38Z</time>
      </trkpt>
      <trkpt lat="43.32571" lon="5.77151">
        <ele>937</ele>
        <time>2019-10-16T10:31:44Z</time>
      </trkpt>
      <trkpt lat="43.32573" lon="5.77144">
        <ele>939</ele>
        <time>2019-10-16T10:31:52Z</time>
      </trkpt>
      <trkpt lat="43.32574" lon="5.77137">
        <ele>938</ele>
        <time>2019-10-16T10:31:58Z</time>
      </trkpt>
      <trkpt lat="43.32577" lon="5.77132">
        <ele>938</ele>
        <time>2019-10-16T10:32:04Z</time>
      </trkpt>
      <trkpt lat="43.3258" lon="5.77125">
        <ele>938</ele>
        <time>2019-10-16T10:32:12Z</time>
      </trkpt>
      <trkpt lat="43.32584" lon="5.77121">
        <ele>940</ele>
        <time>2019-10-16T10:32:20Z</time>
      </trkpt>
      <trkpt lat="43.32587" lon="5.77114">
        <ele>942</ele>
        <time>2019-10-16T10:34:26Z</time>
      </trkpt>
      <trkpt lat="43.32591" lon="5.77109">
        <ele>942</ele>
        <time>2019-10-16T10:34:34Z</time>
      </trkpt>
      <trkpt lat="43.32594" lon="5.77104">
        <ele>942</ele>
        <time>2019-10-16T10:35:40Z</time>
      </trkpt>
      <trkpt lat="43.32598" lon="5.771">
        <ele>945</ele>
        <time>2019-10-16T10:35:50Z</time>
      </trkpt>
      <trkpt lat="43.32602" lon="5.77095">
        <ele>944</ele>
        <time>2019-10-16T10:35:56Z</time>
      </trkpt>
      <trkpt lat="43.32604" lon="5.77088">
        <ele>944</ele>
        <time>2019-10-16T10:36:02Z</time>
      </trkpt>
      <trkpt lat="43.32607" lon="5.77083">
        <ele>946</ele>
        <time>2019-10-16T10:36:10Z</time>
      </trkpt>
      <trkpt lat="43.32611" lon="5.77077">
        <ele>948</ele>
        <time>2019-10-16T10:36:18Z</time>
      </trkpt>
      <trkpt lat="43.32612" lon="5.77071">
        <ele>948</ele>
        <time>2019-10-16T10:36:24Z</time>
      </trkpt>
      <trkpt lat="43.32617" lon="5.77067">
        <ele>952</ele>
        <time>2019-10-16T10:36:34Z</time>
      </trkpt>
      <trkpt lat="43.32617" lon="5.7706">
        <ele>952</ele>
        <time>2019-10-16T10:36:40Z</time>
      </trkpt>
      <trkpt lat="43.32616" lon="5.77053">
        <ele>952</ele>
        <time>2019-10-16T10:36:46Z</time>
      </trkpt>
      <trkpt lat="43.32617" lon="5.77046">
        <ele>952</ele>
        <time>2019-10-16T10:36:52Z</time>
      </trkpt>
      <trkpt lat="43.32617" lon="5.77038">
        <ele>954</ele>
        <time>2019-10-16T10:36:58Z</time>
      </trkpt>
      <trkpt lat="43.32618" lon="5.77031">
        <ele>953</ele>
        <time>2019-10-16T10:37:04Z</time>
      </trkpt>
      <trkpt lat="43.32619" lon="5.77023">
        <ele>957</ele>
        <time>2019-10-16T10:37:12Z</time>
      </trkpt>
      <trkpt lat="43.32621" lon="5.77017">
        <ele>957</ele>
        <time>2019-10-16T10:37:18Z</time>
      </trkpt>
      <trkpt lat="43.32622" lon="5.77009">
        <ele>955</ele>
        <time>2019-10-16T10:37:26Z</time>
      </trkpt>
      <trkpt lat="43.32624" lon="5.77002">
        <ele>952</ele>
        <time>2019-10-16T10:37:34Z</time>
      </trkpt>
      <trkpt lat="43.32625" lon="5.76995">
        <ele>956</ele>
        <time>2019-10-16T10:37:42Z</time>
      </trkpt>
      <trkpt lat="43.32624" lon="5.76988">
        <ele>956</ele>
        <time>2019-10-16T10:37:50Z</time>
      </trkpt>
      <trkpt lat="43.32624" lon="5.7698">
        <ele>958</ele>
        <time>2019-10-16T10:38:00Z</time>
      </trkpt>
      <trkpt lat="43.32623" lon="5.76973">
        <ele>958</ele>
        <time>2019-10-16T10:38:10Z</time>
      </trkpt>
      <trkpt lat="43.32624" lon="5.76966">
        <ele>960</ele>
        <time>2019-10-16T10:38:18Z</time>
      </trkpt>
      <trkpt lat="43.32629" lon="5.76963">
        <ele>963</ele>
        <time>2019-10-16T10:38:30Z</time>
      </trkpt>
      <trkpt lat="43.32633" lon="5.76965">
        <ele>965</ele>
        <time>2019-10-16T10:38:42Z</time>
      </trkpt>
      <trkpt lat="43.32639" lon="5.76964">
        <ele>966</ele>
        <time>2019-10-16T10:38:56Z</time>
      </trkpt>
      <trkpt lat="43.32643" lon="5.76962">
        <ele>968</ele>
        <time>2019-10-16T10:39:12Z</time>
      </trkpt>
      <trkpt lat="43.32648" lon="5.7696">
        <ele>970</ele>
        <time>2019-10-16T10:39:22Z</time>
      </trkpt>
      <trkpt lat="43.32652" lon="5.76962">
        <ele>970</ele>
        <time>2019-10-16T10:39:34Z</time>
      </trkpt>
      <trkpt lat="43.32657" lon="5.76964">
        <ele>971</ele>
        <time>2019-10-16T10:39:46Z</time>
      </trkpt>
      <trkpt lat="43.32662" lon="5.76964">
        <ele>974</ele>
        <time>2019-10-16T10:39:58Z</time>
      </trkpt>
      <trkpt lat="43.32667" lon="5.76962">
        <ele>975</ele>
        <time>2019-10-16T10:40:08Z</time>
      </trkpt>
      <trkpt lat="43.32672" lon="5.76964">
        <ele>977</ele>
        <time>2019-10-16T10:40:18Z</time>
      </trkpt>
      <trkpt lat="43.32677" lon="5.76967">
        <ele>978</ele>
        <time>2019-10-16T10:46:18Z</time>
      </trkpt>
      <trkpt lat="43.32681" lon="5.7697">
        <ele>978</ele>
        <time>2019-10-16T10:46:30Z</time>
      </trkpt>
      <trkpt lat="43.32685" lon="5.76969">
        <ele>979</ele>
        <time>2019-10-16T10:46:42Z</time>
      </trkpt>
      <trkpt lat="43.3269" lon="5.7697">
        <ele>981</ele>
        <time>2019-10-16T10:46:54Z</time>
      </trkpt>
      <trkpt lat="43.32694" lon="5.76966">
        <ele>984</ele>
        <time>2019-10-16T10:47:04Z</time>
      </trkpt>
      <trkpt lat="43.32699" lon="5.76962">
        <ele>986</ele>
        <time>2019-10-16T10:47:14Z</time>
      </trkpt>
      <trkpt lat="43.32704" lon="5.76962">
        <ele>987</ele>
        <time>2019-10-16T10:47:28Z</time>
      </trkpt>
      <trkpt lat="43.32709" lon="5.76964">
        <ele>989</ele>
        <time>2019-10-16T10:47:38Z</time>
      </trkpt>
      <trkpt lat="43.32713" lon="5.76964">
        <ele>991</ele>
        <time>2019-10-16T10:47:48Z</time>
      </trkpt>
      <trkpt lat="43.32718" lon="5.76966">
        <ele>993</ele>
        <time>2019-10-16T10:48:02Z</time>
      </trkpt>
      <trkpt lat="43.32723" lon="5.7697">
        <ele>994</ele>
        <time>2019-10-16T10:48:10Z</time>
      </trkpt>
      <trkpt lat="43.32727" lon="5.76971">
        <ele>996</ele>
        <time>2019-10-16T10:48:18Z</time>
      </trkpt>
      <trkpt lat="43.32732" lon="5.76974">
        <ele>997</ele>
        <time>2019-10-16T10:48:30Z</time>
      </trkpt>
      <trkpt lat="43.32736" lon="5.7698">
        <ele>997</ele>
        <time>2019-10-16T10:48:44Z</time>
      </trkpt>
      <trkpt lat="43.32738" lon="5.76986">
        <ele>997</ele>
        <time>2019-10-16T10:48:52Z</time>
      </trkpt>
      <trkpt lat="43.32741" lon="5.76992">
        <ele>999</ele>
        <time>2019-10-16T10:49:00Z</time>
      </trkpt>
      <trkpt lat="43.32745" lon="5.76995">
        <ele>1002</ele>
        <time>2019-10-16T10:49:22Z</time>
      </trkpt>
      <trkpt lat="43.3275" lon="5.76993">
        <ele>1004</ele>
        <time>2019-10-16T10:50:30Z</time>
      </trkpt>
      <trkpt lat="43.32748" lon="5.76987">
        <ele>1004</ele>
        <time>2019-10-16T10:54:06Z</time>
      </trkpt>
      <trkpt lat="43.32744" lon="5.76983">
        <ele>1004</ele>
        <time>2019-10-16T10:54:14Z</time>
      </trkpt>
      <trkpt lat="43.32747" lon="5.76978">
        <ele>1005</ele>
        <time>2019-10-16T10:54:50Z</time>
      </trkpt>
      <trkpt lat="43.32747" lon="5.7697">
        <ele>1004</ele>
        <time>2019-10-16T10:55:00Z</time>
      </trkpt>
      <trkpt lat="43.32748" lon="5.76964">
        <ele>1005</ele>
        <time>2019-10-16T10:55:10Z</time>
      </trkpt>
      <trkpt lat="43.32748" lon="5.76956">
        <ele>1006</ele>
        <time>2019-10-16T10:55:20Z</time>
      </trkpt>
      <trkpt lat="43.32747" lon="5.7695">
        <ele>1006</ele>
        <time>2019-10-16T10:55:30Z</time>
      </trkpt>
      <trkpt lat="43.32747" lon="5.76943">
        <ele>1006</ele>
        <time>2019-10-16T10:55:38Z</time>
      </trkpt>
      <trkpt lat="43.32746" lon="5.76937">
        <ele>1006</ele>
        <time>2019-10-16T10:55:48Z</time>
      </trkpt>
      <trkpt lat="43.32745" lon="5.7693">
        <ele>1003</ele>
        <time>2019-10-16T10:55:58Z</time>
      </trkpt>
      <trkpt lat="43.32747" lon="5.76924">
        <ele>1005</ele>
        <time>2019-10-16T10:56:10Z</time>
      </trkpt>
      <trkpt lat="43.32746" lon="5.76915">
        <ele>1006</ele>
        <time>2019-10-16T10:56:18Z</time>
      </trkpt>
      <trkpt lat="43.32746" lon="5.76908">
        <ele>1007</ele>
        <time>2019-10-16T10:56:26Z</time>
      </trkpt>
      <trkpt lat="43.32745" lon="5.76901">
        <ele>1007</ele>
        <time>2019-10-16T10:56:32Z</time>
      </trkpt>
      <trkpt lat="43.32746" lon="5.76895">
        <ele>1009</ele>
        <time>2019-10-16T10:56:40Z</time>
      </trkpt>
      <trkpt lat="43.32747" lon="5.76889">
        <ele>1010</ele>
        <time>2019-10-16T10:56:46Z</time>
      </trkpt>
      <trkpt lat="43.32748" lon="5.76883">
        <ele>1013</ele>
        <time>2019-10-16T10:56:56Z</time>
      </trkpt>
      <trkpt lat="43.32748" lon="5.76876">
        <ele>1015</ele>
        <time>2019-10-16T10:57:04Z</time>
      </trkpt>
      <trkpt lat="43.32747" lon="5.76869">
        <ele>1015</ele>
        <time>2019-10-16T10:57:12Z</time>
      </trkpt>
      <trkpt lat="43.32748" lon="5.76862">
        <ele>1017</ele>
        <time>2019-10-16T10:57:20Z</time>
      </trkpt>
      <trkpt lat="43.32751" lon="5.76855">
        <ele>1018</ele>
        <time>2019-10-16T10:57:30Z</time>
      </trkpt>
      <trkpt lat="43.32749" lon="5.76848">
        <ele>1018</ele>
        <time>2019-10-16T10:57:36Z</time>
      </trkpt>
      <trkpt lat="43.32745" lon="5.76844">
        <ele>1017</ele>
        <time>2019-10-16T10:57:42Z</time>
      </trkpt>
      <trkpt lat="43.32744" lon="5.76837">
        <ele>1017</ele>
        <time>2019-10-16T10:57:48Z</time>
      </trkpt>
      <trkpt lat="43.32744" lon="5.76829">
        <ele>1019</ele>
        <time>2019-10-16T10:57:56Z</time>
      </trkpt>
      <trkpt lat="43.32744" lon="5.76823">
        <ele>1019</ele>
        <time>2019-10-16T10:58:02Z</time>
      </trkpt>
      <trkpt lat="43.32743" lon="5.76816">
        <ele>1020</ele>
        <time>2019-10-16T10:58:08Z</time>
      </trkpt>
      <trkpt lat="43.32742" lon="5.7681">
        <ele>1020</ele>
        <time>2019-10-16T10:58:14Z</time>
      </trkpt>
      <trkpt lat="43.32742" lon="5.76803">
        <ele>1021</ele>
        <time>2019-10-16T10:58:22Z</time>
      </trkpt>
      <trkpt lat="43.32742" lon="5.76796">
        <ele>1022</ele>
        <time>2019-10-16T10:58:28Z</time>
      </trkpt>
      <trkpt lat="43.3274" lon="5.7679">
        <ele>1022</ele>
        <time>2019-10-16T10:58:36Z</time>
      </trkpt>
      <trkpt lat="43.3274" lon="5.76783">
        <ele>1022</ele>
        <time>2019-10-16T10:58:50Z</time>
      </trkpt>
      <trkpt lat="43.32741" lon="5.76776">
        <ele>1026</ele>
        <time>2019-10-16T10:59:00Z</time>
      </trkpt>
      <trkpt lat="43.32742" lon="5.7677">
        <ele>1028</ele>
        <time>2019-10-16T10:59:12Z</time>
      </trkpt>
      <trkpt lat="43.32742" lon="5.76762">
        <ele>1029</ele>
        <time>2019-10-16T10:59:20Z</time>
      </trkpt>
      <trkpt lat="43.32743" lon="5.76755">
        <ele>1029</ele>
        <time>2019-10-16T10:59:28Z</time>
      </trkpt>
      <trkpt lat="43.32744" lon="5.76749">
        <ele>1030</ele>
        <time>2019-10-16T10:59:38Z</time>
      </trkpt>
      <trkpt lat="43.32747" lon="5.76742">
        <ele>1033</ele>
        <time>2019-10-16T10:59:50Z</time>
      </trkpt>
      <trkpt lat="43.32747" lon="5.76734">
        <ele>1035</ele>
        <time>2019-10-16T10:59:58Z</time>
      </trkpt>
      <trkpt lat="43.32747" lon="5.76727">
        <ele>1036</ele>
        <time>2019-10-16T11:00:08Z</time>
      </trkpt>
      <trkpt lat="43.32749" lon="5.76721">
        <ele>1038</ele>
        <time>2019-10-16T11:00:16Z</time>
      </trkpt>
      <trkpt lat="43.32749" lon="5.76714">
        <ele>1038</ele>
        <time>2019-10-16T11:00:24Z</time>
      </trkpt>
      <trkpt lat="43.32748" lon="5.76707">
        <ele>1039</ele>
        <time>2019-10-16T11:00:34Z</time>
      </trkpt>
      <trkpt lat="43.32746" lon="5.767">
        <ele>1039</ele>
        <time>2019-10-16T11:00:42Z</time>
      </trkpt>
      <trkpt lat="43.32745" lon="5.76694">
        <ele>1038</ele>
        <time>2019-10-16T11:00:48Z</time>
      </trkpt>
      <trkpt lat="43.32747" lon="5.76687">
        <ele>1041</ele>
        <time>2019-10-16T11:00:58Z</time>
      </trkpt>
      <trkpt lat="43.32748" lon="5.7668">
        <ele>1043</ele>
        <time>2019-10-16T11:01:04Z</time>
      </trkpt>
      <trkpt lat="43.32748" lon="5.76674">
        <ele>1044</ele>
        <time>2019-10-16T11:01:12Z</time>
      </trkpt>
      <trkpt lat="43.32749" lon="5.76667">
        <ele>1045</ele>
        <time>2019-10-16T11:01:22Z</time>
      </trkpt>
      <trkpt lat="43.32749" lon="5.7666">
        <ele>1046</ele>
        <time>2019-10-16T11:01:30Z</time>
      </trkpt>
      <trkpt lat="43.3275" lon="5.76653">
        <ele>1046</ele>
        <time>2019-10-16T11:01:40Z</time>
      </trkpt>
      <trkpt lat="43.32748" lon="5.76647">
        <ele>1046</ele>
        <time>2019-10-16T11:01:52Z</time>
      </trkpt>
      <trkpt lat="43.3275" lon="5.7664">
        <ele>1048</ele>
        <time>2019-10-16T11:02:00Z</time>
      </trkpt>
      <trkpt lat="43.3275" lon="5.76633">
        <ele>1048</ele>
        <time>2019-10-16T11:02:10Z</time>
      </trkpt>
      <trkpt lat="43.32748" lon="5.76627">
        <ele>1050</ele>
        <time>2019-10-16T11:02:18Z</time>
      </trkpt>
      <trkpt lat="43.32746" lon="5.7662">
        <ele>1050</ele>
        <time>2019-10-16T11:02:26Z</time>
      </trkpt>
      <trkpt lat="43.32744" lon="5.76612">
        <ele>1050</ele>
        <time>2019-10-16T11:02:34Z</time>
      </trkpt>
      <trkpt lat="43.32741" lon="5.76607">
        <ele>1049</ele>
        <time>2019-10-16T11:02:40Z</time>
      </trkpt>
      <trkpt lat="43.32739" lon="5.76601">
        <ele>1047</ele>
        <time>2019-10-16T11:02:48Z</time>
      </trkpt>
      <trkpt lat="43.32737" lon="5.76594">
        <ele>1046</ele>
        <time>2019-10-16T11:02:56Z</time>
      </trkpt>
      <trkpt lat="43.32736" lon="5.76586">
        <ele>1046</ele>
        <time>2019-10-16T11:03:02Z</time>
      </trkpt>
      <trkpt lat="43.32734" lon="5.7658">
        <ele>1046</ele>
        <time>2019-10-16T11:03:08Z</time>
      </trkpt>
      <trkpt lat="43.32733" lon="5.76572">
        <ele>1046</ele>
        <time>2019-10-16T11:03:14Z</time>
      </trkpt>
      <trkpt lat="43.32733" lon="5.76565">
        <ele>1046</ele>
        <time>2019-10-16T11:03:22Z</time>
      </trkpt>
      <trkpt lat="43.32736" lon="5.76559">
        <ele>1046</ele>
        <time>2019-10-16T11:03:30Z</time>
      </trkpt>
      <trkpt lat="43.32736" lon="5.76553">
        <ele>1046</ele>
        <time>2019-10-16T11:03:36Z</time>
      </trkpt>
      <trkpt lat="43.32731" lon="5.76547">
        <ele>1047</ele>
        <time>2019-10-16T11:03:42Z</time>
      </trkpt>
      <trkpt lat="43.32728" lon="5.76542">
        <ele>1047</ele>
        <time>2019-10-16T11:03:46Z</time>
      </trkpt>
      <trkpt lat="43.32727" lon="5.76533">
        <ele>1047</ele>
        <time>2019-10-16T11:03:52Z</time>
      </trkpt>
      <trkpt lat="43.32725" lon="5.76524">
        <ele>1047</ele>
        <time>2019-10-16T11:03:58Z</time>
      </trkpt>
      <trkpt lat="43.32724" lon="5.76518">
        <ele>1047</ele>
        <time>2019-10-16T11:04:04Z</time>
      </trkpt>
      <trkpt lat="43.32721" lon="5.76512">
        <ele>1042</ele>
        <time>2019-10-16T11:06:16Z</time>
      </trkpt>
      <trkpt lat="43.3272" lon="5.76506">
        <ele>1043</ele>
        <time>2019-10-16T11:06:22Z</time>
      </trkpt>
      <trkpt lat="43.32724" lon="5.76502">
        <ele>1043</ele>
        <time>2019-10-16T11:06:30Z</time>
      </trkpt>
      <trkpt lat="43.3272" lon="5.76495">
        <ele>1044</ele>
        <time>2019-10-16T11:06:42Z</time>
      </trkpt>
      <trkpt lat="43.32714" lon="5.76496">
        <ele>1041</ele>
        <time>2019-10-16T11:06:48Z</time>
      </trkpt>
      <trkpt lat="43.32709" lon="5.76499">
        <ele>1041</ele>
        <time>2019-10-16T11:06:54Z</time>
      </trkpt>
      <trkpt lat="43.327" lon="5.76497">
        <ele>1045</ele>
        <time>2019-10-16T11:07:32Z</time>
      </trkpt>
      <trkpt lat="43.32707" lon="5.76501">
        <ele>1038</ele>
        <time>2019-10-16T11:07:40Z</time>
      </trkpt>
      <trkpt lat="43.32704" lon="5.76497">
        <ele>1042</ele>
        <time>2019-10-16T11:08:12Z</time>
      </trkpt>
      <trkpt lat="43.32699" lon="5.76497">
        <ele>1040</ele>
        <time>2019-10-16T11:08:20Z</time>
      </trkpt>
      <trkpt lat="43.32694" lon="5.76494">
        <ele>1040</ele>
        <time>2019-10-16T11:08:28Z</time>
      </trkpt>
      <trkpt lat="43.3269" lon="5.76496">
        <ele>1039</ele>
        <time>2019-10-16T11:08:36Z</time>
      </trkpt>
      <trkpt lat="43.32686" lon="5.765">
        <ele>1036</ele>
        <time>2019-10-16T11:08:52Z</time>
      </trkpt>
      <trkpt lat="43.32684" lon="5.76494">
        <ele>1038</ele>
        <time>2019-10-16T11:16:58Z</time>
      </trkpt>
      <trkpt lat="43.32681" lon="5.76489">
        <ele>1037</ele>
        <time>2019-10-16T11:17:06Z</time>
      </trkpt>
      <trkpt lat="43.32679" lon="5.76483">
        <ele>1036</ele>
        <time>2019-10-16T11:17:14Z</time>
      </trkpt>
      <trkpt lat="43.32676" lon="5.76478">
        <ele>1036</ele>
        <time>2019-10-16T11:17:26Z</time>
      </trkpt>
      <trkpt lat="43.32671" lon="5.76475">
        <ele>1035</ele>
        <time>2019-10-16T11:17:36Z</time>
      </trkpt>
      <trkpt lat="43.32667" lon="5.76472">
        <ele>1033</ele>
        <time>2019-10-16T11:17:46Z</time>
      </trkpt>
      <trkpt lat="43.32663" lon="5.76466">
        <ele>1033</ele>
        <time>2019-10-16T11:17:54Z</time>
      </trkpt>
      <trkpt lat="43.32661" lon="5.7646">
        <ele>1033</ele>
        <time>2019-10-16T11:18:00Z</time>
      </trkpt>
      <trkpt lat="43.32659" lon="5.76455">
        <ele>1033</ele>
        <time>2019-10-16T11:18:06Z</time>
      </trkpt>
      <trkpt lat="43.32656" lon="5.76447">
        <ele>1033</ele>
        <time>2019-10-16T11:18:14Z</time>
      </trkpt>
      <trkpt lat="43.32654" lon="5.76442">
        <ele>1033</ele>
        <time>2019-10-16T11:18:20Z</time>
      </trkpt>
      <trkpt lat="43.32652" lon="5.76435">
        <ele>1032</ele>
        <time>2019-10-16T11:18:26Z</time>
      </trkpt>
      <trkpt lat="43.32648" lon="5.76429">
        <ele>1033</ele>
        <time>2019-10-16T11:18:34Z</time>
      </trkpt>
      <trkpt lat="43.32646" lon="5.76422">
        <ele>1032</ele>
        <time>2019-10-16T11:18:42Z</time>
      </trkpt>
      <trkpt lat="43.32644" lon="5.76416">
        <ele>1031</ele>
        <time>2019-10-16T11:18:48Z</time>
      </trkpt>
      <trkpt lat="43.32641" lon="5.76409">
        <ele>1030</ele>
        <time>2019-10-16T11:18:56Z</time>
      </trkpt>
      <trkpt lat="43.32639" lon="5.76402">
        <ele>1031</ele>
        <time>2019-10-16T11:19:04Z</time>
      </trkpt>
      <trkpt lat="43.32637" lon="5.76395">
        <ele>1031</ele>
        <time>2019-10-16T11:19:10Z</time>
      </trkpt>
      <trkpt lat="43.32634" lon="5.76389">
        <ele>1031</ele>
        <time>2019-10-16T11:19:16Z</time>
      </trkpt>
      <trkpt lat="43.32633" lon="5.76382">
        <ele>1032</ele>
        <time>2019-10-16T11:19:22Z</time>
      </trkpt>
      <trkpt lat="43.32632" lon="5.76375">
        <ele>1031</ele>
        <time>2019-10-16T11:19:28Z</time>
      </trkpt>
      <trkpt lat="43.32629" lon="5.76368">
        <ele>1031</ele>
        <time>2019-10-16T11:19:36Z</time>
      </trkpt>
      <trkpt lat="43.32626" lon="5.76362">
        <ele>1029</ele>
        <time>2019-10-16T11:19:44Z</time>
      </trkpt>
      <trkpt lat="43.32621" lon="5.76357">
        <ele>1027</ele>
        <time>2019-10-16T11:19:52Z</time>
      </trkpt>
      <trkpt lat="43.32618" lon="5.76353">
        <ele>1025</ele>
        <time>2019-10-16T11:19:58Z</time>
      </trkpt>
      <trkpt lat="43.32616" lon="5.76347">
        <ele>1023</ele>
        <time>2019-10-16T11:20:04Z</time>
      </trkpt>
      <trkpt lat="43.32613" lon="5.7634">
        <ele>1022</ele>
        <time>2019-10-16T11:20:14Z</time>
      </trkpt>
      <trkpt lat="43.3261" lon="5.76334">
        <ele>1020</ele>
        <time>2019-10-16T11:20:24Z</time>
      </trkpt>
      <trkpt lat="43.32608" lon="5.76328">
        <ele>1019</ele>
        <time>2019-10-16T11:20:38Z</time>
      </trkpt>
      <trkpt lat="43.32607" lon="5.76319">
        <ele>1018</ele>
        <time>2019-10-16T11:20:44Z</time>
      </trkpt>
      <trkpt lat="43.32604" lon="5.76311">
        <ele>1017</ele>
        <time>2019-10-16T11:20:50Z</time>
      </trkpt>
      <trkpt lat="43.32603" lon="5.76304">
        <ele>1016</ele>
        <time>2019-10-16T11:20:58Z</time>
      </trkpt>
      <trkpt lat="43.32603" lon="5.76297">
        <ele>1016</ele>
        <time>2019-10-16T11:21:04Z</time>
      </trkpt>
      <trkpt lat="43.32601" lon="5.7629">
        <ele>1013</ele>
        <time>2019-10-16T11:21:12Z</time>
      </trkpt>
      <trkpt lat="43.32602" lon="5.76283">
        <ele>1012</ele>
        <time>2019-10-16T11:21:18Z</time>
      </trkpt>
      <trkpt lat="43.32603" lon="5.76276">
        <ele>1011</ele>
        <time>2019-10-16T11:21:26Z</time>
      </trkpt>
      <trkpt lat="43.32601" lon="5.76268">
        <ele>1011</ele>
        <time>2019-10-16T11:21:34Z</time>
      </trkpt>
      <trkpt lat="43.32599" lon="5.76262">
        <ele>1010</ele>
        <time>2019-10-16T11:21:42Z</time>
      </trkpt>
      <trkpt lat="43.32599" lon="5.76255">
        <ele>1010</ele>
        <time>2019-10-16T11:21:50Z</time>
      </trkpt>
      <trkpt lat="43.32597" lon="5.76249">
        <ele>1007</ele>
        <time>2019-10-16T11:21:58Z</time>
      </trkpt>
      <trkpt lat="43.32595" lon="5.76243">
        <ele>1004</ele>
        <time>2019-10-16T11:22:04Z</time>
      </trkpt>
      <trkpt lat="43.32594" lon="5.76236">
        <ele>1003</ele>
        <time>2019-10-16T11:22:16Z</time>
      </trkpt>
      <trkpt lat="43.32594" lon="5.76228">
        <ele>1004</ele>
        <time>2019-10-16T11:22:24Z</time>
      </trkpt>
      <trkpt lat="43.32594" lon="5.76221">
        <ele>1003</ele>
        <time>2019-10-16T11:22:30Z</time>
      </trkpt>
      <trkpt lat="43.32596" lon="5.76214">
        <ele>1004</ele>
        <time>2019-10-16T11:22:38Z</time>
      </trkpt>
      <trkpt lat="43.32599" lon="5.76209">
        <ele>1003</ele>
        <time>2019-10-16T11:22:44Z</time>
      </trkpt>
      <trkpt lat="43.32597" lon="5.76202">
        <ele>1002</ele>
        <time>2019-10-16T11:22:50Z</time>
      </trkpt>
      <trkpt lat="43.32598" lon="5.76195">
        <ele>1001</ele>
        <time>2019-10-16T11:22:56Z</time>
      </trkpt>
      <trkpt lat="43.32598" lon="5.76188">
        <ele>1000</ele>
        <time>2019-10-16T11:23:02Z</time>
      </trkpt>
      <trkpt lat="43.32596" lon="5.76182">
        <ele>1000</ele>
        <time>2019-10-16T11:23:10Z</time>
      </trkpt>
      <trkpt lat="43.32591" lon="5.76179">
        <ele>999</ele>
        <time>2019-10-16T11:23:16Z</time>
      </trkpt>
      <trkpt lat="43.32587" lon="5.76177">
        <ele>997</ele>
        <time>2019-10-16T11:23:24Z</time>
      </trkpt>
      <trkpt lat="43.32584" lon="5.76171">
        <ele>997</ele>
        <time>2019-10-16T11:23:30Z</time>
      </trkpt>
      <trkpt lat="43.32581" lon="5.76164">
        <ele>996</ele>
        <time>2019-10-16T11:23:36Z</time>
      </trkpt>
      <trkpt lat="43.32578" lon="5.76158">
        <ele>997</ele>
        <time>2019-10-16T11:23:42Z</time>
      </trkpt>
      <trkpt lat="43.32574" lon="5.76152">
        <ele>995</ele>
        <time>2019-10-16T11:23:48Z</time>
      </trkpt>
      <trkpt lat="43.3257" lon="5.76145">
        <ele>994</ele>
        <time>2019-10-16T11:23:54Z</time>
      </trkpt>
      <trkpt lat="43.32568" lon="5.76139">
        <ele>994</ele>
        <time>2019-10-16T11:24:00Z</time>
      </trkpt>
      <trkpt lat="43.32567" lon="5.76131">
        <ele>993</ele>
        <time>2019-10-16T11:24:08Z</time>
      </trkpt>
      <trkpt lat="43.32565" lon="5.76123">
        <ele>992</ele>
        <time>2019-10-16T11:24:14Z</time>
      </trkpt>
      <trkpt lat="43.32562" lon="5.76116">
        <ele>993</ele>
        <time>2019-10-16T11:24:22Z</time>
      </trkpt>
      <trkpt lat="43.32562" lon="5.76109">
        <ele>993</ele>
        <time>2019-10-16T11:24:28Z</time>
      </trkpt>
      <trkpt lat="43.32561" lon="5.76101">
        <ele>993</ele>
        <time>2019-10-16T11:24:36Z</time>
      </trkpt>
      <trkpt lat="43.32559" lon="5.76095">
        <ele>993</ele>
        <time>2019-10-16T11:24:42Z</time>
      </trkpt>
      <trkpt lat="43.32558" lon="5.76089">
        <ele>993</ele>
        <time>2019-10-16T11:24:48Z</time>
      </trkpt>
      <trkpt lat="43.32557" lon="5.76083">
        <ele>993</ele>
        <time>2019-10-16T11:24:56Z</time>
      </trkpt>
      <trkpt lat="43.32556" lon="5.76077">
        <ele>992</ele>
        <time>2019-10-16T11:25:02Z</time>
      </trkpt>
      <trkpt lat="43.32555" lon="5.7607">
        <ele>992</ele>
        <time>2019-10-16T11:25:08Z</time>
      </trkpt>
      <trkpt lat="43.32554" lon="5.76064">
        <ele>992</ele>
        <time>2019-10-16T11:25:16Z</time>
      </trkpt>
      <trkpt lat="43.32553" lon="5.76057">
        <ele>991</ele>
        <time>2019-10-16T11:25:24Z</time>
      </trkpt>
      <trkpt lat="43.32552" lon="5.7605">
        <ele>990</ele>
        <time>2019-10-16T11:25:32Z</time>
      </trkpt>
      <trkpt lat="43.32552" lon="5.76044">
        <ele>991</ele>
        <time>2019-10-16T11:25:40Z</time>
      </trkpt>
      <trkpt lat="43.32556" lon="5.76039">
        <ele>992</ele>
        <time>2019-10-16T11:25:48Z</time>
      </trkpt>
      <trkpt lat="43.32558" lon="5.76032">
        <ele>991</ele>
        <time>2019-10-16T11:25:56Z</time>
      </trkpt>
      <trkpt lat="43.32558" lon="5.76025">
        <ele>991</ele>
        <time>2019-10-16T11:26:04Z</time>
      </trkpt>
      <trkpt lat="43.32556" lon="5.76018">
        <ele>992</ele>
        <time>2019-10-16T11:26:12Z</time>
      </trkpt>
      <trkpt lat="43.32554" lon="5.76012">
        <ele>993</ele>
        <time>2019-10-16T11:26:18Z</time>
      </trkpt>
      <trkpt lat="43.32552" lon="5.76006">
        <ele>993</ele>
        <time>2019-10-16T11:26:26Z</time>
      </trkpt>
      <trkpt lat="43.32549" lon="5.76">
        <ele>993</ele>
        <time>2019-10-16T11:26:34Z</time>
      </trkpt>
      <trkpt lat="43.32547" lon="5.75992">
        <ele>993</ele>
        <time>2019-10-16T11:26:46Z</time>
      </trkpt>
      <trkpt lat="43.32545" lon="5.75986">
        <ele>993</ele>
        <time>2019-10-16T11:26:56Z</time>
      </trkpt>
      <trkpt lat="43.32546" lon="5.75978">
        <ele>994</ele>
        <time>2019-10-16T11:27:06Z</time>
      </trkpt>
      <trkpt lat="43.32547" lon="5.75971">
        <ele>993</ele>
        <time>2019-10-16T11:27:12Z</time>
      </trkpt>
      <trkpt lat="43.32546" lon="5.75965">
        <ele>995</ele>
        <time>2019-10-16T11:27:18Z</time>
      </trkpt>
      <trkpt lat="43.32546" lon="5.75958">
        <ele>994</ele>
        <time>2019-10-16T11:27:26Z</time>
      </trkpt>
      <trkpt lat="43.32545" lon="5.7595">
        <ele>994</ele>
        <time>2019-10-16T11:27:36Z</time>
      </trkpt>
      <trkpt lat="43.32543" lon="5.75943">
        <ele>994</ele>
        <time>2019-10-16T11:27:44Z</time>
      </trkpt>
      <trkpt lat="43.32542" lon="5.75936">
        <ele>996</ele>
        <time>2019-10-16T11:27:52Z</time>
      </trkpt>
      <trkpt lat="43.32538" lon="5.75932">
        <ele>995</ele>
        <time>2019-10-16T11:27:58Z</time>
      </trkpt>
      <trkpt lat="43.32536" lon="5.75927">
        <ele>997</ele>
        <time>2019-10-16T11:28:04Z</time>
      </trkpt>
      <trkpt lat="43.32537" lon="5.7592">
        <ele>997</ele>
        <time>2019-10-16T11:28:12Z</time>
      </trkpt>
      <trkpt lat="43.32537" lon="5.75912">
        <ele>997</ele>
        <time>2019-10-16T11:28:22Z</time>
      </trkpt>
      <trkpt lat="43.32539" lon="5.75904">
        <ele>999</ele>
        <time>2019-10-16T11:28:32Z</time>
      </trkpt>
      <trkpt lat="43.32538" lon="5.75898">
        <ele>998</ele>
        <time>2019-10-16T11:28:40Z</time>
      </trkpt>
      <trkpt lat="43.32538" lon="5.75891">
        <ele>999</ele>
        <time>2019-10-16T11:28:48Z</time>
      </trkpt>
      <trkpt lat="43.32538" lon="5.75885">
        <ele>999</ele>
        <time>2019-10-16T11:28:56Z</time>
      </trkpt>
      <trkpt lat="43.32536" lon="5.75878">
        <ele>1000</ele>
        <time>2019-10-16T11:29:06Z</time>
      </trkpt>
      <trkpt lat="43.32533" lon="5.75874">
        <ele>1000</ele>
        <time>2019-10-16T11:29:18Z</time>
      </trkpt>
      <trkpt lat="43.3253" lon="5.75868">
        <ele>998</ele>
        <time>2019-10-16T11:29:28Z</time>
      </trkpt>
      <trkpt lat="43.32528" lon="5.75862">
        <ele>998</ele>
        <time>2019-10-16T11:29:42Z</time>
      </trkpt>
      <trkpt lat="43.32527" lon="5.75856">
        <ele>998</ele>
        <time>2019-10-16T11:29:48Z</time>
      </trkpt>
      <trkpt lat="43.32528" lon="5.75849">
        <ele>997</ele>
        <time>2019-10-16T11:29:54Z</time>
      </trkpt>
      <trkpt lat="43.32528" lon="5.75843">
        <ele>997</ele>
        <time>2019-10-16T11:30:00Z</time>
      </trkpt>
      <trkpt lat="43.32523" lon="5.75838">
        <ele>995</ele>
        <time>2019-10-16T11:30:06Z</time>
      </trkpt>
      <trkpt lat="43.32522" lon="5.75831">
        <ele>996</ele>
        <time>2019-10-16T11:30:14Z</time>
      </trkpt>
      <trkpt lat="43.32525" lon="5.75824">
        <ele>997</ele>
        <time>2019-10-16T11:30:22Z</time>
      </trkpt>
      <trkpt lat="43.32526" lon="5.75817">
        <ele>997</ele>
        <time>2019-10-16T11:30:28Z</time>
      </trkpt>
      <trkpt lat="43.32523" lon="5.75811">
        <ele>996</ele>
        <time>2019-10-16T11:30:34Z</time>
      </trkpt>
      <trkpt lat="43.3252" lon="5.75805">
        <ele>997</ele>
        <time>2019-10-16T11:30:42Z</time>
      </trkpt>
      <trkpt lat="43.32517" lon="5.758">
        <ele>996</ele>
        <time>2019-10-16T11:30:50Z</time>
      </trkpt>
      <trkpt lat="43.32513" lon="5.75796">
        <ele>996</ele>
        <time>2019-10-16T11:31:00Z</time>
      </trkpt>
      <trkpt lat="43.32511" lon="5.75788">
        <ele>995</ele>
        <time>2019-10-16T11:31:08Z</time>
      </trkpt>
      <trkpt lat="43.32512" lon="5.75782">
        <ele>996</ele>
        <time>2019-10-16T11:31:16Z</time>
      </trkpt>
      <trkpt lat="43.32511" lon="5.75775">
        <ele>995</ele>
        <time>2019-10-16T11:31:24Z</time>
      </trkpt>
      <trkpt lat="43.32511" lon="5.75768">
        <ele>995</ele>
        <time>2019-10-16T11:31:32Z</time>
      </trkpt>
      <trkpt lat="43.32512" lon="5.75761">
        <ele>995</ele>
        <time>2019-10-16T11:31:40Z</time>
      </trkpt>
      <trkpt lat="43.32511" lon="5.75755">
        <ele>996</ele>
        <time>2019-10-16T11:31:48Z</time>
      </trkpt>
      <trkpt lat="43.32508" lon="5.75748">
        <ele>996</ele>
        <time>2019-10-16T11:31:56Z</time>
      </trkpt>
      <trkpt lat="43.32507" lon="5.7574">
        <ele>996</ele>
        <time>2019-10-16T11:32:04Z</time>
      </trkpt>
      <trkpt lat="43.32506" lon="5.75734">
        <ele>995</ele>
        <time>2019-10-16T11:32:10Z</time>
      </trkpt>
      <trkpt lat="43.32505" lon="5.75727">
        <ele>996</ele>
        <time>2019-10-16T11:32:18Z</time>
      </trkpt>
      <trkpt lat="43.32504" lon="5.7572">
        <ele>997</ele>
        <time>2019-10-16T11:32:24Z</time>
      </trkpt>
      <trkpt lat="43.32502" lon="5.75713">
        <ele>997</ele>
        <time>2019-10-16T11:32:32Z</time>
      </trkpt>
      <trkpt lat="43.32498" lon="5.75707">
        <ele>997</ele>
        <time>2019-10-16T11:32:40Z</time>
      </trkpt>
      <trkpt lat="43.32497" lon="5.757">
        <ele>997</ele>
        <time>2019-10-16T11:32:48Z</time>
      </trkpt>
      <trkpt lat="43.32497" lon="5.75693">
        <ele>996</ele>
        <time>2019-10-16T11:32:54Z</time>
      </trkpt>
      <trkpt lat="43.32496" lon="5.75685">
        <ele>996</ele>
        <time>2019-10-16T11:33:02Z</time>
      </trkpt>
      <trkpt lat="43.32493" lon="5.75678">
        <ele>996</ele>
        <time>2019-10-16T11:33:08Z</time>
      </trkpt>
      <trkpt lat="43.32491" lon="5.75671">
        <ele>997</ele>
        <time>2019-10-16T11:33:14Z</time>
      </trkpt>
      <trkpt lat="43.32491" lon="5.75665">
        <ele>997</ele>
        <time>2019-10-16T11:33:20Z</time>
      </trkpt>
      <trkpt lat="43.3249" lon="5.75658">
        <ele>999</ele>
        <time>2019-10-16T11:33:28Z</time>
      </trkpt>
      <trkpt lat="43.32487" lon="5.75653">
        <ele>999</ele>
        <time>2019-10-16T11:33:34Z</time>
      </trkpt>
      <trkpt lat="43.32484" lon="5.75647">
        <ele>999</ele>
        <time>2019-10-16T11:33:40Z</time>
      </trkpt>
      <trkpt lat="43.32481" lon="5.75642">
        <ele>999</ele>
        <time>2019-10-16T11:33:48Z</time>
      </trkpt>
      <trkpt lat="43.32483" lon="5.75635">
        <ele>999</ele>
        <time>2019-10-16T11:34:00Z</time>
      </trkpt>
      <trkpt lat="43.32484" lon="5.75628">
        <ele>999</ele>
        <time>2019-10-16T11:34:08Z</time>
      </trkpt>
      <trkpt lat="43.32484" lon="5.7562">
        <ele>999</ele>
        <time>2019-10-16T11:34:16Z</time>
      </trkpt>
      <trkpt lat="43.32484" lon="5.75614">
        <ele>1000</ele>
        <time>2019-10-16T11:34:22Z</time>
      </trkpt>
      <trkpt lat="43.32484" lon="5.75606">
        <ele>1000</ele>
        <time>2019-10-16T11:34:28Z</time>
      </trkpt>
      <trkpt lat="43.32483" lon="5.756">
        <ele>1000</ele>
        <time>2019-10-16T11:34:36Z</time>
      </trkpt>
      <trkpt lat="43.32478" lon="5.75595">
        <ele>998</ele>
        <time>2019-10-16T11:34:44Z</time>
      </trkpt>
      <trkpt lat="43.32478" lon="5.75588">
        <ele>998</ele>
        <time>2019-10-16T11:34:50Z</time>
      </trkpt>
      <trkpt lat="43.32478" lon="5.75579">
        <ele>997</ele>
        <time>2019-10-16T11:34:58Z</time>
      </trkpt>
      <trkpt lat="43.32477" lon="5.75573">
        <ele>999</ele>
        <time>2019-10-16T11:35:04Z</time>
      </trkpt>
      <trkpt lat="43.32473" lon="5.75568">
        <ele>999</ele>
        <time>2019-10-16T11:35:10Z</time>
      </trkpt>
      <trkpt lat="43.32469" lon="5.75563">
        <ele>1000</ele>
        <time>2019-10-16T11:35:18Z</time>
      </trkpt>
      <trkpt lat="43.32469" lon="5.75556">
        <ele>1001</ele>
        <time>2019-10-16T11:35:26Z</time>
      </trkpt>
      <trkpt lat="43.32466" lon="5.75551">
        <ele>1002</ele>
        <time>2019-10-16T11:35:34Z</time>
      </trkpt>
      <trkpt lat="43.32461" lon="5.75549">
        <ele>1001</ele>
        <time>2019-10-16T11:35:42Z</time>
      </trkpt>
      <trkpt lat="43.32457" lon="5.75541">
        <ele>1000</ele>
        <time>2019-10-16T11:35:52Z</time>
      </trkpt>
      <trkpt lat="43.32456" lon="5.75534">
        <ele>1000</ele>
        <time>2019-10-16T11:35:58Z</time>
      </trkpt>
      <trkpt lat="43.32453" lon="5.75528">
        <ele>999</ele>
        <time>2019-10-16T11:36:06Z</time>
      </trkpt>
      <trkpt lat="43.32451" lon="5.75522">
        <ele>999</ele>
        <time>2019-10-16T11:36:14Z</time>
      </trkpt>
      <trkpt lat="43.32446" lon="5.7552">
        <ele>998</ele>
        <time>2019-10-16T11:36:24Z</time>
      </trkpt>
      <trkpt lat="43.32445" lon="5.75514">
        <ele>999</ele>
        <time>2019-10-16T11:36:40Z</time>
      </trkpt>
      <trkpt lat="43.32442" lon="5.75509">
        <ele>998</ele>
        <time>2019-10-16T11:36:50Z</time>
      </trkpt>
      <trkpt lat="43.32439" lon="5.75504">
        <ele>999</ele>
        <time>2019-10-16T11:37:04Z</time>
      </trkpt>
      <trkpt lat="43.32434" lon="5.75502">
        <ele>995</ele>
        <time>2019-10-16T11:39:02Z</time>
      </trkpt>
      <trkpt lat="43.32431" lon="5.75494">
        <ele>996</ele>
        <time>2019-10-16T11:39:12Z</time>
      </trkpt>
      <trkpt lat="43.3243" lon="5.75486">
        <ele>996</ele>
        <time>2019-10-16T11:39:20Z</time>
      </trkpt>
      <trkpt lat="43.3243" lon="5.75479">
        <ele>997</ele>
        <time>2019-10-16T11:39:28Z</time>
      </trkpt>
      <trkpt lat="43.32432" lon="5.75471">
        <ele>998</ele>
        <time>2019-10-16T11:39:36Z</time>
      </trkpt>
      <trkpt lat="43.32434" lon="5.75466">
        <ele>1000</ele>
        <time>2019-10-16T11:39:42Z</time>
      </trkpt>
      <trkpt lat="43.32435" lon="5.7546">
        <ele>1002</ele>
        <time>2019-10-16T11:39:52Z</time>
      </trkpt>
      <trkpt lat="43.32435" lon="5.75453">
        <ele>1002</ele>
        <time>2019-10-16T11:40:00Z</time>
      </trkpt>
      <trkpt lat="43.32431" lon="5.75447">
        <ele>1002</ele>
        <time>2019-10-16T11:40:08Z</time>
      </trkpt>
      <trkpt lat="43.3243" lon="5.7544">
        <ele>1003</ele>
        <time>2019-10-16T11:40:16Z</time>
      </trkpt>
      <trkpt lat="43.3243" lon="5.75433">
        <ele>1005</ele>
        <time>2019-10-16T11:40:24Z</time>
      </trkpt>
      <trkpt lat="43.32429" lon="5.75426">
        <ele>1004</ele>
        <time>2019-10-16T11:41:00Z</time>
      </trkpt>
      <trkpt lat="43.32423" lon="5.75427">
        <ele>1004</ele>
        <time>2019-10-16T11:41:20Z</time>
      </trkpt>
      <trkpt lat="43.32419" lon="5.75423">
        <ele>1004</ele>
        <time>2019-10-16T11:41:38Z</time>
      </trkpt>
      <trkpt lat="43.32413" lon="5.75423">
        <ele>1002</ele>
        <time>2019-10-16T11:42:28Z</time>
      </trkpt>
      <trkpt lat="43.32409" lon="5.75427">
        <ele>1000</ele>
        <time>2019-10-16T11:42:46Z</time>
      </trkpt>
      <trkpt lat="43.32407" lon="5.75434">
        <ele>1000</ele>
        <time>2019-10-16T11:42:56Z</time>
      </trkpt>
      <trkpt lat="43.32407" lon="5.75441">
        <ele>1000</ele>
        <time>2019-10-16T11:43:04Z</time>
      </trkpt>
      <trkpt lat="43.32404" lon="5.75447">
        <ele>1001</ele>
        <time>2019-10-16T11:43:18Z</time>
      </trkpt>
      <trkpt lat="43.32403" lon="5.75453">
        <ele>998</ele>
        <time>2019-10-16T12:51:50Z</time>
      </trkpt>
      <trkpt lat="43.32406" lon="5.75448">
        <ele>998</ele>
        <time>2019-10-16T13:03:02Z</time>
      </trkpt>
      <trkpt lat="43.32408" lon="5.75441">
        <ele>998</ele>
        <time>2019-10-16T13:03:14Z</time>
      </trkpt>
      <trkpt lat="43.3241" lon="5.75434">
        <ele>999</ele>
        <time>2019-10-16T13:03:20Z</time>
      </trkpt>
      <trkpt lat="43.32412" lon="5.75427">
        <ele>1000</ele>
        <time>2019-10-16T13:03:30Z</time>
      </trkpt>
      <trkpt lat="43.32412" lon="5.75421">
        <ele>1001</ele>
        <time>2019-10-16T13:03:40Z</time>
      </trkpt>
      <trkpt lat="43.32412" lon="5.75415">
        <ele>1002</ele>
        <time>2019-10-16T13:03:52Z</time>
      </trkpt>
      <trkpt lat="43.32413" lon="5.75408">
        <ele>1002</ele>
        <time>2019-10-16T13:04:04Z</time>
      </trkpt>
      <trkpt lat="43.32416" lon="5.75403">
        <ele>1003</ele>
        <time>2019-10-16T13:04:12Z</time>
      </trkpt>
      <trkpt lat="43.3242" lon="5.75398">
        <ele>1002</ele>
        <time>2019-10-16T13:04:22Z</time>
      </trkpt>
      <trkpt lat="43.32426" lon="5.75397">
        <ele>1000</ele>
        <time>2019-10-16T13:04:30Z</time>
      </trkpt>
      <trkpt lat="43.32423" lon="5.75391">
        <ele>999</ele>
        <time>2019-10-16T13:05:16Z</time>
      </trkpt>
      <trkpt lat="43.32421" lon="5.75384">
        <ele>1000</ele>
        <time>2019-10-16T13:05:24Z</time>
      </trkpt>
      <trkpt lat="43.32419" lon="5.75378">
        <ele>1001</ele>
        <time>2019-10-16T13:05:30Z</time>
      </trkpt>
      <trkpt lat="43.32418" lon="5.7537">
        <ele>1002</ele>
        <time>2019-10-16T13:05:38Z</time>
      </trkpt>
      <trkpt lat="43.32418" lon="5.75363">
        <ele>1004</ele>
        <time>2019-10-16T13:05:46Z</time>
      </trkpt>
      <trkpt lat="43.32419" lon="5.75356">
        <ele>1004</ele>
        <time>2019-10-16T13:05:52Z</time>
      </trkpt>
      <trkpt lat="43.32417" lon="5.7535">
        <ele>1006</ele>
        <time>2019-10-16T13:06:02Z</time>
      </trkpt>
      <trkpt lat="43.32417" lon="5.75344">
        <ele>1007</ele>
        <time>2019-10-16T13:06:10Z</time>
      </trkpt>
      <trkpt lat="43.32415" lon="5.75337">
        <ele>1006</ele>
        <time>2019-10-16T13:06:26Z</time>
      </trkpt>
      <trkpt lat="43.32413" lon="5.7533">
        <ele>1004</ele>
        <time>2019-10-16T13:06:36Z</time>
      </trkpt>
      <trkpt lat="43.32408" lon="5.75324">
        <ele>1002</ele>
        <time>2019-10-16T13:06:44Z</time>
      </trkpt>
      <trkpt lat="43.32408" lon="5.75317">
        <ele>1002</ele>
        <time>2019-10-16T13:06:50Z</time>
      </trkpt>
      <trkpt lat="43.32407" lon="5.7531">
        <ele>1003</ele>
        <time>2019-10-16T13:06:56Z</time>
      </trkpt>
      <trkpt lat="43.32405" lon="5.75303">
        <ele>1003</ele>
        <time>2019-10-16T13:07:02Z</time>
      </trkpt>
      <trkpt lat="43.32403" lon="5.75296">
        <ele>1003</ele>
        <time>2019-10-16T13:07:10Z</time>
      </trkpt>
      <trkpt lat="43.32401" lon="5.7529">
        <ele>1002</ele>
        <time>2019-10-16T13:07:16Z</time>
      </trkpt>
      <trkpt lat="43.32397" lon="5.75284">
        <ele>1003</ele>
        <time>2019-10-16T13:07:24Z</time>
      </trkpt>
      <trkpt lat="43.32394" lon="5.75277">
        <ele>1002</ele>
        <time>2019-10-16T13:07:36Z</time>
      </trkpt>
      <trkpt lat="43.32393" lon="5.75271">
        <ele>1001</ele>
        <time>2019-10-16T13:07:44Z</time>
      </trkpt>
      <trkpt lat="43.32393" lon="5.75263">
        <ele>1001</ele>
        <time>2019-10-16T13:07:52Z</time>
      </trkpt>
      <trkpt lat="43.32394" lon="5.75256">
        <ele>1000</ele>
        <time>2019-10-16T13:08:02Z</time>
      </trkpt>
      <trkpt lat="43.32396" lon="5.7525">
        <ele>1000</ele>
        <time>2019-10-16T13:08:08Z</time>
      </trkpt>
      <trkpt lat="43.32395" lon="5.75243">
        <ele>1001</ele>
        <time>2019-10-16T13:08:16Z</time>
      </trkpt>
      <trkpt lat="43.32394" lon="5.75237">
        <ele>1002</ele>
        <time>2019-10-16T13:08:24Z</time>
      </trkpt>
      <trkpt lat="43.32391" lon="5.7523">
        <ele>1002</ele>
        <time>2019-10-16T13:08:32Z</time>
      </trkpt>
      <trkpt lat="43.32391" lon="5.75222">
        <ele>1001</ele>
        <time>2019-10-16T13:08:40Z</time>
      </trkpt>
      <trkpt lat="43.32391" lon="5.75215">
        <ele>1001</ele>
        <time>2019-10-16T13:08:46Z</time>
      </trkpt>
      <trkpt lat="43.32391" lon="5.75208">
        <ele>1000</ele>
        <time>2019-10-16T13:08:52Z</time>
      </trkpt>
      <trkpt lat="43.32389" lon="5.75202">
        <ele>1000</ele>
        <time>2019-10-16T13:08:58Z</time>
      </trkpt>
      <trkpt lat="43.32389" lon="5.75195">
        <ele>1000</ele>
        <time>2019-10-16T13:09:04Z</time>
      </trkpt>
      <trkpt lat="43.32388" lon="5.75187">
        <ele>1000</ele>
        <time>2019-10-16T13:09:10Z</time>
      </trkpt>
      <trkpt lat="43.32386" lon="5.75181">
        <ele>1000</ele>
        <time>2019-10-16T13:09:16Z</time>
      </trkpt>
      <trkpt lat="43.32383" lon="5.75174">
        <ele>999</ele>
        <time>2019-10-16T13:09:22Z</time>
      </trkpt>
      <trkpt lat="43.32382" lon="5.75168">
        <ele>1000</ele>
        <time>2019-10-16T13:09:28Z</time>
      </trkpt>
      <trkpt lat="43.32379" lon="5.75162">
        <ele>1000</ele>
        <time>2019-10-16T13:09:34Z</time>
      </trkpt>
      <trkpt lat="43.32378" lon="5.75153">
        <ele>1000</ele>
        <time>2019-10-16T13:09:42Z</time>
      </trkpt>
      <trkpt lat="43.3238" lon="5.75145">
        <ele>1000</ele>
        <time>2019-10-16T13:09:50Z</time>
      </trkpt>
      <trkpt lat="43.3238" lon="5.75139">
        <ele>1002</ele>
        <time>2019-10-16T13:09:56Z</time>
      </trkpt>
      <trkpt lat="43.32378" lon="5.75132">
        <ele>1001</ele>
        <time>2019-10-16T13:10:02Z</time>
      </trkpt>
      <trkpt lat="43.32377" lon="5.75124">
        <ele>1002</ele>
        <time>2019-10-16T13:10:10Z</time>
      </trkpt>
      <trkpt lat="43.32377" lon="5.75118">
        <ele>1002</ele>
        <time>2019-10-16T13:10:16Z</time>
      </trkpt>
      <trkpt lat="43.32375" lon="5.75111">
        <ele>1003</ele>
        <time>2019-10-16T13:10:26Z</time>
      </trkpt>
      <trkpt lat="43.32373" lon="5.75104">
        <ele>1004</ele>
        <time>2019-10-16T13:10:36Z</time>
      </trkpt>
      <trkpt lat="43.32373" lon="5.75097">
        <ele>1006</ele>
        <time>2019-10-16T13:10:46Z</time>
      </trkpt>
      <trkpt lat="43.32372" lon="5.7509">
        <ele>1006</ele>
        <time>2019-10-16T13:10:58Z</time>
      </trkpt>
      <trkpt lat="43.32372" lon="5.75083">
        <ele>1008</ele>
        <time>2019-10-16T13:11:10Z</time>
      </trkpt>
      <trkpt lat="43.32369" lon="5.75076">
        <ele>1011</ele>
        <time>2019-10-16T13:11:26Z</time>
      </trkpt>
      <trkpt lat="43.32367" lon="5.7507">
        <ele>1011</ele>
        <time>2019-10-16T13:11:32Z</time>
      </trkpt>
      <trkpt lat="43.32367" lon="5.75063">
        <ele>1013</ele>
        <time>2019-10-16T13:11:40Z</time>
      </trkpt>
      <trkpt lat="43.32366" lon="5.75057">
        <ele>1014</ele>
        <time>2019-10-16T13:11:48Z</time>
      </trkpt>
      <trkpt lat="43.32365" lon="5.75051">
        <ele>1017</ele>
        <time>2019-10-16T13:12:04Z</time>
      </trkpt>
      <trkpt lat="43.32363" lon="5.75045">
        <ele>1016</ele>
        <time>2019-10-16T13:12:16Z</time>
      </trkpt>
      <trkpt lat="43.32361" lon="5.75039">
        <ele>1016</ele>
        <time>2019-10-16T13:12:24Z</time>
      </trkpt>
      <trkpt lat="43.32359" lon="5.75034">
        <ele>1017</ele>
        <time>2019-10-16T13:12:30Z</time>
      </trkpt>
      <trkpt lat="43.32358" lon="5.75028">
        <ele>1017</ele>
        <time>2019-10-16T13:12:52Z</time>
      </trkpt>
      <trkpt lat="43.32357" lon="5.75021">
        <ele>1018</ele>
        <time>2019-10-16T13:13:00Z</time>
      </trkpt>
      <trkpt lat="43.32358" lon="5.75014">
        <ele>1018</ele>
        <time>2019-10-16T13:13:14Z</time>
      </trkpt>
      <trkpt lat="43.32359" lon="5.75008">
        <ele>1018</ele>
        <time>2019-10-16T13:13:22Z</time>
      </trkpt>
      <trkpt lat="43.32358" lon="5.75001">
        <ele>1019</ele>
        <time>2019-10-16T13:13:30Z</time>
      </trkpt>
      <trkpt lat="43.32358" lon="5.74994">
        <ele>1019</ele>
        <time>2019-10-16T13:13:40Z</time>
      </trkpt>
      <trkpt lat="43.32358" lon="5.74988">
        <ele>1020</ele>
        <time>2019-10-16T13:13:56Z</time>
      </trkpt>
      <trkpt lat="43.32358" lon="5.74981">
        <ele>1020</ele>
        <time>2019-10-16T13:14:08Z</time>
      </trkpt>
      <trkpt lat="43.32355" lon="5.74975">
        <ele>1018</ele>
        <time>2019-10-16T13:14:20Z</time>
      </trkpt>
      <trkpt lat="43.32358" lon="5.7497">
        <ele>1020</ele>
        <time>2019-10-16T13:15:56Z</time>
      </trkpt>
      <trkpt lat="43.32359" lon="5.74963">
        <ele>1021</ele>
        <time>2019-10-16T13:16:40Z</time>
      </trkpt>
      <trkpt lat="43.32357" lon="5.74957">
        <ele>1021</ele>
        <time>2019-10-16T13:17:04Z</time>
      </trkpt>
      <trkpt lat="43.32356" lon="5.7495">
        <ele>1022</ele>
        <time>2019-10-16T13:17:10Z</time>
      </trkpt>
      <trkpt lat="43.32351" lon="5.74947">
        <ele>1021</ele>
        <time>2019-10-16T13:17:28Z</time>
      </trkpt>
      <trkpt lat="43.3235" lon="5.7494">
        <ele>1019</ele>
        <time>2019-10-16T13:17:40Z</time>
      </trkpt>
      <trkpt lat="43.32348" lon="5.74934">
        <ele>1019</ele>
        <time>2019-10-16T13:17:52Z</time>
      </trkpt>
      <trkpt lat="43.32347" lon="5.74928">
        <ele>1020</ele>
        <time>2019-10-16T13:18:04Z</time>
      </trkpt>
      <trkpt lat="43.32347" lon="5.74921">
        <ele>1020</ele>
        <time>2019-10-16T13:18:16Z</time>
      </trkpt>
      <trkpt lat="43.32347" lon="5.74914">
        <ele>1019</ele>
        <time>2019-10-16T13:18:24Z</time>
      </trkpt>
      <trkpt lat="43.32347" lon="5.74907">
        <ele>1019</ele>
        <time>2019-10-16T13:18:34Z</time>
      </trkpt>
      <trkpt lat="43.32345" lon="5.74902">
        <ele>1018</ele>
        <time>2019-10-16T13:18:56Z</time>
      </trkpt>
      <trkpt lat="43.32343" lon="5.74895">
        <ele>1016</ele>
        <time>2019-10-16T13:19:04Z</time>
      </trkpt>
      <trkpt lat="43.32347" lon="5.7489">
        <ele>1018</ele>
        <time>2019-10-16T13:19:16Z</time>
      </trkpt>
      <trkpt lat="43.32346" lon="5.74884">
        <ele>1018</ele>
        <time>2019-10-16T13:19:26Z</time>
      </trkpt>
      <trkpt lat="43.32348" lon="5.74877">
        <ele>1019</ele>
        <time>2019-10-16T13:19:50Z</time>
      </trkpt>
      <trkpt lat="43.32345" lon="5.74872">
        <ele>1018</ele>
        <time>2019-10-16T13:20:06Z</time>
      </trkpt>
      <trkpt lat="43.32343" lon="5.74865">
        <ele>1017</ele>
        <time>2019-10-16T13:20:20Z</time>
      </trkpt>
      <trkpt lat="43.32342" lon="5.74858">
        <ele>1018</ele>
        <time>2019-10-16T13:20:32Z</time>
      </trkpt>
      <trkpt lat="43.32339" lon="5.74853">
        <ele>1016</ele>
        <time>2019-10-16T13:20:42Z</time>
      </trkpt>
      <trkpt lat="43.32333" lon="5.74853">
        <ele>1014</ele>
        <time>2019-10-16T13:20:50Z</time>
      </trkpt>
      <trkpt lat="43.32331" lon="5.74847">
        <ele>1014</ele>
        <time>2019-10-16T13:20:58Z</time>
      </trkpt>
      <trkpt lat="43.32329" lon="5.7484">
        <ele>1012</ele>
        <time>2019-10-16T13:22:08Z</time>
      </trkpt>
      <trkpt lat="43.32327" lon="5.74835">
        <ele>1011</ele>
        <time>2019-10-16T13:22:22Z</time>
      </trkpt>
      <trkpt lat="43.32326" lon="5.74827">
        <ele>1012</ele>
        <time>2019-10-16T13:23:18Z</time>
      </trkpt>
      <trkpt lat="43.32325" lon="5.74821">
        <ele>1013</ele>
        <time>2019-10-16T13:23:28Z</time>
      </trkpt>
      <trkpt lat="43.32322" lon="5.74816">
        <ele>1013</ele>
        <time>2019-10-16T13:23:38Z</time>
      </trkpt>
      <trkpt lat="43.32319" lon="5.74811">
        <ele>1013</ele>
        <time>2019-10-16T13:23:48Z</time>
      </trkpt>
      <trkpt lat="43.32316" lon="5.74805">
        <ele>1012</ele>
        <time>2019-10-16T13:23:56Z</time>
      </trkpt>
      <trkpt lat="43.32314" lon="5.74797">
        <ele>1012</ele>
        <time>2019-10-16T13:24:04Z</time>
      </trkpt>
      <trkpt lat="43.32313" lon="5.74791">
        <ele>1012</ele>
        <time>2019-10-16T13:24:10Z</time>
      </trkpt>
      <trkpt lat="43.3231" lon="5.74786">
        <ele>1011</ele>
        <time>2019-10-16T13:24:18Z</time>
      </trkpt>
      <trkpt lat="43.32307" lon="5.74781">
        <ele>1010</ele>
        <time>2019-10-16T13:24:28Z</time>
      </trkpt>
      <trkpt lat="43.32302" lon="5.74776">
        <ele>1009</ele>
        <time>2019-10-16T13:24:36Z</time>
      </trkpt>
      <trkpt lat="43.32299" lon="5.7477">
        <ele>1010</ele>
        <time>2019-10-16T13:24:44Z</time>
      </trkpt>
      <trkpt lat="43.32298" lon="5.74764">
        <ele>1010</ele>
        <time>2019-10-16T13:24:52Z</time>
      </trkpt>
      <trkpt lat="43.32294" lon="5.74758">
        <ele>1012</ele>
        <time>2019-10-16T13:25:02Z</time>
      </trkpt>
      <trkpt lat="43.32293" lon="5.74752">
        <ele>1012</ele>
        <time>2019-10-16T13:25:08Z</time>
      </trkpt>
      <trkpt lat="43.3229" lon="5.74747">
        <ele>1013</ele>
        <time>2019-10-16T13:25:16Z</time>
      </trkpt>
      <trkpt lat="43.32287" lon="5.74741">
        <ele>1012</ele>
        <time>2019-10-16T13:25:24Z</time>
      </trkpt>
      <trkpt lat="43.32288" lon="5.74735">
        <ele>1014</ele>
        <time>2019-10-16T13:25:34Z</time>
      </trkpt>
      <trkpt lat="43.3229" lon="5.74728">
        <ele>1013</ele>
        <time>2019-10-16T13:25:42Z</time>
      </trkpt>
      <trkpt lat="43.3229" lon="5.74721">
        <ele>1014</ele>
        <time>2019-10-16T13:25:52Z</time>
      </trkpt>
      <trkpt lat="43.3229" lon="5.74714">
        <ele>1015</ele>
        <time>2019-10-16T13:25:58Z</time>
      </trkpt>
      <trkpt lat="43.32293" lon="5.74707">
        <ele>1015</ele>
        <time>2019-10-16T13:26:06Z</time>
      </trkpt>
      <trkpt lat="43.3229" lon="5.747">
        <ele>1015</ele>
        <time>2019-10-16T13:26:14Z</time>
      </trkpt>
      <trkpt lat="43.32288" lon="5.74694">
        <ele>1016</ele>
        <time>2019-10-16T13:26:22Z</time>
      </trkpt>
      <trkpt lat="43.32287" lon="5.74687">
        <ele>1016</ele>
        <time>2019-10-16T13:26:30Z</time>
      </trkpt>
      <trkpt lat="43.32286" lon="5.7468">
        <ele>1017</ele>
        <time>2019-10-16T13:26:36Z</time>
      </trkpt>
      <trkpt lat="43.32286" lon="5.74672">
        <ele>1018</ele>
        <time>2019-10-16T13:26:44Z</time>
      </trkpt>
      <trkpt lat="43.32284" lon="5.74665">
        <ele>1018</ele>
        <time>2019-10-16T13:26:52Z</time>
      </trkpt>
      <trkpt lat="43.32282" lon="5.74659">
        <ele>1019</ele>
        <time>2019-10-16T13:27:00Z</time>
      </trkpt>
      <trkpt lat="43.32279" lon="5.74653">
        <ele>1019</ele>
        <time>2019-10-16T13:27:06Z</time>
      </trkpt>
      <trkpt lat="43.32277" lon="5.74646">
        <ele>1017</ele>
        <time>2019-10-16T13:27:14Z</time>
      </trkpt>
      <trkpt lat="43.32277" lon="5.74639">
        <ele>1017</ele>
        <time>2019-10-16T13:27:20Z</time>
      </trkpt>
      <trkpt lat="43.32276" lon="5.74632">
        <ele>1018</ele>
        <time>2019-10-16T13:27:28Z</time>
      </trkpt>
      <trkpt lat="43.32272" lon="5.74626">
        <ele>1018</ele>
        <time>2019-10-16T13:27:34Z</time>
      </trkpt>
      <trkpt lat="43.32271" lon="5.74619">
        <ele>1017</ele>
        <time>2019-10-16T13:27:42Z</time>
      </trkpt>
      <trkpt lat="43.3227" lon="5.74612">
        <ele>1016</ele>
        <time>2019-10-16T13:27:48Z</time>
      </trkpt>
      <trkpt lat="43.32268" lon="5.74605">
        <ele>1017</ele>
        <time>2019-10-16T13:27:54Z</time>
      </trkpt>
      <trkpt lat="43.32268" lon="5.74597">
        <ele>1016</ele>
        <time>2019-10-16T13:28:00Z</time>
      </trkpt>
      <trkpt lat="43.32265" lon="5.7459">
        <ele>1015</ele>
        <time>2019-10-16T13:28:48Z</time>
      </trkpt>
      <trkpt lat="43.32265" lon="5.74582">
        <ele>1017</ele>
        <time>2019-10-16T13:29:58Z</time>
      </trkpt>
      <trkpt lat="43.32264" lon="5.74575">
        <ele>1017</ele>
        <time>2019-10-16T13:30:04Z</time>
      </trkpt>
      <trkpt lat="43.32261" lon="5.74569">
        <ele>1015</ele>
        <time>2019-10-16T13:31:04Z</time>
      </trkpt>
      <trkpt lat="43.32258" lon="5.74563">
        <ele>1014</ele>
        <time>2019-10-16T13:31:12Z</time>
      </trkpt>
      <trkpt lat="43.32256" lon="5.74557">
        <ele>1014</ele>
        <time>2019-10-16T13:31:18Z</time>
      </trkpt>
      <trkpt lat="43.32251" lon="5.74553">
        <ele>1013</ele>
        <time>2019-10-16T13:31:24Z</time>
      </trkpt>
      <trkpt lat="43.32247" lon="5.74548">
        <ele>1013</ele>
        <time>2019-10-16T13:31:30Z</time>
      </trkpt>
      <trkpt lat="43.32244" lon="5.74543">
        <ele>1012</ele>
        <time>2019-10-16T13:31:36Z</time>
      </trkpt>
      <trkpt lat="43.32239" lon="5.74537">
        <ele>1011</ele>
        <time>2019-10-16T13:31:44Z</time>
      </trkpt>
      <trkpt lat="43.32236" lon="5.74529">
        <ele>1013</ele>
        <time>2019-10-16T13:31:50Z</time>
      </trkpt>
      <trkpt lat="43.32234" lon="5.74524">
        <ele>1014</ele>
        <time>2019-10-16T13:31:56Z</time>
      </trkpt>
      <trkpt lat="43.32232" lon="5.74518">
        <ele>1013</ele>
        <time>2019-10-16T13:32:02Z</time>
      </trkpt>
      <trkpt lat="43.32229" lon="5.74511">
        <ele>1013</ele>
        <time>2019-10-16T13:32:10Z</time>
      </trkpt>
      <trkpt lat="43.32227" lon="5.74505">
        <ele>1013</ele>
        <time>2019-10-16T13:32:18Z</time>
      </trkpt>
      <trkpt lat="43.32223" lon="5.74499">
        <ele>1013</ele>
        <time>2019-10-16T13:32:24Z</time>
      </trkpt>
      <trkpt lat="43.32219" lon="5.74494">
        <ele>1013</ele>
        <time>2019-10-16T13:32:30Z</time>
      </trkpt>
      <trkpt lat="43.32217" lon="5.74488">
        <ele>1013</ele>
        <time>2019-10-16T13:32:36Z</time>
      </trkpt>
      <trkpt lat="43.32216" lon="5.74481">
        <ele>1012</ele>
        <time>2019-10-16T13:32:44Z</time>
      </trkpt>
      <trkpt lat="43.32215" lon="5.74473">
        <ele>1013</ele>
        <time>2019-10-16T13:32:52Z</time>
      </trkpt>
      <trkpt lat="43.32216" lon="5.74466">
        <ele>1013</ele>
        <time>2019-10-16T13:32:58Z</time>
      </trkpt>
      <trkpt lat="43.32216" lon="5.74459">
        <ele>1014</ele>
        <time>2019-10-16T13:33:04Z</time>
      </trkpt>
      <trkpt lat="43.32218" lon="5.74452">
        <ele>1014</ele>
        <time>2019-10-16T13:33:12Z</time>
      </trkpt>
      <trkpt lat="43.32218" lon="5.74446">
        <ele>1016</ele>
        <time>2019-10-16T13:33:18Z</time>
      </trkpt>
      <trkpt lat="43.32215" lon="5.7444">
        <ele>1016</ele>
        <time>2019-10-16T13:33:24Z</time>
      </trkpt>
      <trkpt lat="43.32214" lon="5.74432">
        <ele>1018</ele>
        <time>2019-10-16T13:33:32Z</time>
      </trkpt>
      <trkpt lat="43.32211" lon="5.74427">
        <ele>1016</ele>
        <time>2019-10-16T13:33:40Z</time>
      </trkpt>
      <trkpt lat="43.32205" lon="5.74422">
        <ele>1014</ele>
        <time>2019-10-16T13:33:48Z</time>
      </trkpt>
      <trkpt lat="43.32204" lon="5.74416">
        <ele>1015</ele>
        <time>2019-10-16T13:33:54Z</time>
      </trkpt>
      <trkpt lat="43.32202" lon="5.74409">
        <ele>1015</ele>
        <time>2019-10-16T13:34:00Z</time>
      </trkpt>
      <trkpt lat="43.322" lon="5.74403">
        <ele>1015</ele>
        <time>2019-10-16T13:34:06Z</time>
      </trkpt>
      <trkpt lat="43.32197" lon="5.74398">
        <ele>1014</ele>
        <time>2019-10-16T13:34:12Z</time>
      </trkpt>
      <trkpt lat="43.32194" lon="5.74392">
        <ele>1015</ele>
        <time>2019-10-16T13:34:18Z</time>
      </trkpt>
      <trkpt lat="43.32192" lon="5.74385">
        <ele>1015</ele>
        <time>2019-10-16T13:34:24Z</time>
      </trkpt>
      <trkpt lat="43.32189" lon="5.74377">
        <ele>1016</ele>
        <time>2019-10-16T13:34:32Z</time>
      </trkpt>
      <trkpt lat="43.32187" lon="5.74372">
        <ele>1015</ele>
        <time>2019-10-16T13:34:38Z</time>
      </trkpt>
      <trkpt lat="43.32184" lon="5.74367">
        <ele>1014</ele>
        <time>2019-10-16T13:34:44Z</time>
      </trkpt>
      <trkpt lat="43.32183" lon="5.74361">
        <ele>1015</ele>
        <time>2019-10-16T13:34:50Z</time>
      </trkpt>
      <trkpt lat="43.32182" lon="5.74353">
        <ele>1016</ele>
        <time>2019-10-16T13:34:58Z</time>
      </trkpt>
      <trkpt lat="43.32178" lon="5.74348">
        <ele>1015</ele>
        <time>2019-10-16T13:35:04Z</time>
      </trkpt>
      <trkpt lat="43.32176" lon="5.74341">
        <ele>1015</ele>
        <time>2019-10-16T13:35:10Z</time>
      </trkpt>
      <trkpt lat="43.32175" lon="5.74334">
        <ele>1016</ele>
        <time>2019-10-16T13:35:16Z</time>
      </trkpt>
      <trkpt lat="43.32173" lon="5.74328">
        <ele>1015</ele>
        <time>2019-10-16T13:35:22Z</time>
      </trkpt>
      <trkpt lat="43.32173" lon="5.7432">
        <ele>1015</ele>
        <time>2019-10-16T13:35:28Z</time>
      </trkpt>
      <trkpt lat="43.32172" lon="5.74313">
        <ele>1016</ele>
        <time>2019-10-16T13:35:34Z</time>
      </trkpt>
      <trkpt lat="43.3217" lon="5.74305">
        <ele>1015</ele>
        <time>2019-10-16T13:35:42Z</time>
      </trkpt>
      <trkpt lat="43.32169" lon="5.74298">
        <ele>1017</ele>
        <time>2019-10-16T13:35:50Z</time>
      </trkpt>
      <trkpt lat="43.32169" lon="5.7429">
        <ele>1016</ele>
        <time>2019-10-16T13:35:56Z</time>
      </trkpt>
      <trkpt lat="43.32167" lon="5.74283">
        <ele>1017</ele>
        <time>2019-10-16T13:36:02Z</time>
      </trkpt>
      <trkpt lat="43.32165" lon="5.74277">
        <ele>1017</ele>
        <time>2019-10-16T13:36:08Z</time>
      </trkpt>
      <trkpt lat="43.32162" lon="5.74271">
        <ele>1018</ele>
        <time>2019-10-16T13:36:14Z</time>
      </trkpt>
      <trkpt lat="43.3216" lon="5.74265">
        <ele>1018</ele>
        <time>2019-10-16T13:36:20Z</time>
      </trkpt>
      <trkpt lat="43.32157" lon="5.7426">
        <ele>1019</ele>
        <time>2019-10-16T13:36:26Z</time>
      </trkpt>
      <trkpt lat="43.32158" lon="5.74252">
        <ele>1018</ele>
        <time>2019-10-16T13:36:34Z</time>
      </trkpt>
      <trkpt lat="43.32158" lon="5.74246">
        <ele>1019</ele>
        <time>2019-10-16T13:36:40Z</time>
      </trkpt>
      <trkpt lat="43.32158" lon="5.74239">
        <ele>1018</ele>
        <time>2019-10-16T13:36:46Z</time>
      </trkpt>
      <trkpt lat="43.32155" lon="5.74234">
        <ele>1019</ele>
        <time>2019-10-16T13:36:52Z</time>
      </trkpt>
      <trkpt lat="43.32152" lon="5.74228">
        <ele>1019</ele>
        <time>2019-10-16T13:36:58Z</time>
      </trkpt>
      <trkpt lat="43.32148" lon="5.74222">
        <ele>1018</ele>
        <time>2019-10-16T13:37:06Z</time>
      </trkpt>
      <trkpt lat="43.32146" lon="5.74216">
        <ele>1019</ele>
        <time>2019-10-16T13:37:12Z</time>
      </trkpt>
      <trkpt lat="43.32143" lon="5.74209">
        <ele>1018</ele>
        <time>2019-10-16T13:37:18Z</time>
      </trkpt>
      <trkpt lat="43.32142" lon="5.74202">
        <ele>1019</ele>
        <time>2019-10-16T13:37:26Z</time>
      </trkpt>
      <trkpt lat="43.3214" lon="5.74196">
        <ele>1018</ele>
        <time>2019-10-16T13:37:32Z</time>
      </trkpt>
      <trkpt lat="43.3214" lon="5.74189">
        <ele>1018</ele>
        <time>2019-10-16T13:37:40Z</time>
      </trkpt>
      <trkpt lat="43.32138" lon="5.74182">
        <ele>1017</ele>
        <time>2019-10-16T13:37:46Z</time>
      </trkpt>
      <trkpt lat="43.32138" lon="5.74176">
        <ele>1018</ele>
        <time>2019-10-16T13:37:52Z</time>
      </trkpt>
      <trkpt lat="43.32137" lon="5.74169">
        <ele>1018</ele>
        <time>2019-10-16T13:38:00Z</time>
      </trkpt>
      <trkpt lat="43.32135" lon="5.74162">
        <ele>1019</ele>
        <time>2019-10-16T13:38:06Z</time>
      </trkpt>
      <trkpt lat="43.32132" lon="5.74157">
        <ele>1019</ele>
        <time>2019-10-16T13:38:14Z</time>
      </trkpt>
      <trkpt lat="43.32127" lon="5.74155">
        <ele>1020</ele>
        <time>2019-10-16T13:38:20Z</time>
      </trkpt>
      <trkpt lat="43.32125" lon="5.74148">
        <ele>1018</ele>
        <time>2019-10-16T13:38:28Z</time>
      </trkpt>
      <trkpt lat="43.32122" lon="5.7414">
        <ele>1017</ele>
        <time>2019-10-16T13:38:36Z</time>
      </trkpt>
      <trkpt lat="43.32121" lon="5.74134">
        <ele>1017</ele>
        <time>2019-10-16T13:38:42Z</time>
      </trkpt>
      <trkpt lat="43.32119" lon="5.74126">
        <ele>1018</ele>
        <time>2019-10-16T13:38:50Z</time>
      </trkpt>
      <trkpt lat="43.32117" lon="5.74119">
        <ele>1019</ele>
        <time>2019-10-16T13:38:56Z</time>
      </trkpt>
      <trkpt lat="43.32116" lon="5.74111">
        <ele>1019</ele>
        <time>2019-10-16T13:39:02Z</time>
      </trkpt>
      <trkpt lat="43.32116" lon="5.74105">
        <ele>1019</ele>
        <time>2019-10-16T13:39:08Z</time>
      </trkpt>
      <trkpt lat="43.32117" lon="5.74098">
        <ele>1019</ele>
        <time>2019-10-16T13:39:14Z</time>
      </trkpt>
      <trkpt lat="43.32115" lon="5.74091">
        <ele>1019</ele>
        <time>2019-10-16T13:39:22Z</time>
      </trkpt>
      <trkpt lat="43.32113" lon="5.74084">
        <ele>1018</ele>
        <time>2019-10-16T13:39:28Z</time>
      </trkpt>
      <trkpt lat="43.32109" lon="5.7408">
        <ele>1017</ele>
        <time>2019-10-16T13:39:34Z</time>
      </trkpt>
      <trkpt lat="43.32105" lon="5.74074">
        <ele>1016</ele>
        <time>2019-10-16T13:39:40Z</time>
      </trkpt>
      <trkpt lat="43.32101" lon="5.74069">
        <ele>1016</ele>
        <time>2019-10-16T13:39:46Z</time>
      </trkpt>
      <trkpt lat="43.32098" lon="5.74062">
        <ele>1018</ele>
        <time>2019-10-16T13:39:54Z</time>
      </trkpt>
      <trkpt lat="43.32096" lon="5.74056">
        <ele>1018</ele>
        <time>2019-10-16T13:40:00Z</time>
      </trkpt>
      <trkpt lat="43.32094" lon="5.74049">
        <ele>1018</ele>
        <time>2019-10-16T13:40:06Z</time>
      </trkpt>
      <trkpt lat="43.32091" lon="5.74043">
        <ele>1017</ele>
        <time>2019-10-16T13:40:12Z</time>
      </trkpt>
      <trkpt lat="43.32087" lon="5.74039">
        <ele>1018</ele>
        <time>2019-10-16T13:40:18Z</time>
      </trkpt>
      <trkpt lat="43.32083" lon="5.74035">
        <ele>1017</ele>
        <time>2019-10-16T13:40:26Z</time>
      </trkpt>
      <trkpt lat="43.32081" lon="5.74029">
        <ele>1017</ele>
        <time>2019-10-16T13:40:32Z</time>
      </trkpt>
      <trkpt lat="43.3208" lon="5.74022">
        <ele>1017</ele>
        <time>2019-10-16T13:40:38Z</time>
      </trkpt>
      <trkpt lat="43.32078" lon="5.74014">
        <ele>1017</ele>
        <time>2019-10-16T13:40:46Z</time>
      </trkpt>
      <trkpt lat="43.32076" lon="5.74008">
        <ele>1017</ele>
        <time>2019-10-16T13:40:52Z</time>
      </trkpt>
      <trkpt lat="43.32075" lon="5.74002">
        <ele>1017</ele>
        <time>2019-10-16T13:40:58Z</time>
      </trkpt>
      <trkpt lat="43.32073" lon="5.73995">
        <ele>1019</ele>
        <time>2019-10-16T13:41:04Z</time>
      </trkpt>
      <trkpt lat="43.32071" lon="5.73987">
        <ele>1018</ele>
        <time>2019-10-16T13:41:12Z</time>
      </trkpt>
      <trkpt lat="43.32068" lon="5.73981">
        <ele>1019</ele>
        <time>2019-10-16T13:41:18Z</time>
      </trkpt>
      <trkpt lat="43.32066" lon="5.73974">
        <ele>1018</ele>
        <time>2019-10-16T13:41:24Z</time>
      </trkpt>
      <trkpt lat="43.32064" lon="5.73967">
        <ele>1017</ele>
        <time>2019-10-16T13:41:30Z</time>
      </trkpt>
      <trkpt lat="43.32061" lon="5.73961">
        <ele>1016</ele>
        <time>2019-10-16T13:41:36Z</time>
      </trkpt>
      <trkpt lat="43.3206" lon="5.73955">
        <ele>1016</ele>
        <time>2019-10-16T13:41:42Z</time>
      </trkpt>
      <trkpt lat="43.32058" lon="5.73948">
        <ele>1018</ele>
        <time>2019-10-16T13:41:48Z</time>
      </trkpt>
      <trkpt lat="43.32054" lon="5.73942">
        <ele>1019</ele>
        <time>2019-10-16T13:41:54Z</time>
      </trkpt>
      <trkpt lat="43.3205" lon="5.73937">
        <ele>1019</ele>
        <time>2019-10-16T13:42:00Z</time>
      </trkpt>
      <trkpt lat="43.32046" lon="5.73933">
        <ele>1020</ele>
        <time>2019-10-16T13:42:08Z</time>
      </trkpt>
      <trkpt lat="43.32044" lon="5.73928">
        <ele>1019</ele>
        <time>2019-10-16T13:42:14Z</time>
      </trkpt>
      <trkpt lat="43.32041" lon="5.73922">
        <ele>1020</ele>
        <time>2019-10-16T13:42:20Z</time>
      </trkpt>
      <trkpt lat="43.3204" lon="5.73916">
        <ele>1021</ele>
        <time>2019-10-16T13:42:28Z</time>
      </trkpt>
      <trkpt lat="43.32039" lon="5.73908">
        <ele>1020</ele>
        <time>2019-10-16T13:42:36Z</time>
      </trkpt>
      <trkpt lat="43.32038" lon="5.739">
        <ele>1020</ele>
        <time>2019-10-16T13:42:42Z</time>
      </trkpt>
      <trkpt lat="43.32038" lon="5.73893">
        <ele>1020</ele>
        <time>2019-10-16T13:42:48Z</time>
      </trkpt>
      <trkpt lat="43.32037" lon="5.73886">
        <ele>1019</ele>
        <time>2019-10-16T13:42:54Z</time>
      </trkpt>
      <trkpt lat="43.32035" lon="5.7388">
        <ele>1020</ele>
        <time>2019-10-16T13:43:00Z</time>
      </trkpt>
      <trkpt lat="43.32033" lon="5.73874">
        <ele>1019</ele>
        <time>2019-10-16T13:43:06Z</time>
      </trkpt>
      <trkpt lat="43.3203" lon="5.73868">
        <ele>1019</ele>
        <time>2019-10-16T13:43:12Z</time>
      </trkpt>
      <trkpt lat="43.32029" lon="5.73862">
        <ele>1020</ele>
        <time>2019-10-16T13:43:18Z</time>
      </trkpt>
      <trkpt lat="43.32027" lon="5.73855">
        <ele>1019</ele>
        <time>2019-10-16T13:43:24Z</time>
      </trkpt>
      <trkpt lat="43.32025" lon="5.73849">
        <ele>1020</ele>
        <time>2019-10-16T13:43:30Z</time>
      </trkpt>
      <trkpt lat="43.32024" lon="5.73841">
        <ele>1020</ele>
        <time>2019-10-16T13:43:36Z</time>
      </trkpt>
      <trkpt lat="43.32022" lon="5.73835">
        <ele>1021</ele>
        <time>2019-10-16T13:43:42Z</time>
      </trkpt>
      <trkpt lat="43.32021" lon="5.73828">
        <ele>1021</ele>
        <time>2019-10-16T13:43:48Z</time>
      </trkpt>
      <trkpt lat="43.32021" lon="5.73822">
        <ele>1021</ele>
        <time>2019-10-16T13:43:54Z</time>
      </trkpt>
      <trkpt lat="43.32019" lon="5.73816">
        <ele>1022</ele>
        <time>2019-10-16T13:46:00Z</time>
      </trkpt>
      <trkpt lat="43.32018" lon="5.73807">
        <ele>1021</ele>
        <time>2019-10-16T13:46:08Z</time>
      </trkpt>
      <trkpt lat="43.32018" lon="5.73801">
        <ele>1022</ele>
        <time>2019-10-16T13:46:14Z</time>
      </trkpt>
      <trkpt lat="43.32017" lon="5.73793">
        <ele>1023</ele>
        <time>2019-10-16T13:46:20Z</time>
      </trkpt>
      <trkpt lat="43.32015" lon="5.73788">
        <ele>1021</ele>
        <time>2019-10-16T13:46:26Z</time>
      </trkpt>
      <trkpt lat="43.32012" lon="5.73782">
        <ele>1022</ele>
        <time>2019-10-16T13:46:58Z</time>
      </trkpt>
      <trkpt lat="43.32009" lon="5.73775">
        <ele>1022</ele>
        <time>2019-10-16T13:47:06Z</time>
      </trkpt>
      <trkpt lat="43.32007" lon="5.73769">
        <ele>1022</ele>
        <time>2019-10-16T13:47:12Z</time>
      </trkpt>
      <trkpt lat="43.32001" lon="5.73769">
        <ele>1021</ele>
        <time>2019-10-16T13:47:20Z</time>
      </trkpt>
      <trkpt lat="43.31998" lon="5.73764">
        <ele>1022</ele>
        <time>2019-10-16T13:47:26Z</time>
      </trkpt>
      <trkpt lat="43.31996" lon="5.73757">
        <ele>1023</ele>
        <time>2019-10-16T13:47:32Z</time>
      </trkpt>
      <trkpt lat="43.31994" lon="5.73751">
        <ele>1023</ele>
        <time>2019-10-16T13:47:38Z</time>
      </trkpt>
      <trkpt lat="43.31991" lon="5.73745">
        <ele>1024</ele>
        <time>2019-10-16T13:47:44Z</time>
      </trkpt>
      <trkpt lat="43.3199" lon="5.73739">
        <ele>1022</ele>
        <time>2019-10-16T13:47:50Z</time>
      </trkpt>
      <trkpt lat="43.31986" lon="5.73732">
        <ele>1023</ele>
        <time>2019-10-16T13:47:58Z</time>
      </trkpt>
      <trkpt lat="43.31984" lon="5.73725">
        <ele>1025</ele>
        <time>2019-10-16T13:48:04Z</time>
      </trkpt>
      <trkpt lat="43.31982" lon="5.73718">
        <ele>1025</ele>
        <time>2019-10-16T13:48:10Z</time>
      </trkpt>
      <trkpt lat="43.31981" lon="5.73712">
        <ele>1026</ele>
        <time>2019-10-16T13:48:16Z</time>
      </trkpt>
      <trkpt lat="43.3198" lon="5.73703">
        <ele>1028</ele>
        <time>2019-10-16T13:48:24Z</time>
      </trkpt>
      <trkpt lat="43.31979" lon="5.73695">
        <ele>1028</ele>
        <time>2019-10-16T13:48:32Z</time>
      </trkpt>
      <trkpt lat="43.31976" lon="5.73687">
        <ele>1028</ele>
        <time>2019-10-16T13:48:40Z</time>
      </trkpt>
      <trkpt lat="43.31975" lon="5.7368">
        <ele>1028</ele>
        <time>2019-10-16T13:48:46Z</time>
      </trkpt>
      <trkpt lat="43.31974" lon="5.73672">
        <ele>1028</ele>
        <time>2019-10-16T13:48:56Z</time>
      </trkpt>
      <trkpt lat="43.31973" lon="5.73665">
        <ele>1028</ele>
        <time>2019-10-16T13:49:04Z</time>
      </trkpt>
      <trkpt lat="43.31973" lon="5.73658">
        <ele>1028</ele>
        <time>2019-10-16T13:49:10Z</time>
      </trkpt>
      <trkpt lat="43.3197" lon="5.73651">
        <ele>1027</ele>
        <time>2019-10-16T13:49:18Z</time>
      </trkpt>
      <trkpt lat="43.31967" lon="5.73646">
        <ele>1025</ele>
        <time>2019-10-16T13:49:24Z</time>
      </trkpt>
      <trkpt lat="43.31965" lon="5.73639">
        <ele>1026</ele>
        <time>2019-10-16T13:49:32Z</time>
      </trkpt>
      <trkpt lat="43.31963" lon="5.73633">
        <ele>1026</ele>
        <time>2019-10-16T13:49:40Z</time>
      </trkpt>
      <trkpt lat="43.3196" lon="5.73626">
        <ele>1026</ele>
        <time>2019-10-16T13:49:48Z</time>
      </trkpt>
      <trkpt lat="43.31959" lon="5.73619">
        <ele>1024</ele>
        <time>2019-10-16T13:49:54Z</time>
      </trkpt>
      <trkpt lat="43.31958" lon="5.73612">
        <ele>1023</ele>
        <time>2019-10-16T13:50:00Z</time>
      </trkpt>
      <trkpt lat="43.31955" lon="5.73605">
        <ele>1021</ele>
        <time>2019-10-16T13:50:06Z</time>
      </trkpt>
      <trkpt lat="43.31953" lon="5.73598">
        <ele>1020</ele>
        <time>2019-10-16T13:50:12Z</time>
      </trkpt>
      <trkpt lat="43.31951" lon="5.73592">
        <ele>1019</ele>
        <time>2019-10-16T13:50:18Z</time>
      </trkpt>
      <trkpt lat="43.31948" lon="5.73586">
        <ele>1019</ele>
        <time>2019-10-16T13:50:24Z</time>
      </trkpt>
      <trkpt lat="43.31946" lon="5.73578">
        <ele>1017</ele>
        <time>2019-10-16T13:50:30Z</time>
      </trkpt>
      <trkpt lat="43.31945" lon="5.73571">
        <ele>1016</ele>
        <time>2019-10-16T13:50:36Z</time>
      </trkpt>
      <trkpt lat="43.31944" lon="5.73564">
        <ele>1016</ele>
        <time>2019-10-16T13:50:42Z</time>
      </trkpt>
      <trkpt lat="43.31942" lon="5.73556">
        <ele>1016</ele>
        <time>2019-10-16T13:50:48Z</time>
      </trkpt>
      <trkpt lat="43.31942" lon="5.7355">
        <ele>1015</ele>
        <time>2019-10-16T13:50:54Z</time>
      </trkpt>
      <trkpt lat="43.3194" lon="5.73543">
        <ele>1014</ele>
        <time>2019-10-16T13:51:00Z</time>
      </trkpt>
      <trkpt lat="43.31939" lon="5.73536">
        <ele>1014</ele>
        <time>2019-10-16T13:51:06Z</time>
      </trkpt>
      <trkpt lat="43.31937" lon="5.73529">
        <ele>1013</ele>
        <time>2019-10-16T13:51:12Z</time>
      </trkpt>
      <trkpt lat="43.31937" lon="5.73522">
        <ele>1013</ele>
        <time>2019-10-16T13:51:18Z</time>
      </trkpt>
      <trkpt lat="43.31935" lon="5.73515">
        <ele>1012</ele>
        <time>2019-10-16T13:51:24Z</time>
      </trkpt>
      <trkpt lat="43.31932" lon="5.73509">
        <ele>1012</ele>
        <time>2019-10-16T13:51:30Z</time>
      </trkpt>
      <trkpt lat="43.3193" lon="5.73503">
        <ele>1011</ele>
        <time>2019-10-16T13:51:38Z</time>
      </trkpt>
      <trkpt lat="43.31928" lon="5.73495">
        <ele>1013</ele>
        <time>2019-10-16T13:51:46Z</time>
      </trkpt>
      <trkpt lat="43.31929" lon="5.73488">
        <ele>1013</ele>
        <time>2019-10-16T13:51:54Z</time>
      </trkpt>
      <trkpt lat="43.31927" lon="5.73481">
        <ele>1013</ele>
        <time>2019-10-16T13:52:00Z</time>
      </trkpt>
      <trkpt lat="43.31923" lon="5.73478">
        <ele>1014</ele>
        <time>2019-10-16T13:52:08Z</time>
      </trkpt>
      <trkpt lat="43.31918" lon="5.73473">
        <ele>1014</ele>
        <time>2019-10-16T13:52:18Z</time>
      </trkpt>
      <trkpt lat="43.31915" lon="5.73468">
        <ele>1015</ele>
        <time>2019-10-16T13:52:24Z</time>
      </trkpt>
      <trkpt lat="43.31912" lon="5.73462">
        <ele>1017</ele>
        <time>2019-10-16T13:52:32Z</time>
      </trkpt>
      <trkpt lat="43.3191" lon="5.73455">
        <ele>1019</ele>
        <time>2019-10-16T13:52:38Z</time>
      </trkpt>
      <trkpt lat="43.31908" lon="5.73448">
        <ele>1020</ele>
        <time>2019-10-16T13:52:46Z</time>
      </trkpt>
      <trkpt lat="43.31906" lon="5.7344">
        <ele>1022</ele>
        <time>2019-10-16T13:52:52Z</time>
      </trkpt>
      <trkpt lat="43.31905" lon="5.73433">
        <ele>1022</ele>
        <time>2019-10-16T13:52:58Z</time>
      </trkpt>
      <trkpt lat="43.31905" lon="5.73426">
        <ele>1022</ele>
        <time>2019-10-16T13:53:04Z</time>
      </trkpt>
      <trkpt lat="43.31903" lon="5.73418">
        <ele>1022</ele>
        <time>2019-10-16T13:53:12Z</time>
      </trkpt>
      <trkpt lat="43.31902" lon="5.73411">
        <ele>1023</ele>
        <time>2019-10-16T13:53:18Z</time>
      </trkpt>
      <trkpt lat="43.31899" lon="5.73406">
        <ele>1024</ele>
        <time>2019-10-16T13:53:24Z</time>
      </trkpt>
      <trkpt lat="43.31897" lon="5.734">
        <ele>1025</ele>
        <time>2019-10-16T13:53:30Z</time>
      </trkpt>
      <trkpt lat="43.31897" lon="5.73393">
        <ele>1027</ele>
        <time>2019-10-16T13:53:36Z</time>
      </trkpt>
      <trkpt lat="43.31894" lon="5.73386">
        <ele>1027</ele>
        <time>2019-10-16T13:53:42Z</time>
      </trkpt>
      <trkpt lat="43.31892" lon="5.73379">
        <ele>1028</ele>
        <time>2019-10-16T13:53:48Z</time>
      </trkpt>
      <trkpt lat="43.31894" lon="5.73372">
        <ele>1028</ele>
        <time>2019-10-16T13:53:56Z</time>
      </trkpt>
      <trkpt lat="43.31893" lon="5.73365">
        <ele>1029</ele>
        <time>2019-10-16T13:54:02Z</time>
      </trkpt>
      <trkpt lat="43.3189" lon="5.7336">
        <ele>1028</ele>
        <time>2019-10-16T13:54:08Z</time>
      </trkpt>
      <trkpt lat="43.31887" lon="5.73353">
        <ele>1030</ele>
        <time>2019-10-16T13:54:16Z</time>
      </trkpt>
      <trkpt lat="43.31886" lon="5.73346">
        <ele>1030</ele>
        <time>2019-10-16T13:54:22Z</time>
      </trkpt>
      <trkpt lat="43.31885" lon="5.7334">
        <ele>1031</ele>
        <time>2019-10-16T13:54:28Z</time>
      </trkpt>
      <trkpt lat="43.31882" lon="5.73334">
        <ele>1033</ele>
        <time>2019-10-16T13:54:34Z</time>
      </trkpt>
      <trkpt lat="43.31881" lon="5.73327">
        <ele>1033</ele>
        <time>2019-10-16T13:54:42Z</time>
      </trkpt>
      <trkpt lat="43.31877" lon="5.73321">
        <ele>1033</ele>
        <time>2019-10-16T13:54:48Z</time>
      </trkpt>
      <trkpt lat="43.31873" lon="5.73316">
        <ele>1034</ele>
        <time>2019-10-16T13:54:54Z</time>
      </trkpt>
      <trkpt lat="43.31872" lon="5.7331">
        <ele>1034</ele>
        <time>2019-10-16T13:55:02Z</time>
      </trkpt>
      <trkpt lat="43.31869" lon="5.73304">
        <ele>1034</ele>
        <time>2019-10-16T13:55:10Z</time>
      </trkpt>
      <trkpt lat="43.31866" lon="5.73298">
        <ele>1035</ele>
        <time>2019-10-16T13:55:20Z</time>
      </trkpt>
      <trkpt lat="43.31866" lon="5.73291">
        <ele>1035</ele>
        <time>2019-10-16T13:55:30Z</time>
      </trkpt>
      <trkpt lat="43.31865" lon="5.73284">
        <ele>1035</ele>
        <time>2019-10-16T13:55:44Z</time>
      </trkpt>
      <trkpt lat="43.31863" lon="5.73278">
        <ele>1033</ele>
        <time>2019-10-16T13:55:50Z</time>
      </trkpt>
      <trkpt lat="43.31862" lon="5.73271">
        <ele>1032</ele>
        <time>2019-10-16T13:56:10Z</time>
      </trkpt>
      <trkpt lat="43.31863" lon="5.73265">
        <ele>1032</ele>
        <time>2019-10-16T13:56:26Z</time>
      </trkpt>
      <trkpt lat="43.31862" lon="5.7326">
        <ele>1031</ele>
        <time>2019-10-16T13:56:34Z</time>
      </trkpt>
      <trkpt lat="43.31861" lon="5.73251">
        <ele>1032</ele>
        <time>2019-10-16T13:56:44Z</time>
      </trkpt>
      <trkpt lat="43.3186" lon="5.73245">
        <ele>1032</ele>
        <time>2019-10-16T13:56:50Z</time>
      </trkpt>
      <trkpt lat="43.31857" lon="5.73238">
        <ele>1033</ele>
        <time>2019-10-16T13:56:58Z</time>
      </trkpt>
      <trkpt lat="43.31855" lon="5.7323">
        <ele>1034</ele>
        <time>2019-10-16T13:57:06Z</time>
      </trkpt>
      <trkpt lat="43.31853" lon="5.73222">
        <ele>1034</ele>
        <time>2019-10-16T13:57:14Z</time>
      </trkpt>
      <trkpt lat="43.3185" lon="5.73215">
        <ele>1034</ele>
        <time>2019-10-16T13:57:22Z</time>
      </trkpt>
      <trkpt lat="43.31849" lon="5.73208">
        <ele>1032</ele>
        <time>2019-10-16T13:57:28Z</time>
      </trkpt>
      <trkpt lat="43.31848" lon="5.73201">
        <ele>1033</ele>
        <time>2019-10-16T13:57:36Z</time>
      </trkpt>
      <trkpt lat="43.31847" lon="5.73194">
        <ele>1033</ele>
        <time>2019-10-16T13:57:42Z</time>
      </trkpt>
      <trkpt lat="43.31845" lon="5.73186">
        <ele>1034</ele>
        <time>2019-10-16T13:57:50Z</time>
      </trkpt>
      <trkpt lat="43.31843" lon="5.7318">
        <ele>1034</ele>
        <time>2019-10-16T13:57:56Z</time>
      </trkpt>
      <trkpt lat="43.31842" lon="5.73173">
        <ele>1035</ele>
        <time>2019-10-16T13:58:02Z</time>
      </trkpt>
      <trkpt lat="43.31839" lon="5.73166">
        <ele>1034</ele>
        <time>2019-10-16T13:58:10Z</time>
      </trkpt>
      <trkpt lat="43.31839" lon="5.73158">
        <ele>1035</ele>
        <time>2019-10-16T13:58:16Z</time>
      </trkpt>
      <trkpt lat="43.31835" lon="5.73154">
        <ele>1036</ele>
        <time>2019-10-16T13:58:22Z</time>
      </trkpt>
      <trkpt lat="43.31833" lon="5.73147">
        <ele>1038</ele>
        <time>2019-10-16T13:58:30Z</time>
      </trkpt>
      <trkpt lat="43.31831" lon="5.7314">
        <ele>1038</ele>
        <time>2019-10-16T13:58:38Z</time>
      </trkpt>
      <trkpt lat="43.31829" lon="5.73133">
        <ele>1038</ele>
        <time>2019-10-16T13:58:44Z</time>
      </trkpt>
      <trkpt lat="43.31827" lon="5.73128">
        <ele>1038</ele>
        <time>2019-10-16T13:58:50Z</time>
      </trkpt>
      <trkpt lat="43.31826" lon="5.73121">
        <ele>1038</ele>
        <time>2019-10-16T13:58:56Z</time>
      </trkpt>
      <trkpt lat="43.31825" lon="5.73114">
        <ele>1039</ele>
        <time>2019-10-16T13:59:04Z</time>
      </trkpt>
      <trkpt lat="43.31822" lon="5.73107">
        <ele>1038</ele>
        <time>2019-10-16T13:59:12Z</time>
      </trkpt>
      <trkpt lat="43.3182" lon="5.73101">
        <ele>1037</ele>
        <time>2019-10-16T13:59:18Z</time>
      </trkpt>
      <trkpt lat="43.31818" lon="5.73094">
        <ele>1039</ele>
        <time>2019-10-16T13:59:26Z</time>
      </trkpt>
      <trkpt lat="43.31817" lon="5.73086">
        <ele>1038</ele>
        <time>2019-10-16T13:59:34Z</time>
      </trkpt>
      <trkpt lat="43.31816" lon="5.73078">
        <ele>1039</ele>
        <time>2019-10-16T13:59:42Z</time>
      </trkpt>
      <trkpt lat="43.31815" lon="5.7307">
        <ele>1040</ele>
        <time>2019-10-16T13:59:50Z</time>
      </trkpt>
      <trkpt lat="43.31812" lon="5.73065">
        <ele>1038</ele>
        <time>2019-10-16T13:59:58Z</time>
      </trkpt>
      <trkpt lat="43.3181" lon="5.73059">
        <ele>1034</ele>
        <time>2019-10-16T14:01:14Z</time>
      </trkpt>
      <trkpt lat="43.3181" lon="5.73051">
        <ele>1034</ele>
        <time>2019-10-16T14:01:48Z</time>
      </trkpt>
      <trkpt lat="43.31809" lon="5.73043">
        <ele>1035</ele>
        <time>2019-10-16T14:01:56Z</time>
      </trkpt>
      <trkpt lat="43.3181" lon="5.73035">
        <ele>1035</ele>
        <time>2019-10-16T14:02:04Z</time>
      </trkpt>
      <trkpt lat="43.31809" lon="5.73028">
        <ele>1034</ele>
        <time>2019-10-16T14:02:10Z</time>
      </trkpt>
      <trkpt lat="43.31808" lon="5.73021">
        <ele>1034</ele>
        <time>2019-10-16T14:02:16Z</time>
      </trkpt>
      <trkpt lat="43.31806" lon="5.73015">
        <ele>1036</ele>
        <time>2019-10-16T14:02:22Z</time>
      </trkpt>
      <trkpt lat="43.31805" lon="5.73008">
        <ele>1036</ele>
        <time>2019-10-16T14:02:28Z</time>
      </trkpt>
      <trkpt lat="43.31803" lon="5.73002">
        <ele>1036</ele>
        <time>2019-10-16T14:02:34Z</time>
      </trkpt>
      <trkpt lat="43.31801" lon="5.72994">
        <ele>1035</ele>
        <time>2019-10-16T14:02:42Z</time>
      </trkpt>
      <trkpt lat="43.31799" lon="5.72987">
        <ele>1034</ele>
        <time>2019-10-16T14:02:50Z</time>
      </trkpt>
      <trkpt lat="43.31795" lon="5.72981">
        <ele>1034</ele>
        <time>2019-10-16T14:02:56Z</time>
      </trkpt>
      <trkpt lat="43.31796" lon="5.72975">
        <ele>1034</ele>
        <time>2019-10-16T14:03:02Z</time>
      </trkpt>
      <trkpt lat="43.31795" lon="5.72968">
        <ele>1034</ele>
        <time>2019-10-16T14:03:08Z</time>
      </trkpt>
      <trkpt lat="43.31795" lon="5.72961">
        <ele>1035</ele>
        <time>2019-10-16T14:03:16Z</time>
      </trkpt>
      <trkpt lat="43.31794" lon="5.72954">
        <ele>1034</ele>
        <time>2019-10-16T14:03:22Z</time>
      </trkpt>
      <trkpt lat="43.31793" lon="5.72946">
        <ele>1036</ele>
        <time>2019-10-16T14:03:30Z</time>
      </trkpt>
      <trkpt lat="43.31792" lon="5.72939">
        <ele>1035</ele>
        <time>2019-10-16T14:03:36Z</time>
      </trkpt>
      <trkpt lat="43.3179" lon="5.72931">
        <ele>1036</ele>
        <time>2019-10-16T14:03:42Z</time>
      </trkpt>
      <trkpt lat="43.31789" lon="5.72925">
        <ele>1036</ele>
        <time>2019-10-16T14:03:48Z</time>
      </trkpt>
      <trkpt lat="43.31788" lon="5.72919">
        <ele>1037</ele>
        <time>2019-10-16T14:03:54Z</time>
      </trkpt>
      <trkpt lat="43.31786" lon="5.72913">
        <ele>1038</ele>
        <time>2019-10-16T14:04:00Z</time>
      </trkpt>
      <trkpt lat="43.31784" lon="5.72905">
        <ele>1038</ele>
        <time>2019-10-16T14:04:08Z</time>
      </trkpt>
      <trkpt lat="43.31782" lon="5.72899">
        <ele>1039</ele>
        <time>2019-10-16T14:04:16Z</time>
      </trkpt>
      <trkpt lat="43.31779" lon="5.72891">
        <ele>1038</ele>
        <time>2019-10-16T14:04:24Z</time>
      </trkpt>
      <trkpt lat="43.31777" lon="5.72884">
        <ele>1038</ele>
        <time>2019-10-16T14:04:32Z</time>
      </trkpt>
      <trkpt lat="43.31775" lon="5.72878">
        <ele>1039</ele>
        <time>2019-10-16T14:04:38Z</time>
      </trkpt>
      <trkpt lat="43.31773" lon="5.72871">
        <ele>1041</ele>
        <time>2019-10-16T14:04:44Z</time>
      </trkpt>
      <trkpt lat="43.31772" lon="5.72865">
        <ele>1042</ele>
        <time>2019-10-16T14:04:50Z</time>
      </trkpt>
      <trkpt lat="43.3177" lon="5.72857">
        <ele>1043</ele>
        <time>2019-10-16T14:04:56Z</time>
      </trkpt>
      <trkpt lat="43.31768" lon="5.72851">
        <ele>1043</ele>
        <time>2019-10-16T14:05:02Z</time>
      </trkpt>
      <trkpt lat="43.31766" lon="5.72844">
        <ele>1042</ele>
        <time>2019-10-16T14:05:10Z</time>
      </trkpt>
      <trkpt lat="43.31766" lon="5.72837">
        <ele>1043</ele>
        <time>2019-10-16T14:05:18Z</time>
      </trkpt>
      <trkpt lat="43.31763" lon="5.72832">
        <ele>1043</ele>
        <time>2019-10-16T14:05:36Z</time>
      </trkpt>
      <trkpt lat="43.31758" lon="5.72832">
        <ele>1044</ele>
        <time>2019-10-16T14:05:44Z</time>
      </trkpt>
      <trkpt lat="43.31756" lon="5.72825">
        <ele>1042</ele>
        <time>2019-10-16T14:06:08Z</time>
      </trkpt>
      <trkpt lat="43.31754" lon="5.72819">
        <ele>1043</ele>
        <time>2019-10-16T14:06:24Z</time>
      </trkpt>
      <trkpt lat="43.31753" lon="5.72812">
        <ele>1037</ele>
        <time>2019-10-16T14:06:32Z</time>
      </trkpt>
      <trkpt lat="43.31754" lon="5.72805">
        <ele>1037</ele>
        <time>2019-10-16T14:06:40Z</time>
      </trkpt>
      <trkpt lat="43.31752" lon="5.72798">
        <ele>1039</ele>
        <time>2019-10-16T14:06:48Z</time>
      </trkpt>
      <trkpt lat="43.31751" lon="5.72791">
        <ele>1039</ele>
        <time>2019-10-16T14:06:54Z</time>
      </trkpt>
      <trkpt lat="43.31751" lon="5.72784">
        <ele>1038</ele>
        <time>2019-10-16T14:07:02Z</time>
      </trkpt>
      <trkpt lat="43.3175" lon="5.72778">
        <ele>1040</ele>
        <time>2019-10-16T14:07:08Z</time>
      </trkpt>
      <trkpt lat="43.3175" lon="5.72771">
        <ele>1039</ele>
        <time>2019-10-16T14:07:14Z</time>
      </trkpt>
      <trkpt lat="43.31749" lon="5.72765">
        <ele>1039</ele>
        <time>2019-10-16T14:07:20Z</time>
      </trkpt>
      <trkpt lat="43.31746" lon="5.72757">
        <ele>1038</ele>
        <time>2019-10-16T14:07:28Z</time>
      </trkpt>
      <trkpt lat="43.31744" lon="5.72751">
        <ele>1040</ele>
        <time>2019-10-16T14:07:34Z</time>
      </trkpt>
      <trkpt lat="43.31743" lon="5.72744">
        <ele>1041</ele>
        <time>2019-10-16T14:07:42Z</time>
      </trkpt>
      <trkpt lat="43.31742" lon="5.72738">
        <ele>1041</ele>
        <time>2019-10-16T14:07:48Z</time>
      </trkpt>
      <trkpt lat="43.31739" lon="5.72731">
        <ele>1040</ele>
        <time>2019-10-16T14:07:54Z</time>
      </trkpt>
      <trkpt lat="43.31739" lon="5.72723">
        <ele>1039</ele>
        <time>2019-10-16T14:08:00Z</time>
      </trkpt>
      <trkpt lat="43.31737" lon="5.72717">
        <ele>1040</ele>
        <time>2019-10-16T14:08:06Z</time>
      </trkpt>
      <trkpt lat="43.31735" lon="5.7271">
        <ele>1040</ele>
        <time>2019-10-16T14:08:12Z</time>
      </trkpt>
      <trkpt lat="43.31733" lon="5.72702">
        <ele>1040</ele>
        <time>2019-10-16T14:08:18Z</time>
      </trkpt>
      <trkpt lat="43.31732" lon="5.72695">
        <ele>1040</ele>
        <time>2019-10-16T14:08:24Z</time>
      </trkpt>
      <trkpt lat="43.3173" lon="5.72687">
        <ele>1042</ele>
        <time>2019-10-16T14:08:30Z</time>
      </trkpt>
      <trkpt lat="43.31729" lon="5.72681">
        <ele>1044</ele>
        <time>2019-10-16T14:08:38Z</time>
      </trkpt>
      <trkpt lat="43.31728" lon="5.72674">
        <ele>1045</ele>
        <time>2019-10-16T14:08:44Z</time>
      </trkpt>
      <trkpt lat="43.31726" lon="5.72667">
        <ele>1046</ele>
        <time>2019-10-16T14:08:50Z</time>
      </trkpt>
      <trkpt lat="43.31724" lon="5.7266">
        <ele>1045</ele>
        <time>2019-10-16T14:09:00Z</time>
      </trkpt>
      <trkpt lat="43.31723" lon="5.72654">
        <ele>1045</ele>
        <time>2019-10-16T14:09:08Z</time>
      </trkpt>
      <trkpt lat="43.31721" lon="5.72646">
        <ele>1045</ele>
        <time>2019-10-16T14:09:16Z</time>
      </trkpt>
      <trkpt lat="43.31719" lon="5.72639">
        <ele>1045</ele>
        <time>2019-10-16T14:09:24Z</time>
      </trkpt>
      <trkpt lat="43.31718" lon="5.72632">
        <ele>1044</ele>
        <time>2019-10-16T14:09:40Z</time>
      </trkpt>
      <trkpt lat="43.31713" lon="5.72627">
        <ele>1040</ele>
        <time>2019-10-16T14:09:56Z</time>
      </trkpt>
      <trkpt lat="43.31708" lon="5.72627">
        <ele>1038</ele>
        <time>2019-10-16T14:10:06Z</time>
      </trkpt>
      <trkpt lat="43.31703" lon="5.72626">
        <ele>1035</ele>
        <time>2019-10-16T14:10:16Z</time>
      </trkpt>
      <trkpt lat="43.31699" lon="5.72629">
        <ele>1033</ele>
        <time>2019-10-16T14:10:26Z</time>
      </trkpt>
      <trkpt lat="43.31694" lon="5.72628">
        <ele>1030</ele>
        <time>2019-10-16T14:10:36Z</time>
      </trkpt>
      <trkpt lat="43.31689" lon="5.72626">
        <ele>1029</ele>
        <time>2019-10-16T14:10:44Z</time>
      </trkpt>
      <trkpt lat="43.31686" lon="5.72621">
        <ele>1030</ele>
        <time>2019-10-16T14:10:54Z</time>
      </trkpt>
      <trkpt lat="43.31684" lon="5.72614">
        <ele>1030</ele>
        <time>2019-10-16T14:11:04Z</time>
      </trkpt>
      <trkpt lat="43.31679" lon="5.72615">
        <ele>1028</ele>
        <time>2019-10-16T14:11:12Z</time>
      </trkpt>
      <trkpt lat="43.31674" lon="5.72614">
        <ele>1026</ele>
        <time>2019-10-16T14:11:20Z</time>
      </trkpt>
      <trkpt lat="43.31671" lon="5.72607">
        <ele>1027</ele>
        <time>2019-10-16T14:11:26Z</time>
      </trkpt>
      <trkpt lat="43.3167" lon="5.726">
        <ele>1027</ele>
        <time>2019-10-16T14:11:32Z</time>
      </trkpt>
      <trkpt lat="43.3167" lon="5.72594">
        <ele>1026</ele>
        <time>2019-10-16T14:11:38Z</time>
      </trkpt>
      <trkpt lat="43.31668" lon="5.72588">
        <ele>1027</ele>
        <time>2019-10-16T14:14:18Z</time>
      </trkpt>
      <trkpt lat="43.31663" lon="5.72584">
        <ele>1023</ele>
        <time>2019-10-16T14:16:18Z</time>
      </trkpt>
      <trkpt lat="43.31659" lon="5.72581">
        <ele>1022</ele>
        <time>2019-10-16T14:16:26Z</time>
      </trkpt>
      <trkpt lat="43.31655" lon="5.72575">
        <ele>1022</ele>
        <time>2019-10-16T14:16:42Z</time>
      </trkpt>
      <trkpt lat="43.31651" lon="5.72572">
        <ele>1021</ele>
        <time>2019-10-16T14:16:56Z</time>
      </trkpt>
      <trkpt lat="43.31647" lon="5.72575">
        <ele>1017</ele>
        <time>2019-10-16T14:17:08Z</time>
      </trkpt>
      <trkpt lat="43.31645" lon="5.72581">
        <ele>1016</ele>
        <time>2019-10-16T14:17:16Z</time>
      </trkpt>
      <trkpt lat="43.3164" lon="5.72579">
        <ele>1015</ele>
        <time>2019-10-16T14:17:22Z</time>
      </trkpt>
      <trkpt lat="43.31635" lon="5.72577">
        <ele>1014</ele>
        <time>2019-10-16T14:17:28Z</time>
      </trkpt>
      <trkpt lat="43.3163" lon="5.72575">
        <ele>1011</ele>
        <time>2019-10-16T14:17:36Z</time>
      </trkpt>
      <trkpt lat="43.31624" lon="5.72578">
        <ele>1008</ele>
        <time>2019-10-16T14:17:44Z</time>
      </trkpt>
      <trkpt lat="43.31624" lon="5.72585">
        <ele>1003</ele>
        <time>2019-10-16T14:17:52Z</time>
      </trkpt>
      <trkpt lat="43.31619" lon="5.72589">
        <ele>1003</ele>
        <time>2019-10-16T14:18:00Z</time>
      </trkpt>
      <trkpt lat="43.31614" lon="5.72592">
        <ele>1001</ele>
        <time>2019-10-16T14:18:06Z</time>
      </trkpt>
      <trkpt lat="43.31608" lon="5.72592">
        <ele>1000</ele>
        <time>2019-10-16T14:18:12Z</time>
      </trkpt>
      <trkpt lat="43.31604" lon="5.72593">
        <ele>999</ele>
        <time>2019-10-16T14:18:20Z</time>
      </trkpt>
      <trkpt lat="43.31599" lon="5.7259">
        <ele>998</ele>
        <time>2019-10-16T14:18:26Z</time>
      </trkpt>
      <trkpt lat="43.31595" lon="5.72584">
        <ele>998</ele>
        <time>2019-10-16T14:18:32Z</time>
      </trkpt>
      <trkpt lat="43.31591" lon="5.7258">
        <ele>995</ele>
        <time>2019-10-16T14:18:38Z</time>
      </trkpt>
      <trkpt lat="43.31586" lon="5.72582">
        <ele>993</ele>
        <time>2019-10-16T14:18:48Z</time>
      </trkpt>
      <trkpt lat="43.31582" lon="5.72585">
        <ele>992</ele>
        <time>2019-10-16T14:18:56Z</time>
      </trkpt>
      <trkpt lat="43.31578" lon="5.72589">
        <ele>990</ele>
        <time>2019-10-16T14:19:06Z</time>
      </trkpt>
      <trkpt lat="43.31573" lon="5.72587">
        <ele>987</ele>
        <time>2019-10-16T14:19:14Z</time>
      </trkpt>
      <trkpt lat="43.31568" lon="5.72586">
        <ele>986</ele>
        <time>2019-10-16T14:19:22Z</time>
      </trkpt>
      <trkpt lat="43.31564" lon="5.7259">
        <ele>982</ele>
        <time>2019-10-16T14:19:34Z</time>
      </trkpt>
      <trkpt lat="43.31561" lon="5.72596">
        <ele>979</ele>
        <time>2019-10-16T14:19:42Z</time>
      </trkpt>
      <trkpt lat="43.31556" lon="5.72596">
        <ele>978</ele>
        <time>2019-10-16T14:19:52Z</time>
      </trkpt>
      <trkpt lat="43.31553" lon="5.72601">
        <ele>977</ele>
        <time>2019-10-16T14:19:58Z</time>
      </trkpt>
      <trkpt lat="43.31549" lon="5.726">
        <ele>975</ele>
        <time>2019-10-16T14:20:16Z</time>
      </trkpt>
      <trkpt lat="43.31544" lon="5.72601">
        <ele>971</ele>
        <time>2019-10-16T14:20:26Z</time>
      </trkpt>
      <trkpt lat="43.31541" lon="5.72606">
        <ele>968</ele>
        <time>2019-10-16T14:20:36Z</time>
      </trkpt>
      <trkpt lat="43.31538" lon="5.72611">
        <ele>967</ele>
        <time>2019-10-16T14:20:42Z</time>
      </trkpt>
      <trkpt lat="43.31535" lon="5.7262">
        <ele>965</ele>
        <time>2019-10-16T14:20:48Z</time>
      </trkpt>
      <trkpt lat="43.3153" lon="5.72622">
        <ele>962</ele>
        <time>2019-10-16T14:20:58Z</time>
      </trkpt>
      <trkpt lat="43.31526" lon="5.72617">
        <ele>962</ele>
        <time>2019-10-16T14:21:06Z</time>
      </trkpt>
      <trkpt lat="43.31522" lon="5.7261">
        <ele>960</ele>
        <time>2019-10-16T14:21:12Z</time>
      </trkpt>
      <trkpt lat="43.31518" lon="5.72604">
        <ele>957</ele>
        <time>2019-10-16T14:21:18Z</time>
      </trkpt>
      <trkpt lat="43.31515" lon="5.72598">
        <ele>954</ele>
        <time>2019-10-16T14:21:24Z</time>
      </trkpt>
      <trkpt lat="43.31512" lon="5.72593">
        <ele>953</ele>
        <time>2019-10-16T14:21:28Z</time>
      </trkpt>
      <trkpt lat="43.31509" lon="5.72587">
        <ele>953</ele>
        <time>2019-10-16T14:21:34Z</time>
      </trkpt>
      <trkpt lat="43.31507" lon="5.7258">
        <ele>952</ele>
        <time>2019-10-16T14:21:40Z</time>
      </trkpt>
      <trkpt lat="43.31504" lon="5.72576">
        <ele>949</ele>
        <time>2019-10-16T14:21:46Z</time>
      </trkpt>
      <trkpt lat="43.31499" lon="5.72576">
        <ele>949</ele>
        <time>2019-10-16T14:21:56Z</time>
      </trkpt>
      <trkpt lat="43.31497" lon="5.72571">
        <ele>948</ele>
        <time>2019-10-16T14:22:02Z</time>
      </trkpt>
      <trkpt lat="43.31493" lon="5.72566">
        <ele>947</ele>
        <time>2019-10-16T14:22:08Z</time>
      </trkpt>
      <trkpt lat="43.31489" lon="5.72561">
        <ele>945</ele>
        <time>2019-10-16T14:22:14Z</time>
      </trkpt>
      <trkpt lat="43.31487" lon="5.72556">
        <ele>940</ele>
        <time>2019-10-16T14:22:24Z</time>
      </trkpt>
      <trkpt lat="43.31484" lon="5.72549">
        <ele>938</ele>
        <time>2019-10-16T14:22:36Z</time>
      </trkpt>
      <trkpt lat="43.31488" lon="5.72543">
        <ele>937</ele>
        <time>2019-10-16T14:22:46Z</time>
      </trkpt>
      <trkpt lat="43.31489" lon="5.72536">
        <ele>934</ele>
        <time>2019-10-16T14:22:54Z</time>
      </trkpt>
      <trkpt lat="43.31485" lon="5.72533">
        <ele>929</ele>
        <time>2019-10-16T14:23:02Z</time>
      </trkpt>
      <trkpt lat="43.31485" lon="5.72526">
        <ele>924</ele>
        <time>2019-10-16T14:23:18Z</time>
      </trkpt>
      <trkpt lat="43.31484" lon="5.7252">
        <ele>923</ele>
        <time>2019-10-16T14:23:28Z</time>
      </trkpt>
      <trkpt lat="43.31479" lon="5.72517">
        <ele>922</ele>
        <time>2019-10-16T14:23:38Z</time>
      </trkpt>
      <trkpt lat="43.31482" lon="5.72512">
        <ele>923</ele>
        <time>2019-10-16T14:23:52Z</time>
      </trkpt>
      <trkpt lat="43.31484" lon="5.72505">
        <ele>921</ele>
        <time>2019-10-16T14:24:02Z</time>
      </trkpt>
      <trkpt lat="43.31479" lon="5.72503">
        <ele>918</ele>
        <time>2019-10-16T14:24:08Z</time>
      </trkpt>
      <trkpt lat="43.31475" lon="5.72501">
        <ele>918</ele>
        <time>2019-10-16T14:24:16Z</time>
      </trkpt>
      <trkpt lat="43.31476" lon="5.72495">
        <ele>914</ele>
        <time>2019-10-16T14:24:26Z</time>
      </trkpt>
      <trkpt lat="43.31471" lon="5.7249">
        <ele>910</ele>
        <time>2019-10-16T14:24:42Z</time>
      </trkpt>
      <trkpt lat="43.31467" lon="5.72487">
        <ele>906</ele>
        <time>2019-10-16T14:24:50Z</time>
      </trkpt>
      <trkpt lat="43.31463" lon="5.72483">
        <ele>905</ele>
        <time>2019-10-16T14:24:58Z</time>
      </trkpt>
      <trkpt lat="43.31461" lon="5.72478">
        <ele>905</ele>
        <time>2019-10-16T14:25:06Z</time>
      </trkpt>
      <trkpt lat="43.3146" lon="5.72471">
        <ele>904</ele>
        <time>2019-10-16T14:25:14Z</time>
      </trkpt>
      <trkpt lat="43.31461" lon="5.72464">
        <ele>906</ele>
        <time>2019-10-16T14:27:14Z</time>
      </trkpt>
      <trkpt lat="43.31458" lon="5.72457">
        <ele>902</ele>
        <time>2019-10-16T14:27:22Z</time>
      </trkpt>
      <trkpt lat="43.31455" lon="5.72451">
        <ele>900</ele>
        <time>2019-10-16T14:27:30Z</time>
      </trkpt>
      <trkpt lat="43.31451" lon="5.72449">
        <ele>896</ele>
        <time>2019-10-16T14:27:40Z</time>
      </trkpt>
      <trkpt lat="43.31447" lon="5.72443">
        <ele>895</ele>
        <time>2019-10-16T14:27:48Z</time>
      </trkpt>
      <trkpt lat="43.31445" lon="5.72436">
        <ele>894</ele>
        <time>2019-10-16T14:27:56Z</time>
      </trkpt>
      <trkpt lat="43.31442" lon="5.72431">
        <ele>891</ele>
        <time>2019-10-16T14:28:02Z</time>
      </trkpt>
      <trkpt lat="43.31439" lon="5.72426">
        <ele>889</ele>
        <time>2019-10-16T14:28:08Z</time>
      </trkpt>
      <trkpt lat="43.31438" lon="5.72419">
        <ele>889</ele>
        <time>2019-10-16T14:28:18Z</time>
      </trkpt>
      <trkpt lat="43.31434" lon="5.72413">
        <ele>890</ele>
        <time>2019-10-16T14:28:24Z</time>
      </trkpt>
      <trkpt lat="43.31432" lon="5.72407">
        <ele>889</ele>
        <time>2019-10-16T14:28:30Z</time>
      </trkpt>
      <trkpt lat="43.31429" lon="5.72403">
        <ele>889</ele>
        <time>2019-10-16T14:28:36Z</time>
      </trkpt>
      <trkpt lat="43.31425" lon="5.724">
        <ele>887</ele>
        <time>2019-10-16T14:28:44Z</time>
      </trkpt>
      <trkpt lat="43.31419" lon="5.72399">
        <ele>880</ele>
        <time>2019-10-16T14:29:00Z</time>
      </trkpt>
      <trkpt lat="43.31414" lon="5.724">
        <ele>880</ele>
        <time>2019-10-16T14:29:06Z</time>
      </trkpt>
      <trkpt lat="43.31409" lon="5.72402">
        <ele>881</ele>
        <time>2019-10-16T14:29:12Z</time>
      </trkpt>
      <trkpt lat="43.31404" lon="5.72401">
        <ele>882</ele>
        <time>2019-10-16T14:29:20Z</time>
      </trkpt>
      <trkpt lat="43.314" lon="5.72405">
        <ele>881</ele>
        <time>2019-10-16T14:29:26Z</time>
      </trkpt>
      <trkpt lat="43.31394" lon="5.72406">
        <ele>879</ele>
        <time>2019-10-16T14:29:36Z</time>
      </trkpt>
      <trkpt lat="43.3139" lon="5.7241">
        <ele>876</ele>
        <time>2019-10-16T14:29:44Z</time>
      </trkpt>
      <trkpt lat="43.31385" lon="5.72411">
        <ele>876</ele>
        <time>2019-10-16T14:29:52Z</time>
      </trkpt>
      <trkpt lat="43.31381" lon="5.72412">
        <ele>876</ele>
        <time>2019-10-16T14:30:00Z</time>
      </trkpt>
      <trkpt lat="43.31376" lon="5.72416">
        <ele>872</ele>
        <time>2019-10-16T14:30:08Z</time>
      </trkpt>
      <trkpt lat="43.31371" lon="5.72418">
        <ele>869</ele>
        <time>2019-10-16T14:30:22Z</time>
      </trkpt>
      <trkpt lat="43.31366" lon="5.72415">
        <ele>867</ele>
        <time>2019-10-16T14:36:40Z</time>
      </trkpt>
      <trkpt lat="43.31361" lon="5.72414">
        <ele>863</ele>
        <time>2019-10-16T14:36:48Z</time>
      </trkpt>
      <trkpt lat="43.31357" lon="5.72417">
        <ele>860</ele>
        <time>2019-10-16T14:36:54Z</time>
      </trkpt>
      <trkpt lat="43.31352" lon="5.72419">
        <ele>858</ele>
        <time>2019-10-16T14:37:02Z</time>
      </trkpt>
      <trkpt lat="43.31346" lon="5.72415">
        <ele>855</ele>
        <time>2019-10-16T14:37:10Z</time>
      </trkpt>
      <trkpt lat="43.31341" lon="5.72415">
        <ele>856</ele>
        <time>2019-10-16T14:37:18Z</time>
      </trkpt>
      <trkpt lat="43.31336" lon="5.72414">
        <ele>853</ele>
        <time>2019-10-16T14:37:28Z</time>
      </trkpt>
      <trkpt lat="43.31332" lon="5.72409">
        <ele>850</ele>
        <time>2019-10-16T14:37:34Z</time>
      </trkpt>
      <trkpt lat="43.31327" lon="5.72405">
        <ele>851</ele>
        <time>2019-10-16T14:37:40Z</time>
      </trkpt>
      <trkpt lat="43.31322" lon="5.72403">
        <ele>850</ele>
        <time>2019-10-16T14:37:46Z</time>
      </trkpt>
      <trkpt lat="43.31316" lon="5.72404">
        <ele>849</ele>
        <time>2019-10-16T14:37:52Z</time>
      </trkpt>
      <trkpt lat="43.31311" lon="5.72401">
        <ele>851</ele>
        <time>2019-10-16T14:37:58Z</time>
      </trkpt>
      <trkpt lat="43.31305" lon="5.72401">
        <ele>847</ele>
        <time>2019-10-16T14:38:04Z</time>
      </trkpt>
      <trkpt lat="43.313" lon="5.72402">
        <ele>846</ele>
        <time>2019-10-16T14:38:10Z</time>
      </trkpt>
      <trkpt lat="43.31296" lon="5.72401">
        <ele>844</ele>
        <time>2019-10-16T14:38:14Z</time>
      </trkpt>
      <trkpt lat="43.31289" lon="5.72403">
        <ele>843</ele>
        <time>2019-10-16T14:38:22Z</time>
      </trkpt>
      <trkpt lat="43.31284" lon="5.72405">
        <ele>844</ele>
        <time>2019-10-16T14:38:28Z</time>
      </trkpt>
      <trkpt lat="43.31279" lon="5.72409">
        <ele>841</ele>
        <time>2019-10-16T14:38:34Z</time>
      </trkpt>
      <trkpt lat="43.31274" lon="5.72412">
        <ele>835</ele>
        <time>2019-10-16T14:38:42Z</time>
      </trkpt>
      <trkpt lat="43.31268" lon="5.72414">
        <ele>835</ele>
        <time>2019-10-16T14:38:48Z</time>
      </trkpt>
      <trkpt lat="43.31264" lon="5.72416">
        <ele>835</ele>
        <time>2019-10-16T14:38:52Z</time>
      </trkpt>
      <trkpt lat="43.31258" lon="5.72418">
        <ele>835</ele>
        <time>2019-10-16T14:38:58Z</time>
      </trkpt>
      <trkpt lat="43.31253" lon="5.72421">
        <ele>833</ele>
        <time>2019-10-16T14:39:04Z</time>
      </trkpt>
      <trkpt lat="43.31249" lon="5.72424">
        <ele>832</ele>
        <time>2019-10-16T14:39:12Z</time>
      </trkpt>
      <trkpt lat="43.31244" lon="5.72425">
        <ele>832</ele>
        <time>2019-10-16T14:39:28Z</time>
      </trkpt>
      <trkpt lat="43.31239" lon="5.72425">
        <ele>830</ele>
        <time>2019-10-16T14:39:34Z</time>
      </trkpt>
      <trkpt lat="43.31235" lon="5.72427">
        <ele>827</ele>
        <time>2019-10-16T14:39:54Z</time>
      </trkpt>
      <trkpt lat="43.3123" lon="5.72429">
        <ele>828</ele>
        <time>2019-10-16T14:40:48Z</time>
      </trkpt>
      <trkpt lat="43.31224" lon="5.72432">
        <ele>829</ele>
        <time>2019-10-16T14:40:54Z</time>
      </trkpt>
      <trkpt lat="43.31219" lon="5.72432">
        <ele>828</ele>
        <time>2019-10-16T14:41:00Z</time>
      </trkpt>
      <trkpt lat="43.31215" lon="5.7243">
        <ele>826</ele>
        <time>2019-10-16T14:41:08Z</time>
      </trkpt>
      <trkpt lat="43.3121" lon="5.72429">
        <ele>825</ele>
        <time>2019-10-16T14:41:14Z</time>
      </trkpt>
      <trkpt lat="43.31205" lon="5.7243">
        <ele>826</ele>
        <time>2019-10-16T14:41:20Z</time>
      </trkpt>
      <trkpt lat="43.31199" lon="5.7243">
        <ele>826</ele>
        <time>2019-10-16T14:41:28Z</time>
      </trkpt>
      <trkpt lat="43.31194" lon="5.72429">
        <ele>822</ele>
        <time>2019-10-16T14:41:34Z</time>
      </trkpt>
      <trkpt lat="43.31189" lon="5.72427">
        <ele>819</ele>
        <time>2019-10-16T14:41:42Z</time>
      </trkpt>
      <trkpt lat="43.31183" lon="5.72426">
        <ele>819</ele>
        <time>2019-10-16T14:41:50Z</time>
      </trkpt>
      <trkpt lat="43.31177" lon="5.72426">
        <ele>818</ele>
        <time>2019-10-16T14:41:56Z</time>
      </trkpt>
      <trkpt lat="43.31172" lon="5.72425">
        <ele>816</ele>
        <time>2019-10-16T14:42:02Z</time>
      </trkpt>
      <trkpt lat="43.31166" lon="5.72423">
        <ele>817</ele>
        <time>2019-10-16T14:42:08Z</time>
      </trkpt>
      <trkpt lat="43.31162" lon="5.72422">
        <ele>815</ele>
        <time>2019-10-16T14:42:12Z</time>
      </trkpt>
      <trkpt lat="43.31156" lon="5.72422">
        <ele>811</ele>
        <time>2019-10-16T14:42:16Z</time>
      </trkpt>
      <trkpt lat="43.31151" lon="5.72423">
        <ele>814</ele>
        <time>2019-10-16T14:42:22Z</time>
      </trkpt>
      <trkpt lat="43.31145" lon="5.72423">
        <ele>815</ele>
        <time>2019-10-16T14:42:28Z</time>
      </trkpt>
      <trkpt lat="43.3114" lon="5.72423">
        <ele>814</ele>
        <time>2019-10-16T14:42:32Z</time>
      </trkpt>
      <trkpt lat="43.31135" lon="5.72423">
        <ele>814</ele>
        <time>2019-10-16T14:42:38Z</time>
      </trkpt>
      <trkpt lat="43.31128" lon="5.72421">
        <ele>813</ele>
        <time>2019-10-16T14:42:46Z</time>
      </trkpt>
      <trkpt lat="43.31122" lon="5.72422">
        <ele>813</ele>
        <time>2019-10-16T14:42:52Z</time>
      </trkpt>
      <trkpt lat="43.31117" lon="5.72423">
        <ele>810</ele>
        <time>2019-10-16T14:42:56Z</time>
      </trkpt>
      <trkpt lat="43.31111" lon="5.72427">
        <ele>811</ele>
        <time>2019-10-16T14:43:00Z</time>
      </trkpt>
      <trkpt lat="43.31106" lon="5.72428">
        <ele>809</ele>
        <time>2019-10-16T14:43:04Z</time>
      </trkpt>
      <trkpt lat="43.31101" lon="5.72426">
        <ele>809</ele>
        <time>2019-10-16T14:43:10Z</time>
      </trkpt>
      <trkpt lat="43.31096" lon="5.72425">
        <ele>809</ele>
        <time>2019-10-16T14:43:14Z</time>
      </trkpt>
      <trkpt lat="43.31091" lon="5.72424">
        <ele>808</ele>
        <time>2019-10-16T14:43:20Z</time>
      </trkpt>
      <trkpt lat="43.31086" lon="5.72424">
        <ele>808</ele>
        <time>2019-10-16T14:43:26Z</time>
      </trkpt>
      <trkpt lat="43.31082" lon="5.72421">
        <ele>806</ele>
        <time>2019-10-16T14:43:32Z</time>
      </trkpt>
      <trkpt lat="43.31078" lon="5.72415">
        <ele>805</ele>
        <time>2019-10-16T14:43:38Z</time>
      </trkpt>
      <trkpt lat="43.31072" lon="5.72414">
        <ele>802</ele>
        <time>2019-10-16T14:43:48Z</time>
      </trkpt>
      <trkpt lat="43.31067" lon="5.72411">
        <ele>802</ele>
        <time>2019-10-16T14:44:20Z</time>
      </trkpt>
      <trkpt lat="43.31065" lon="5.72405">
        <ele>801</ele>
        <time>2019-10-16T14:45:20Z</time>
      </trkpt>
      <trkpt lat="43.31063" lon="5.72398">
        <ele>801</ele>
        <time>2019-10-16T14:46:00Z</time>
      </trkpt>
      <trkpt lat="43.31061" lon="5.72392">
        <ele>800</ele>
        <time>2019-10-16T14:46:28Z</time>
      </trkpt>
      <trkpt lat="43.31058" lon="5.72387">
        <ele>799</ele>
        <time>2019-10-16T14:46:32Z</time>
      </trkpt>
      <trkpt lat="43.31054" lon="5.72382">
        <ele>798</ele>
        <time>2019-10-16T14:46:38Z</time>
      </trkpt>
      <trkpt lat="43.31051" lon="5.72377">
        <ele>796</ele>
        <time>2019-10-16T14:46:50Z</time>
      </trkpt>
      <trkpt lat="43.31048" lon="5.72371">
        <ele>795</ele>
        <time>2019-10-16T14:46:56Z</time>
      </trkpt>
      <trkpt lat="43.31043" lon="5.72368">
        <ele>794</ele>
        <time>2019-10-16T14:47:02Z</time>
      </trkpt>
      <trkpt lat="43.31039" lon="5.72365">
        <ele>792</ele>
        <time>2019-10-16T14:47:06Z</time>
      </trkpt>
      <trkpt lat="43.31036" lon="5.72359">
        <ele>791</ele>
        <time>2019-10-16T14:47:12Z</time>
      </trkpt>
      <trkpt lat="43.31033" lon="5.72352">
        <ele>790</ele>
        <time>2019-10-16T14:47:20Z</time>
      </trkpt>
      <trkpt lat="43.31029" lon="5.72348">
        <ele>788</ele>
        <time>2019-10-16T14:47:26Z</time>
      </trkpt>
      <trkpt lat="43.31026" lon="5.72343">
        <ele>788</ele>
        <time>2019-10-16T14:47:32Z</time>
      </trkpt>
      <trkpt lat="43.31022" lon="5.72337">
        <ele>787</ele>
        <time>2019-10-16T14:47:40Z</time>
      </trkpt>
      <trkpt lat="43.31018" lon="5.72333">
        <ele>786</ele>
        <time>2019-10-16T14:47:46Z</time>
      </trkpt>
      <trkpt lat="43.31014" lon="5.72328">
        <ele>785</ele>
        <time>2019-10-16T14:47:54Z</time>
      </trkpt>
      <trkpt lat="43.31011" lon="5.72322">
        <ele>781</ele>
        <time>2019-10-16T14:48:00Z</time>
      </trkpt>
      <trkpt lat="43.31007" lon="5.72318">
        <ele>782</ele>
        <time>2019-10-16T14:48:30Z</time>
      </trkpt>
      <trkpt lat="43.31002" lon="5.72317">
        <ele>785</ele>
        <time>2019-10-16T14:50:46Z</time>
      </trkpt>
      <trkpt lat="43.30997" lon="5.72317">
        <ele>785</ele>
        <time>2019-10-16T14:53:20Z</time>
      </trkpt>
      <trkpt lat="43.30992" lon="5.72315">
        <ele>784</ele>
        <time>2019-10-16T14:53:28Z</time>
      </trkpt>
      <trkpt lat="43.30986" lon="5.72313">
        <ele>785</ele>
        <time>2019-10-16T14:53:36Z</time>
      </trkpt>
      <trkpt lat="43.3098" lon="5.72308">
        <ele>786</ele>
        <time>2019-10-16T14:53:42Z</time>
      </trkpt>
      <trkpt lat="43.30975" lon="5.72304">
        <ele>787</ele>
        <time>2019-10-16T14:53:48Z</time>
      </trkpt>
      <trkpt lat="43.3097" lon="5.723">
        <ele>784</ele>
        <time>2019-10-16T14:53:54Z</time>
      </trkpt>
      <trkpt lat="43.30966" lon="5.72296">
        <ele>780</ele>
        <time>2019-10-16T14:54:02Z</time>
      </trkpt>
      <trkpt lat="43.3096" lon="5.72291">
        <ele>782</ele>
        <time>2019-10-16T14:54:08Z</time>
      </trkpt>
      <trkpt lat="43.30956" lon="5.72289">
        <ele>783</ele>
        <time>2019-10-16T14:54:12Z</time>
      </trkpt>
      <trkpt lat="43.30949" lon="5.72287">
        <ele>784</ele>
        <time>2019-10-16T14:54:18Z</time>
      </trkpt>
      <trkpt lat="43.30945" lon="5.72285">
        <ele>783</ele>
        <time>2019-10-16T14:54:22Z</time>
      </trkpt>
      <trkpt lat="43.30938" lon="5.72284">
        <ele>781</ele>
        <time>2019-10-16T14:54:28Z</time>
      </trkpt>
      <trkpt lat="43.30931" lon="5.72283">
        <ele>779</ele>
        <time>2019-10-16T14:54:34Z</time>
      </trkpt>
      <trkpt lat="43.30925" lon="5.72281">
        <ele>779</ele>
        <time>2019-10-16T14:54:40Z</time>
      </trkpt>
      <trkpt lat="43.30919" lon="5.72282">
        <ele>780</ele>
        <time>2019-10-16T14:54:46Z</time>
      </trkpt>
      <trkpt lat="43.30914" lon="5.72281">
        <ele>781</ele>
        <time>2019-10-16T14:54:50Z</time>
      </trkpt>
      <trkpt lat="43.30909" lon="5.72281">
        <ele>779</ele>
        <time>2019-10-16T14:54:54Z</time>
      </trkpt>
      <trkpt lat="43.30904" lon="5.7228">
        <ele>780</ele>
        <time>2019-10-16T14:54:58Z</time>
      </trkpt>
      <trkpt lat="43.30899" lon="5.72281">
        <ele>777</ele>
        <time>2019-10-16T14:55:02Z</time>
      </trkpt>
      <trkpt lat="43.30893" lon="5.7228">
        <ele>778</ele>
        <time>2019-10-16T14:55:08Z</time>
      </trkpt>
      <trkpt lat="43.30888" lon="5.7228">
        <ele>777</ele>
        <time>2019-10-16T14:55:12Z</time>
      </trkpt>
      <trkpt lat="43.30883" lon="5.72281">
        <ele>777</ele>
        <time>2019-10-16T14:55:16Z</time>
      </trkpt>
      <trkpt lat="43.30877" lon="5.7228">
        <ele>776</ele>
        <time>2019-10-16T14:55:22Z</time>
      </trkpt>
      <trkpt lat="43.30871" lon="5.72279">
        <ele>777</ele>
        <time>2019-10-16T14:55:28Z</time>
      </trkpt>
      <trkpt lat="43.30865" lon="5.72278">
        <ele>777</ele>
        <time>2019-10-16T14:55:34Z</time>
      </trkpt>
      <trkpt lat="43.3086" lon="5.72278">
        <ele>777</ele>
        <time>2019-10-16T14:55:40Z</time>
      </trkpt>
      <trkpt lat="43.30854" lon="5.72278">
        <ele>777</ele>
        <time>2019-10-16T14:55:46Z</time>
      </trkpt>
      <trkpt lat="43.30849" lon="5.72278">
        <ele>778</ele>
        <time>2019-10-16T14:55:50Z</time>
      </trkpt>
      <trkpt lat="43.30844" lon="5.7228">
        <ele>777</ele>
        <time>2019-10-16T14:55:54Z</time>
      </trkpt>
      <trkpt lat="43.30837" lon="5.72279">
        <ele>777</ele>
        <time>2019-10-16T14:56:00Z</time>
      </trkpt>
      <trkpt lat="43.30833" lon="5.72279">
        <ele>775</ele>
        <time>2019-10-16T14:56:04Z</time>
      </trkpt>
      <trkpt lat="43.30827" lon="5.7228">
        <ele>774</ele>
        <time>2019-10-16T14:56:10Z</time>
      </trkpt>
      <trkpt lat="43.30822" lon="5.72281">
        <ele>773</ele>
        <time>2019-10-16T14:56:14Z</time>
      </trkpt>
      <trkpt lat="43.30817" lon="5.72281">
        <ele>773</ele>
        <time>2019-10-16T14:56:20Z</time>
      </trkpt>
      <trkpt lat="43.30812" lon="5.72286">
        <ele>771</ele>
        <time>2019-10-16T14:56:24Z</time>
      </trkpt>
      <trkpt lat="43.30806" lon="5.72288">
        <ele>773</ele>
        <time>2019-10-16T14:56:30Z</time>
      </trkpt>
      <trkpt lat="43.30801" lon="5.72289">
        <ele>773</ele>
        <time>2019-10-16T14:56:34Z</time>
      </trkpt>
      <trkpt lat="43.30796" lon="5.72292">
        <ele>774</ele>
        <time>2019-10-16T14:56:38Z</time>
      </trkpt>
      <trkpt lat="43.30792" lon="5.72296">
        <ele>774</ele>
        <time>2019-10-16T14:56:42Z</time>
      </trkpt>
      <trkpt lat="43.30787" lon="5.723">
        <ele>773</ele>
        <time>2019-10-16T14:56:46Z</time>
      </trkpt>
      <trkpt lat="43.3078" lon="5.72304">
        <ele>772</ele>
        <time>2019-10-16T14:56:52Z</time>
      </trkpt>
      <trkpt lat="43.30775" lon="5.72308">
        <ele>772</ele>
        <time>2019-10-16T14:56:58Z</time>
      </trkpt>
      <trkpt lat="43.30769" lon="5.72313">
        <ele>772</ele>
        <time>2019-10-16T14:57:04Z</time>
      </trkpt>
      <trkpt lat="43.30766" lon="5.72319">
        <ele>771</ele>
        <time>2019-10-16T14:57:08Z</time>
      </trkpt>
      <trkpt lat="43.3076" lon="5.72324">
        <ele>770</ele>
        <time>2019-10-16T14:57:14Z</time>
      </trkpt>
      <trkpt lat="43.30756" lon="5.72329">
        <ele>771</ele>
        <time>2019-10-16T14:57:18Z</time>
      </trkpt>
      <trkpt lat="43.3075" lon="5.72335">
        <ele>770</ele>
        <time>2019-10-16T14:57:24Z</time>
      </trkpt>
      <trkpt lat="43.30747" lon="5.7234">
        <ele>769</ele>
        <time>2019-10-16T14:57:28Z</time>
      </trkpt>
      <trkpt lat="43.30745" lon="5.72345">
        <ele>768</ele>
        <time>2019-10-16T14:57:32Z</time>
      </trkpt>
      <trkpt lat="43.30741" lon="5.72349">
        <ele>768</ele>
        <time>2019-10-16T14:57:36Z</time>
      </trkpt>
      <trkpt lat="43.30737" lon="5.72357">
        <ele>767</ele>
        <time>2019-10-16T14:57:42Z</time>
      </trkpt>
      <trkpt lat="43.30734" lon="5.72362">
        <ele>767</ele>
        <time>2019-10-16T14:57:46Z</time>
      </trkpt>
      <trkpt lat="43.30732" lon="5.72369">
        <ele>765</ele>
        <time>2019-10-16T14:57:50Z</time>
      </trkpt>
      <trkpt lat="43.30731" lon="5.72376">
        <ele>763</ele>
        <time>2019-10-16T14:57:54Z</time>
      </trkpt>
      <trkpt lat="43.30729" lon="5.72383">
        <ele>763</ele>
        <time>2019-10-16T14:57:58Z</time>
      </trkpt>
      <trkpt lat="43.30728" lon="5.72389">
        <ele>763</ele>
        <time>2019-10-16T14:58:02Z</time>
      </trkpt>
      <trkpt lat="43.30726" lon="5.72397">
        <ele>763</ele>
        <time>2019-10-16T14:58:08Z</time>
      </trkpt>
      <trkpt lat="43.30725" lon="5.72407">
        <ele>762</ele>
        <time>2019-10-16T14:58:14Z</time>
      </trkpt>
      <trkpt lat="43.30726" lon="5.72413">
        <ele>761</ele>
        <time>2019-10-16T14:58:18Z</time>
      </trkpt>
      <trkpt lat="43.30726" lon="5.72421">
        <ele>762</ele>
        <time>2019-10-16T14:58:22Z</time>
      </trkpt>
      <trkpt lat="43.30724" lon="5.72428">
        <ele>762</ele>
        <time>2019-10-16T14:58:26Z</time>
      </trkpt>
      <trkpt lat="43.30723" lon="5.72435">
        <ele>761</ele>
        <time>2019-10-16T14:58:30Z</time>
      </trkpt>
      <trkpt lat="43.30723" lon="5.72442">
        <ele>761</ele>
        <time>2019-10-16T14:58:34Z</time>
      </trkpt>
      <trkpt lat="43.30723" lon="5.72449">
        <ele>761</ele>
        <time>2019-10-16T14:58:38Z</time>
      </trkpt>
      <trkpt lat="43.30723" lon="5.72455">
        <ele>760</ele>
        <time>2019-10-16T14:58:42Z</time>
      </trkpt>
      <trkpt lat="43.3072" lon="5.72463">
        <ele>762</ele>
        <time>2019-10-16T14:58:48Z</time>
      </trkpt>
      <trkpt lat="43.30719" lon="5.72472">
        <ele>763</ele>
        <time>2019-10-16T14:58:54Z</time>
      </trkpt>
      <trkpt lat="43.3072" lon="5.72478">
        <ele>763</ele>
        <time>2019-10-16T14:58:58Z</time>
      </trkpt>
      <trkpt lat="43.3072" lon="5.72485">
        <ele>764</ele>
        <time>2019-10-16T14:59:02Z</time>
      </trkpt>
      <trkpt lat="43.30717" lon="5.72493">
        <ele>765</ele>
        <time>2019-10-16T14:59:08Z</time>
      </trkpt>
      <trkpt lat="43.30714" lon="5.725">
        <ele>762</ele>
        <time>2019-10-16T14:59:14Z</time>
      </trkpt>
      <trkpt lat="43.30713" lon="5.72506">
        <ele>761</ele>
        <time>2019-10-16T14:59:18Z</time>
      </trkpt>
      <trkpt lat="43.30711" lon="5.72515">
        <ele>762</ele>
        <time>2019-10-16T14:59:24Z</time>
      </trkpt>
      <trkpt lat="43.30711" lon="5.72524">
        <ele>759</ele>
        <time>2019-10-16T14:59:30Z</time>
      </trkpt>
      <trkpt lat="43.3071" lon="5.72531">
        <ele>759</ele>
        <time>2019-10-16T14:59:38Z</time>
      </trkpt>
      <trkpt lat="43.30708" lon="5.72539">
        <ele>758</ele>
        <time>2019-10-16T14:59:44Z</time>
      </trkpt>
      <trkpt lat="43.30706" lon="5.72545">
        <ele>758</ele>
        <time>2019-10-16T14:59:48Z</time>
      </trkpt>
      <trkpt lat="43.30704" lon="5.72551">
        <ele>759</ele>
        <time>2019-10-16T14:59:52Z</time>
      </trkpt>
      <trkpt lat="43.30703" lon="5.7256">
        <ele>759</ele>
        <time>2019-10-16T14:59:58Z</time>
      </trkpt>
      <trkpt lat="43.307" lon="5.72564">
        <ele>757</ele>
        <time>2019-10-16T15:00:02Z</time>
      </trkpt>
      <trkpt lat="43.307" lon="5.7257">
        <ele>757</ele>
        <time>2019-10-16T15:00:06Z</time>
      </trkpt>
      <trkpt lat="43.30698" lon="5.72577">
        <ele>756</ele>
        <time>2019-10-16T15:00:10Z</time>
      </trkpt>
      <trkpt lat="43.30694" lon="5.72584">
        <ele>756</ele>
        <time>2019-10-16T15:00:16Z</time>
      </trkpt>
      <trkpt lat="43.30695" lon="5.72593">
        <ele>754</ele>
        <time>2019-10-16T15:00:22Z</time>
      </trkpt>
      <trkpt lat="43.30696" lon="5.72599">
        <ele>754</ele>
        <time>2019-10-16T15:00:26Z</time>
      </trkpt>
      <trkpt lat="43.30696" lon="5.72607">
        <ele>754</ele>
        <time>2019-10-16T15:00:30Z</time>
      </trkpt>
      <trkpt lat="43.30696" lon="5.72613">
        <ele>754</ele>
        <time>2019-10-16T15:00:34Z</time>
      </trkpt>
      <trkpt lat="43.30694" lon="5.7262">
        <ele>753</ele>
        <time>2019-10-16T15:00:38Z</time>
      </trkpt>
      <trkpt lat="43.30694" lon="5.72626">
        <ele>753</ele>
        <time>2019-10-16T15:00:42Z</time>
      </trkpt>
      <trkpt lat="43.30695" lon="5.72632">
        <ele>753</ele>
        <time>2019-10-16T15:00:46Z</time>
      </trkpt>
      <trkpt lat="43.30695" lon="5.72639">
        <ele>753</ele>
        <time>2019-10-16T15:00:50Z</time>
      </trkpt>
      <trkpt lat="43.30695" lon="5.72646">
        <ele>752</ele>
        <time>2019-10-16T15:00:54Z</time>
      </trkpt>
      <trkpt lat="43.30695" lon="5.72655">
        <ele>752</ele>
        <time>2019-10-16T15:01:00Z</time>
      </trkpt>
      <trkpt lat="43.30696" lon="5.72661">
        <ele>751</ele>
        <time>2019-10-16T15:01:04Z</time>
      </trkpt>
      <trkpt lat="43.307" lon="5.72667">
        <ele>751</ele>
        <time>2019-10-16T15:01:08Z</time>
      </trkpt>
      <trkpt lat="43.30702" lon="5.72673">
        <ele>750</ele>
        <time>2019-10-16T15:01:12Z</time>
      </trkpt>
      <trkpt lat="43.30707" lon="5.7268">
        <ele>749</ele>
        <time>2019-10-16T15:01:18Z</time>
      </trkpt>
      <trkpt lat="43.30708" lon="5.72688">
        <ele>749</ele>
        <time>2019-10-16T15:01:24Z</time>
      </trkpt>
      <trkpt lat="43.30708" lon="5.72695">
        <ele>749</ele>
        <time>2019-10-16T15:01:28Z</time>
      </trkpt>
      <trkpt lat="43.30708" lon="5.72704">
        <ele>749</ele>
        <time>2019-10-16T15:01:34Z</time>
      </trkpt>
      <trkpt lat="43.30709" lon="5.72712">
        <ele>747</ele>
        <time>2019-10-16T15:01:40Z</time>
      </trkpt>
      <trkpt lat="43.30709" lon="5.72721">
        <ele>747</ele>
        <time>2019-10-16T15:01:46Z</time>
      </trkpt>
      <trkpt lat="43.30707" lon="5.7273">
        <ele>748</ele>
        <time>2019-10-16T15:01:52Z</time>
      </trkpt>
      <trkpt lat="43.30709" lon="5.72738">
        <ele>747</ele>
        <time>2019-10-16T15:01:58Z</time>
      </trkpt>
      <trkpt lat="43.30711" lon="5.72745">
        <ele>744</ele>
        <time>2019-10-16T15:02:02Z</time>
      </trkpt>
      <trkpt lat="43.3071" lon="5.72753">
        <ele>743</ele>
        <time>2019-10-16T15:02:08Z</time>
      </trkpt>
      <trkpt lat="43.3071" lon="5.72761">
        <ele>743</ele>
        <time>2019-10-16T15:02:14Z</time>
      </trkpt>
      <trkpt lat="43.30712" lon="5.72768">
        <ele>743</ele>
        <time>2019-10-16T15:02:18Z</time>
      </trkpt>
      <trkpt lat="43.30712" lon="5.72775">
        <ele>744</ele>
        <time>2019-10-16T15:02:24Z</time>
      </trkpt>
      <trkpt lat="43.30712" lon="5.72781">
        <ele>743</ele>
        <time>2019-10-16T15:02:28Z</time>
      </trkpt>
      <trkpt lat="43.30715" lon="5.72789">
        <ele>739</ele>
        <time>2019-10-16T15:02:34Z</time>
      </trkpt>
      <trkpt lat="43.30715" lon="5.72795">
        <ele>738</ele>
        <time>2019-10-16T15:02:38Z</time>
      </trkpt>
      <trkpt lat="43.30717" lon="5.72801">
        <ele>737</ele>
        <time>2019-10-16T15:02:42Z</time>
      </trkpt>
      <trkpt lat="43.30719" lon="5.72809">
        <ele>737</ele>
        <time>2019-10-16T15:02:48Z</time>
      </trkpt>
      <trkpt lat="43.30721" lon="5.72817">
        <ele>737</ele>
        <time>2019-10-16T15:02:54Z</time>
      </trkpt>
      <trkpt lat="43.30723" lon="5.72823">
        <ele>735</ele>
        <time>2019-10-16T15:02:58Z</time>
      </trkpt>
      <trkpt lat="43.30726" lon="5.72829">
        <ele>733</ele>
        <time>2019-10-16T15:03:02Z</time>
      </trkpt>
      <trkpt lat="43.30729" lon="5.72833">
        <ele>733</ele>
        <time>2019-10-16T15:03:06Z</time>
      </trkpt>
      <trkpt lat="43.30732" lon="5.72839">
        <ele>733</ele>
        <time>2019-10-16T15:03:10Z</time>
      </trkpt>
      <trkpt lat="43.30736" lon="5.72845">
        <ele>732</ele>
        <time>2019-10-16T15:03:16Z</time>
      </trkpt>
      <trkpt lat="43.30739" lon="5.72853">
        <ele>731</ele>
        <time>2019-10-16T15:03:22Z</time>
      </trkpt>
      <trkpt lat="43.30741" lon="5.72861">
        <ele>732</ele>
        <time>2019-10-16T15:03:28Z</time>
      </trkpt>
      <trkpt lat="43.30745" lon="5.72869">
        <ele>731</ele>
        <time>2019-10-16T15:03:34Z</time>
      </trkpt>
      <trkpt lat="43.30748" lon="5.72874">
        <ele>729</ele>
        <time>2019-10-16T15:03:38Z</time>
      </trkpt>
      <trkpt lat="43.30751" lon="5.72882">
        <ele>728</ele>
        <time>2019-10-16T15:03:44Z</time>
      </trkpt>
      <trkpt lat="43.30753" lon="5.7289">
        <ele>729</ele>
        <time>2019-10-16T15:03:50Z</time>
      </trkpt>
      <trkpt lat="43.30756" lon="5.72898">
        <ele>728</ele>
        <time>2019-10-16T15:03:56Z</time>
      </trkpt>
      <trkpt lat="43.3076" lon="5.72902">
        <ele>726</ele>
        <time>2019-10-16T15:04:00Z</time>
      </trkpt>
      <trkpt lat="43.30765" lon="5.72909">
        <ele>724</ele>
        <time>2019-10-16T15:04:06Z</time>
      </trkpt>
      <trkpt lat="43.30768" lon="5.72913">
        <ele>723</ele>
        <time>2019-10-16T15:04:10Z</time>
      </trkpt>
      <trkpt lat="43.30773" lon="5.72916">
        <ele>723</ele>
        <time>2019-10-16T15:04:14Z</time>
      </trkpt>
      <trkpt lat="43.30777" lon="5.72918">
        <ele>722</ele>
        <time>2019-10-16T15:04:18Z</time>
      </trkpt>
      <trkpt lat="43.30781" lon="5.72922">
        <ele>722</ele>
        <time>2019-10-16T15:04:24Z</time>
      </trkpt>
      <trkpt lat="43.30786" lon="5.72926">
        <ele>722</ele>
        <time>2019-10-16T15:04:30Z</time>
      </trkpt>
      <trkpt lat="43.3079" lon="5.72928">
        <ele>722</ele>
        <time>2019-10-16T15:04:36Z</time>
      </trkpt>
      <trkpt lat="43.30796" lon="5.72928">
        <ele>720</ele>
        <time>2019-10-16T15:04:42Z</time>
      </trkpt>
      <trkpt lat="43.30802" lon="5.72928">
        <ele>718</ele>
        <time>2019-10-16T15:04:48Z</time>
      </trkpt>
      <trkpt lat="43.30808" lon="5.72928">
        <ele>715</ele>
        <time>2019-10-16T15:04:54Z</time>
      </trkpt>
      <trkpt lat="43.30812" lon="5.72928">
        <ele>714</ele>
        <time>2019-10-16T15:04:58Z</time>
      </trkpt>
      <trkpt lat="43.30818" lon="5.72928">
        <ele>713</ele>
        <time>2019-10-16T15:05:04Z</time>
      </trkpt>
      <trkpt lat="43.30824" lon="5.72927">
        <ele>711</ele>
        <time>2019-10-16T15:05:10Z</time>
      </trkpt>
      <trkpt lat="43.30829" lon="5.72927">
        <ele>710</ele>
        <time>2019-10-16T15:05:16Z</time>
      </trkpt>
      <trkpt lat="43.30835" lon="5.7293">
        <ele>708</ele>
        <time>2019-10-16T15:05:22Z</time>
      </trkpt>
      <trkpt lat="43.30841" lon="5.72929">
        <ele>708</ele>
        <time>2019-10-16T15:05:28Z</time>
      </trkpt>
      <trkpt lat="43.30847" lon="5.72928">
        <ele>708</ele>
        <time>2019-10-16T15:05:34Z</time>
      </trkpt>
      <trkpt lat="43.30851" lon="5.7293">
        <ele>707</ele>
        <time>2019-10-16T15:05:40Z</time>
      </trkpt>
      <trkpt lat="43.30856" lon="5.7293">
        <ele>710</ele>
        <time>2019-10-16T15:05:56Z</time>
      </trkpt>
      <trkpt lat="43.30851" lon="5.72932">
        <ele>716</ele>
        <time>2019-10-16T15:09:06Z</time>
      </trkpt>
      <trkpt lat="43.30845" lon="5.72934">
        <ele>717</ele>
        <time>2019-10-16T15:09:12Z</time>
      </trkpt>
      <trkpt lat="43.3084" lon="5.72937">
        <ele>717</ele>
        <time>2019-10-16T15:09:20Z</time>
      </trkpt>
      <trkpt lat="43.30836" lon="5.72942">
        <ele>716</ele>
        <time>2019-10-16T15:09:26Z</time>
      </trkpt>
      <trkpt lat="43.30832" lon="5.72946">
        <ele>715</ele>
        <time>2019-10-16T15:09:32Z</time>
      </trkpt>
      <trkpt lat="43.30827" lon="5.7295">
        <ele>709</ele>
        <time>2019-10-16T15:09:38Z</time>
      </trkpt>
      <trkpt lat="43.30824" lon="5.72955">
        <ele>707</ele>
        <time>2019-10-16T15:09:42Z</time>
      </trkpt>
      <trkpt lat="43.3082" lon="5.72959">
        <ele>709</ele>
        <time>2019-10-16T15:09:46Z</time>
      </trkpt>
      <trkpt lat="43.30814" lon="5.72961">
        <ele>708</ele>
        <time>2019-10-16T15:09:52Z</time>
      </trkpt>
      <trkpt lat="43.3081" lon="5.72963">
        <ele>708</ele>
        <time>2019-10-16T15:09:56Z</time>
      </trkpt>
      <trkpt lat="43.30808" lon="5.72968">
        <ele>708</ele>
        <time>2019-10-16T15:10:02Z</time>
      </trkpt>
      <trkpt lat="43.30803" lon="5.72973">
        <ele>710</ele>
        <time>2019-10-16T15:10:12Z</time>
      </trkpt>
      <trkpt lat="43.30798" lon="5.72976">
        <ele>709</ele>
        <time>2019-10-16T15:10:20Z</time>
      </trkpt>
      <trkpt lat="43.30793" lon="5.72979">
        <ele>709</ele>
        <time>2019-10-16T15:10:30Z</time>
      </trkpt>
      <trkpt lat="43.3079" lon="5.72983">
        <ele>707</ele>
        <time>2019-10-16T15:10:38Z</time>
      </trkpt>
      <trkpt lat="43.30787" lon="5.72988">
        <ele>706</ele>
        <time>2019-10-16T15:10:46Z</time>
      </trkpt>
      <trkpt lat="43.30782" lon="5.72991">
        <ele>707</ele>
        <time>2019-10-16T15:10:52Z</time>
      </trkpt>
      <trkpt lat="43.30778" lon="5.72995">
        <ele>706</ele>
        <time>2019-10-16T15:11:00Z</time>
      </trkpt>
      <trkpt lat="43.30774" lon="5.72999">
        <ele>702</ele>
        <time>2019-10-16T15:11:16Z</time>
      </trkpt>
      <trkpt lat="43.30771" lon="5.73005">
        <ele>704</ele>
        <time>2019-10-16T15:11:28Z</time>
      </trkpt>
      <trkpt lat="43.30766" lon="5.73008">
        <ele>705</ele>
        <time>2019-10-16T15:11:36Z</time>
      </trkpt>
      <trkpt lat="43.30762" lon="5.73012">
        <ele>704</ele>
        <time>2019-10-16T15:11:46Z</time>
      </trkpt>
      <trkpt lat="43.30759" lon="5.73018">
        <ele>704</ele>
        <time>2019-10-16T15:11:54Z</time>
      </trkpt>
      <trkpt lat="43.30754" lon="5.73022">
        <ele>702</ele>
        <time>2019-10-16T15:12:02Z</time>
      </trkpt>
      <trkpt lat="43.3075" lon="5.73025">
        <ele>704</ele>
        <time>2019-10-16T15:12:08Z</time>
      </trkpt>
      <trkpt lat="43.30746" lon="5.73027">
        <ele>705</ele>
        <time>2019-10-16T15:12:18Z</time>
      </trkpt>
      <trkpt lat="43.30741" lon="5.73032">
        <ele>703</ele>
        <time>2019-10-16T15:12:26Z</time>
      </trkpt>
      <trkpt lat="43.30737" lon="5.73037">
        <ele>700</ele>
        <time>2019-10-16T15:12:34Z</time>
      </trkpt>
      <trkpt lat="43.30734" lon="5.73043">
        <ele>697</ele>
        <time>2019-10-16T15:12:40Z</time>
      </trkpt>
      <trkpt lat="43.30731" lon="5.73049">
        <ele>690</ele>
        <time>2019-10-16T15:12:48Z</time>
      </trkpt>
      <trkpt lat="43.30728" lon="5.73055">
        <ele>692</ele>
        <time>2019-10-16T15:12:54Z</time>
      </trkpt>
      <trkpt lat="43.30724" lon="5.73059">
        <ele>690</ele>
        <time>2019-10-16T15:13:02Z</time>
      </trkpt>
      <trkpt lat="43.30722" lon="5.73066">
        <ele>688</ele>
        <time>2019-10-16T15:13:08Z</time>
      </trkpt>
      <trkpt lat="43.30721" lon="5.73072">
        <ele>686</ele>
        <time>2019-10-16T15:13:12Z</time>
      </trkpt>
      <trkpt lat="43.3072" lon="5.7308">
        <ele>687</ele>
        <time>2019-10-16T15:13:18Z</time>
      </trkpt>
      <trkpt lat="43.30718" lon="5.73087">
        <ele>688</ele>
        <time>2019-10-16T15:13:26Z</time>
      </trkpt>
      <trkpt lat="43.30713" lon="5.73092">
        <ele>685</ele>
        <time>2019-10-16T15:13:32Z</time>
      </trkpt>
      <trkpt lat="43.30709" lon="5.73093">
        <ele>685</ele>
        <time>2019-10-16T15:13:38Z</time>
      </trkpt>
      <trkpt lat="43.30705" lon="5.73097">
        <ele>686</ele>
        <time>2019-10-16T15:13:46Z</time>
      </trkpt>
      <trkpt lat="43.30703" lon="5.73104">
        <ele>685</ele>
        <time>2019-10-16T15:13:52Z</time>
      </trkpt>
      <trkpt lat="43.30703" lon="5.7311">
        <ele>679</ele>
        <time>2019-10-16T15:13:56Z</time>
      </trkpt>
      <trkpt lat="43.30704" lon="5.73117">
        <ele>678</ele>
        <time>2019-10-16T15:14:00Z</time>
      </trkpt>
      <trkpt lat="43.30707" lon="5.73124">
        <ele>673</ele>
        <time>2019-10-16T15:14:06Z</time>
      </trkpt>
      <trkpt lat="43.30709" lon="5.7313">
        <ele>674</ele>
        <time>2019-10-16T15:14:10Z</time>
      </trkpt>
      <trkpt lat="43.3071" lon="5.73136">
        <ele>675</ele>
        <time>2019-10-16T15:14:14Z</time>
      </trkpt>
      <trkpt lat="43.30714" lon="5.73141">
        <ele>676</ele>
        <time>2019-10-16T15:14:18Z</time>
      </trkpt>
      <trkpt lat="43.30717" lon="5.73149">
        <ele>675</ele>
        <time>2019-10-16T15:14:24Z</time>
      </trkpt>
      <trkpt lat="43.30717" lon="5.73155">
        <ele>677</ele>
        <time>2019-10-16T15:14:30Z</time>
      </trkpt>
      <trkpt lat="43.30712" lon="5.73159">
        <ele>682</ele>
        <time>2019-10-16T15:14:36Z</time>
      </trkpt>
      <trkpt lat="43.30707" lon="5.7316">
        <ele>684</ele>
        <time>2019-10-16T15:14:40Z</time>
      </trkpt>
      <trkpt lat="43.30702" lon="5.73164">
        <ele>681</ele>
        <time>2019-10-16T15:14:46Z</time>
      </trkpt>
      <trkpt lat="43.30697" lon="5.73169">
        <ele>680</ele>
        <time>2019-10-16T15:14:54Z</time>
      </trkpt>
      <trkpt lat="43.3069" lon="5.73172">
        <ele>679</ele>
        <time>2019-10-16T15:15:04Z</time>
      </trkpt>
      <trkpt lat="43.30685" lon="5.73176">
        <ele>676</ele>
        <time>2019-10-16T15:15:10Z</time>
      </trkpt>
      <trkpt lat="43.30681" lon="5.73181">
        <ele>676</ele>
        <time>2019-10-16T15:15:14Z</time>
      </trkpt>
      <trkpt lat="43.30682" lon="5.73188">
        <ele>674</ele>
        <time>2019-10-16T15:15:18Z</time>
      </trkpt>
      <trkpt lat="43.30676" lon="5.73195">
        <ele>675</ele>
        <time>2019-10-16T15:15:24Z</time>
      </trkpt>
      <trkpt lat="43.30671" lon="5.73198">
        <ele>674</ele>
        <time>2019-10-16T15:15:28Z</time>
      </trkpt>
      <trkpt lat="43.30667" lon="5.73201">
        <ele>675</ele>
        <time>2019-10-16T15:15:32Z</time>
      </trkpt>
      <trkpt lat="43.30665" lon="5.73207">
        <ele>673</ele>
        <time>2019-10-16T15:15:36Z</time>
      </trkpt>
      <trkpt lat="43.30661" lon="5.73214">
        <ele>676</ele>
        <time>2019-10-16T15:15:40Z</time>
      </trkpt>
      <trkpt lat="43.30657" lon="5.7322">
        <ele>676</ele>
        <time>2019-10-16T15:15:44Z</time>
      </trkpt>
      <trkpt lat="43.30653" lon="5.73225">
        <ele>675</ele>
        <time>2019-10-16T15:15:48Z</time>
      </trkpt>
      <trkpt lat="43.30651" lon="5.7323">
        <ele>676</ele>
        <time>2019-10-16T15:15:54Z</time>
      </trkpt>
      <trkpt lat="43.30646" lon="5.73236">
        <ele>675</ele>
        <time>2019-10-16T15:15:58Z</time>
      </trkpt>
      <trkpt lat="43.30643" lon="5.73241">
        <ele>674</ele>
        <time>2019-10-16T15:16:02Z</time>
      </trkpt>
      <trkpt lat="43.30639" lon="5.73248">
        <ele>674</ele>
        <time>2019-10-16T15:16:06Z</time>
      </trkpt>
      <trkpt lat="43.30636" lon="5.73254">
        <ele>673</ele>
        <time>2019-10-16T15:16:10Z</time>
      </trkpt>
      <trkpt lat="43.30633" lon="5.7326">
        <ele>674</ele>
        <time>2019-10-16T15:16:14Z</time>
      </trkpt>
      <trkpt lat="43.3063" lon="5.73266">
        <ele>675</ele>
        <time>2019-10-16T15:16:20Z</time>
      </trkpt>
      <trkpt lat="43.30626" lon="5.73273">
        <ele>675</ele>
        <time>2019-10-16T15:16:26Z</time>
      </trkpt>
      <trkpt lat="43.30623" lon="5.73281">
        <ele>676</ele>
        <time>2019-10-16T15:16:32Z</time>
      </trkpt>
      <trkpt lat="43.30619" lon="5.73285">
        <ele>676</ele>
        <time>2019-10-16T15:16:36Z</time>
      </trkpt>
      <trkpt lat="43.30616" lon="5.73291">
        <ele>673</ele>
        <time>2019-10-16T15:16:42Z</time>
      </trkpt>
      <trkpt lat="43.30612" lon="5.73295">
        <ele>671</ele>
        <time>2019-10-16T15:16:46Z</time>
      </trkpt>
      <trkpt lat="43.30608" lon="5.73301">
        <ele>670</ele>
        <time>2019-10-16T15:16:54Z</time>
      </trkpt>
      <trkpt lat="43.30604" lon="5.73305">
        <ele>670</ele>
        <time>2019-10-16T15:16:58Z</time>
      </trkpt>
      <trkpt lat="43.306" lon="5.73311">
        <ele>670</ele>
        <time>2019-10-16T15:17:04Z</time>
      </trkpt>
      <trkpt lat="43.30596" lon="5.73316">
        <ele>671</ele>
        <time>2019-10-16T15:17:08Z</time>
      </trkpt>
      <trkpt lat="43.30591" lon="5.73319">
        <ele>669</ele>
        <time>2019-10-16T15:17:12Z</time>
      </trkpt>
      <trkpt lat="43.30586" lon="5.73322">
        <ele>669</ele>
        <time>2019-10-16T15:17:16Z</time>
      </trkpt>
      <trkpt lat="43.3058" lon="5.73327">
        <ele>670</ele>
        <time>2019-10-16T15:17:22Z</time>
      </trkpt>
      <trkpt lat="43.30575" lon="5.7333">
        <ele>670</ele>
        <time>2019-10-16T15:17:26Z</time>
      </trkpt>
      <trkpt lat="43.30568" lon="5.73335">
        <ele>671</ele>
        <time>2019-10-16T15:17:32Z</time>
      </trkpt>
      <trkpt lat="43.30564" lon="5.73338">
        <ele>671</ele>
        <time>2019-10-16T15:17:36Z</time>
      </trkpt>
      <trkpt lat="43.3056" lon="5.73341">
        <ele>672</ele>
        <time>2019-10-16T15:17:40Z</time>
      </trkpt>
      <trkpt lat="43.30555" lon="5.73343">
        <ele>672</ele>
        <time>2019-10-16T15:17:44Z</time>
      </trkpt>
      <trkpt lat="43.3055" lon="5.73346">
        <ele>672</ele>
        <time>2019-10-16T15:17:48Z</time>
      </trkpt>
      <trkpt lat="43.30545" lon="5.7335">
        <ele>671</ele>
        <time>2019-10-16T15:17:54Z</time>
      </trkpt>
      <trkpt lat="43.3054" lon="5.73356">
        <ele>671</ele>
        <time>2019-10-16T15:18:00Z</time>
      </trkpt>
      <trkpt lat="43.30535" lon="5.73361">
        <ele>671</ele>
        <time>2019-10-16T15:18:06Z</time>
      </trkpt>
      <trkpt lat="43.30532" lon="5.73366">
        <ele>674</ele>
        <time>2019-10-16T15:18:12Z</time>
      </trkpt>
      <trkpt lat="43.30528" lon="5.7337">
        <ele>678</ele>
        <time>2019-10-16T15:18:22Z</time>
      </trkpt>
      <trkpt lat="43.30529" lon="5.73377">
        <ele>675</ele>
        <time>2019-10-16T15:18:28Z</time>
      </trkpt>
      <trkpt lat="43.30532" lon="5.73384">
        <ele>673</ele>
        <time>2019-10-16T15:18:34Z</time>
      </trkpt>
      <trkpt lat="43.30531" lon="5.7339">
        <ele>675</ele>
        <time>2019-10-16T15:18:40Z</time>
      </trkpt>
      <trkpt lat="43.30529" lon="5.73398">
        <ele>677</ele>
        <time>2019-10-16T15:18:48Z</time>
      </trkpt>
      <trkpt lat="43.30528" lon="5.73406">
        <ele>678</ele>
        <time>2019-10-16T15:18:54Z</time>
      </trkpt>
      <trkpt lat="43.30528" lon="5.73414">
        <ele>677</ele>
        <time>2019-10-16T15:19:00Z</time>
      </trkpt>
      <trkpt lat="43.30529" lon="5.7342">
        <ele>674</ele>
        <time>2019-10-16T15:19:04Z</time>
      </trkpt>
      <trkpt lat="43.30531" lon="5.73426">
        <ele>671</ele>
        <time>2019-10-16T15:19:08Z</time>
      </trkpt>
      <trkpt lat="43.30531" lon="5.73433">
        <ele>671</ele>
        <time>2019-10-16T15:19:12Z</time>
      </trkpt>
      <trkpt lat="43.30532" lon="5.7344">
        <ele>672</ele>
        <time>2019-10-16T15:19:16Z</time>
      </trkpt>
      <trkpt lat="43.30532" lon="5.73448">
        <ele>671</ele>
        <time>2019-10-16T15:19:22Z</time>
      </trkpt>
      <trkpt lat="43.30534" lon="5.73456">
        <ele>671</ele>
        <time>2019-10-16T15:19:28Z</time>
      </trkpt>
      <trkpt lat="43.30537" lon="5.73465">
        <ele>670</ele>
        <time>2019-10-16T15:19:34Z</time>
      </trkpt>
      <trkpt lat="43.30539" lon="5.73472">
        <ele>669</ele>
        <time>2019-10-16T15:19:40Z</time>
      </trkpt>
      <trkpt lat="43.30542" lon="5.7348">
        <ele>668</ele>
        <time>2019-10-16T15:19:46Z</time>
      </trkpt>
      <trkpt lat="43.30544" lon="5.73488">
        <ele>669</ele>
        <time>2019-10-16T15:19:52Z</time>
      </trkpt>
      <trkpt lat="43.30545" lon="5.73496">
        <ele>670</ele>
        <time>2019-10-16T15:19:58Z</time>
      </trkpt>
      <trkpt lat="43.30547" lon="5.73504">
        <ele>671</ele>
        <time>2019-10-16T15:20:04Z</time>
      </trkpt>
      <trkpt lat="43.30548" lon="5.7351">
        <ele>671</ele>
        <time>2019-10-16T15:20:10Z</time>
      </trkpt>
      <trkpt lat="43.30551" lon="5.73518">
        <ele>669</ele>
        <time>2019-10-16T15:20:16Z</time>
      </trkpt>
      <trkpt lat="43.30552" lon="5.73527">
        <ele>670</ele>
        <time>2019-10-16T15:20:22Z</time>
      </trkpt>
      <trkpt lat="43.30554" lon="5.73533">
        <ele>668</ele>
        <time>2019-10-16T15:20:28Z</time>
      </trkpt>
      <trkpt lat="43.30557" lon="5.73541">
        <ele>667</ele>
        <time>2019-10-16T15:20:34Z</time>
      </trkpt>
      <trkpt lat="43.30559" lon="5.7355">
        <ele>666</ele>
        <time>2019-10-16T15:20:40Z</time>
      </trkpt>
      <trkpt lat="43.30563" lon="5.73556">
        <ele>666</ele>
        <time>2019-10-16T15:20:44Z</time>
      </trkpt>
      <trkpt lat="43.30566" lon="5.73562">
        <ele>666</ele>
        <time>2019-10-16T15:20:50Z</time>
      </trkpt>
      <trkpt lat="43.3057" lon="5.73566">
        <ele>666</ele>
        <time>2019-10-16T15:20:56Z</time>
      </trkpt>
      <trkpt lat="43.30576" lon="5.73567">
        <ele>666</ele>
        <time>2019-10-16T15:21:02Z</time>
      </trkpt>
      <trkpt lat="43.3058" lon="5.7357">
        <ele>666</ele>
        <time>2019-10-16T15:21:06Z</time>
      </trkpt>
      <trkpt lat="43.30584" lon="5.73574">
        <ele>665</ele>
        <time>2019-10-16T15:21:14Z</time>
      </trkpt>
      <trkpt lat="43.30587" lon="5.7358">
        <ele>669</ele>
        <time>2019-10-16T15:21:22Z</time>
      </trkpt>
      <trkpt lat="43.30582" lon="5.73579">
        <ele>674</ele>
        <time>2019-10-16T15:22:30Z</time>
      </trkpt>
      <trkpt lat="43.30578" lon="5.73575">
        <ele>674</ele>
        <time>2019-10-16T15:22:36Z</time>
      </trkpt>
      <trkpt lat="43.30573" lon="5.73571">
        <ele>675</ele>
        <time>2019-10-16T15:22:42Z</time>
      </trkpt>
      <trkpt lat="43.30569" lon="5.73573">
        <ele>673</ele>
        <time>2019-10-16T15:23:08Z</time>
      </trkpt>
      <trkpt lat="43.30568" lon="5.73581">
        <ele>668</ele>
        <time>2019-10-16T15:23:20Z</time>
      </trkpt>
      <trkpt lat="43.3057" lon="5.73587">
        <ele>665</ele>
        <time>2019-10-16T15:23:24Z</time>
      </trkpt>
      <trkpt lat="43.30574" lon="5.73592">
        <ele>663</ele>
        <time>2019-10-16T15:23:30Z</time>
      </trkpt>
      <trkpt lat="43.30576" lon="5.73598">
        <ele>662</ele>
        <time>2019-10-16T15:23:34Z</time>
      </trkpt>
      <trkpt lat="43.30577" lon="5.73604">
        <ele>666</ele>
        <time>2019-10-16T15:23:38Z</time>
      </trkpt>
      <trkpt lat="43.30578" lon="5.73611">
        <ele>666</ele>
        <time>2019-10-16T15:23:42Z</time>
      </trkpt>
      <trkpt lat="43.30579" lon="5.73617">
        <ele>666</ele>
        <time>2019-10-16T15:23:46Z</time>
      </trkpt>
      <trkpt lat="43.30582" lon="5.73623">
        <ele>665</ele>
        <time>2019-10-16T15:23:50Z</time>
      </trkpt>
      <trkpt lat="43.30583" lon="5.73629">
        <ele>667</ele>
        <time>2019-10-16T15:23:54Z</time>
      </trkpt>
      <trkpt lat="43.30586" lon="5.73635">
        <ele>667</ele>
        <time>2019-10-16T15:23:58Z</time>
      </trkpt>
      <trkpt lat="43.30589" lon="5.73644">
        <ele>667</ele>
        <time>2019-10-16T15:24:04Z</time>
      </trkpt>
      <trkpt lat="43.30593" lon="5.73649">
        <ele>665</ele>
        <time>2019-10-16T15:24:08Z</time>
      </trkpt>
      <trkpt lat="43.30595" lon="5.73657">
        <ele>666</ele>
        <time>2019-10-16T15:24:14Z</time>
      </trkpt>
      <trkpt lat="43.30595" lon="5.73666">
        <ele>667</ele>
        <time>2019-10-16T15:24:20Z</time>
      </trkpt>
      <trkpt lat="43.30591" lon="5.7367">
        <ele>667</ele>
        <time>2019-10-16T15:24:24Z</time>
      </trkpt>
      <trkpt lat="43.30587" lon="5.73675">
        <ele>667</ele>
        <time>2019-10-16T15:24:28Z</time>
      </trkpt>
      <trkpt lat="43.30588" lon="5.73683">
        <ele>664</ele>
        <time>2019-10-16T15:24:34Z</time>
      </trkpt>
      <trkpt lat="43.30589" lon="5.73692">
        <ele>664</ele>
        <time>2019-10-16T15:24:40Z</time>
      </trkpt>
      <trkpt lat="43.30589" lon="5.73699">
        <ele>663</ele>
        <time>2019-10-16T15:24:46Z</time>
      </trkpt>
      <trkpt lat="43.30586" lon="5.73706">
        <ele>664</ele>
        <time>2019-10-16T15:24:52Z</time>
      </trkpt>
      <trkpt lat="43.3058" lon="5.73709">
        <ele>666</ele>
        <time>2019-10-16T15:24:58Z</time>
      </trkpt>
      <trkpt lat="43.30575" lon="5.73712">
        <ele>665</ele>
        <time>2019-10-16T15:25:04Z</time>
      </trkpt>
      <trkpt lat="43.3057" lon="5.73716">
        <ele>666</ele>
        <time>2019-10-16T15:25:08Z</time>
      </trkpt>
      <trkpt lat="43.30565" lon="5.73721">
        <ele>665</ele>
        <time>2019-10-16T15:25:14Z</time>
      </trkpt>
      <trkpt lat="43.30561" lon="5.73724">
        <ele>666</ele>
        <time>2019-10-16T15:25:18Z</time>
      </trkpt>
      <trkpt lat="43.30557" lon="5.7373">
        <ele>665</ele>
        <time>2019-10-16T15:25:24Z</time>
      </trkpt>
      <trkpt lat="43.30553" lon="5.73735">
        <ele>661</ele>
        <time>2019-10-16T15:25:30Z</time>
      </trkpt>
      <trkpt lat="43.30551" lon="5.73743">
        <ele>658</ele>
        <time>2019-10-16T15:25:36Z</time>
      </trkpt>
      <trkpt lat="43.30551" lon="5.7375">
        <ele>658</ele>
        <time>2019-10-16T15:25:40Z</time>
      </trkpt>
      <trkpt lat="43.30552" lon="5.73757">
        <ele>657</ele>
        <time>2019-10-16T15:25:44Z</time>
      </trkpt>
      <trkpt lat="43.30554" lon="5.73764">
        <ele>653</ele>
        <time>2019-10-16T15:25:50Z</time>
      </trkpt>
      <trkpt lat="43.30558" lon="5.73772">
        <ele>651</ele>
        <time>2019-10-16T15:25:56Z</time>
      </trkpt>
      <trkpt lat="43.3056" lon="5.73778">
        <ele>651</ele>
        <time>2019-10-16T15:26:00Z</time>
      </trkpt>
      <trkpt lat="43.30562" lon="5.73787">
        <ele>651</ele>
        <time>2019-10-16T15:26:04Z</time>
      </trkpt>
      <trkpt lat="43.30564" lon="5.73793">
        <ele>649</ele>
        <time>2019-10-16T15:26:10Z</time>
      </trkpt>
      <trkpt lat="43.30565" lon="5.738">
        <ele>647</ele>
        <time>2019-10-16T15:26:14Z</time>
      </trkpt>
      <trkpt lat="43.30566" lon="5.73808">
        <ele>648</ele>
        <time>2019-10-16T15:26:18Z</time>
      </trkpt>
      <trkpt lat="43.30571" lon="5.73813">
        <ele>648</ele>
        <time>2019-10-16T15:26:22Z</time>
      </trkpt>
      <trkpt lat="43.30575" lon="5.73817">
        <ele>643</ele>
        <time>2019-10-16T15:26:24Z</time>
      </trkpt>
      <trkpt lat="43.30577" lon="5.73825">
        <ele>645</ele>
        <time>2019-10-16T15:26:28Z</time>
      </trkpt>
      <trkpt lat="43.30574" lon="5.73831">
        <ele>647</ele>
        <time>2019-10-16T15:26:32Z</time>
      </trkpt>
      <trkpt lat="43.30576" lon="5.73837">
        <ele>646</ele>
        <time>2019-10-16T15:26:36Z</time>
      </trkpt>
      <trkpt lat="43.30578" lon="5.73843">
        <ele>646</ele>
        <time>2019-10-16T15:26:40Z</time>
      </trkpt>
      <trkpt lat="43.30577" lon="5.7385">
        <ele>647</ele>
        <time>2019-10-16T15:26:44Z</time>
      </trkpt>
      <trkpt lat="43.30578" lon="5.73856">
        <ele>647</ele>
        <time>2019-10-16T15:26:50Z</time>
      </trkpt>
      <trkpt lat="43.30579" lon="5.73865">
        <ele>647</ele>
        <time>2019-10-16T15:26:56Z</time>
      </trkpt>
      <trkpt lat="43.30577" lon="5.73871">
        <ele>646</ele>
        <time>2019-10-16T15:27:02Z</time>
      </trkpt>
      <trkpt lat="43.30573" lon="5.73875">
        <ele>646</ele>
        <time>2019-10-16T15:27:08Z</time>
      </trkpt>
      <trkpt lat="43.30567" lon="5.73878">
        <ele>645</ele>
        <time>2019-10-16T15:27:14Z</time>
      </trkpt>
      <trkpt lat="43.30563" lon="5.73881">
        <ele>641</ele>
        <time>2019-10-16T15:27:20Z</time>
      </trkpt>
      <trkpt lat="43.30557" lon="5.73889">
        <ele>643</ele>
        <time>2019-10-16T15:27:26Z</time>
      </trkpt>
      <trkpt lat="43.30552" lon="5.73895">
        <ele>643</ele>
        <time>2019-10-16T15:27:30Z</time>
      </trkpt>
      <trkpt lat="43.30548" lon="5.739">
        <ele>642</ele>
        <time>2019-10-16T15:27:34Z</time>
      </trkpt>
      <trkpt lat="43.30547" lon="5.73909">
        <ele>637</ele>
        <time>2019-10-16T15:27:40Z</time>
      </trkpt>
      <trkpt lat="43.30546" lon="5.73916">
        <ele>637</ele>
        <time>2019-10-16T15:27:44Z</time>
      </trkpt>
      <trkpt lat="43.30546" lon="5.73926">
        <ele>637</ele>
        <time>2019-10-16T15:27:48Z</time>
      </trkpt>
      <trkpt lat="43.30546" lon="5.73933">
        <ele>636</ele>
        <time>2019-10-16T15:27:52Z</time>
      </trkpt>
      <trkpt lat="43.30546" lon="5.7394">
        <ele>636</ele>
        <time>2019-10-16T15:27:56Z</time>
      </trkpt>
      <trkpt lat="43.30548" lon="5.73947">
        <ele>636</ele>
        <time>2019-10-16T15:28:00Z</time>
      </trkpt>
      <trkpt lat="43.3055" lon="5.73954">
        <ele>634</ele>
        <time>2019-10-16T15:28:04Z</time>
      </trkpt>
      <trkpt lat="43.30551" lon="5.73962">
        <ele>632</ele>
        <time>2019-10-16T15:28:10Z</time>
      </trkpt>
      <trkpt lat="43.30552" lon="5.73969">
        <ele>633</ele>
        <time>2019-10-16T15:28:16Z</time>
      </trkpt>
      <trkpt lat="43.30553" lon="5.73976">
        <ele>633</ele>
        <time>2019-10-16T15:28:20Z</time>
      </trkpt>
      <trkpt lat="43.30553" lon="5.73982">
        <ele>633</ele>
        <time>2019-10-16T15:28:24Z</time>
      </trkpt>
      <trkpt lat="43.30555" lon="5.7399">
        <ele>631</ele>
        <time>2019-10-16T15:28:30Z</time>
      </trkpt>
      <trkpt lat="43.30555" lon="5.73997">
        <ele>629</ele>
        <time>2019-10-16T15:28:34Z</time>
      </trkpt>
      <trkpt lat="43.30557" lon="5.74005">
        <ele>630</ele>
        <time>2019-10-16T15:28:40Z</time>
      </trkpt>
      <trkpt lat="43.30559" lon="5.74012">
        <ele>630</ele>
        <time>2019-10-16T15:28:46Z</time>
      </trkpt>
      <trkpt lat="43.3056" lon="5.7402">
        <ele>630</ele>
        <time>2019-10-16T15:28:52Z</time>
      </trkpt>
      <trkpt lat="43.30561" lon="5.74029">
        <ele>628</ele>
        <time>2019-10-16T15:28:58Z</time>
      </trkpt>
      <trkpt lat="43.30562" lon="5.74035">
        <ele>626</ele>
        <time>2019-10-16T15:29:02Z</time>
      </trkpt>
      <trkpt lat="43.30561" lon="5.74041">
        <ele>627</ele>
        <time>2019-10-16T15:29:06Z</time>
      </trkpt>
      <trkpt lat="43.30559" lon="5.74047">
        <ele>626</ele>
        <time>2019-10-16T15:29:10Z</time>
      </trkpt>
      <trkpt lat="43.30558" lon="5.74057">
        <ele>626</ele>
        <time>2019-10-16T15:29:16Z</time>
      </trkpt>
      <trkpt lat="43.30558" lon="5.74064">
        <ele>626</ele>
        <time>2019-10-16T15:29:20Z</time>
      </trkpt>
      <trkpt lat="43.30557" lon="5.7407">
        <ele>626</ele>
        <time>2019-10-16T15:29:24Z</time>
      </trkpt>
      <trkpt lat="43.30557" lon="5.74078">
        <ele>625</ele>
        <time>2019-10-16T15:29:30Z</time>
      </trkpt>
      <trkpt lat="43.30554" lon="5.74085">
        <ele>626</ele>
        <time>2019-10-16T15:29:34Z</time>
      </trkpt>
      <trkpt lat="43.30554" lon="5.74091">
        <ele>626</ele>
        <time>2019-10-16T15:29:38Z</time>
      </trkpt>
      <trkpt lat="43.30554" lon="5.74098">
        <ele>629</ele>
        <time>2019-10-16T15:29:42Z</time>
      </trkpt>
      <trkpt lat="43.30553" lon="5.74106">
        <ele>629</ele>
        <time>2019-10-16T15:29:46Z</time>
      </trkpt>
      <trkpt lat="43.30552" lon="5.74112">
        <ele>629</ele>
        <time>2019-10-16T15:29:50Z</time>
      </trkpt>
      <trkpt lat="43.30552" lon="5.74119">
        <ele>627</ele>
        <time>2019-10-16T15:29:54Z</time>
      </trkpt>
      <trkpt lat="43.30552" lon="5.74127">
        <ele>625</ele>
        <time>2019-10-16T15:30:00Z</time>
      </trkpt>
      <trkpt lat="43.30551" lon="5.74136">
        <ele>624</ele>
        <time>2019-10-16T15:30:06Z</time>
      </trkpt>
      <trkpt lat="43.30549" lon="5.74145">
        <ele>624</ele>
        <time>2019-10-16T15:30:12Z</time>
      </trkpt>
      <trkpt lat="43.30547" lon="5.74153">
        <ele>623</ele>
        <time>2019-10-16T15:30:18Z</time>
      </trkpt>
      <trkpt lat="43.30546" lon="5.7416">
        <ele>623</ele>
        <time>2019-10-16T15:30:24Z</time>
      </trkpt>
      <trkpt lat="43.30546" lon="5.74167">
        <ele>622</ele>
        <time>2019-10-16T15:30:28Z</time>
      </trkpt>
      <trkpt lat="43.30544" lon="5.74175">
        <ele>622</ele>
        <time>2019-10-16T15:30:34Z</time>
      </trkpt>
      <trkpt lat="43.30539" lon="5.7418">
        <ele>623</ele>
        <time>2019-10-16T15:30:40Z</time>
      </trkpt>
      <trkpt lat="43.30536" lon="5.74184">
        <ele>621</ele>
        <time>2019-10-16T15:30:44Z</time>
      </trkpt>
      <trkpt lat="43.30531" lon="5.7419">
        <ele>621</ele>
        <time>2019-10-16T15:30:50Z</time>
      </trkpt>
      <trkpt lat="43.30528" lon="5.74197">
        <ele>619</ele>
        <time>2019-10-16T15:30:56Z</time>
      </trkpt>
      <trkpt lat="43.30526" lon="5.74205">
        <ele>618</ele>
        <time>2019-10-16T15:31:02Z</time>
      </trkpt>
      <trkpt lat="43.30524" lon="5.74211">
        <ele>618</ele>
        <time>2019-10-16T15:31:06Z</time>
      </trkpt>
      <trkpt lat="43.30521" lon="5.74217">
        <ele>617</ele>
        <time>2019-10-16T15:31:10Z</time>
      </trkpt>
      <trkpt lat="43.30518" lon="5.74221">
        <ele>618</ele>
        <time>2019-10-16T15:31:14Z</time>
      </trkpt>
      <trkpt lat="43.30515" lon="5.74228">
        <ele>616</ele>
        <time>2019-10-16T15:31:18Z</time>
      </trkpt>
      <trkpt lat="43.30511" lon="5.74233">
        <ele>615</ele>
        <time>2019-10-16T15:31:26Z</time>
      </trkpt>
      <trkpt lat="43.30508" lon="5.74239">
        <ele>614</ele>
        <time>2019-10-16T15:31:32Z</time>
      </trkpt>
      <trkpt lat="43.30505" lon="5.74244">
        <ele>612</ele>
        <time>2019-10-16T15:31:38Z</time>
      </trkpt>
      <trkpt lat="43.305" lon="5.74249">
        <ele>614</ele>
        <time>2019-10-16T15:31:52Z</time>
      </trkpt>
      <trkpt lat="43.30497" lon="5.74254">
        <ele>615</ele>
        <time>2019-10-16T15:31:58Z</time>
      </trkpt>
      <trkpt lat="43.30494" lon="5.74259">
        <ele>615</ele>
        <time>2019-10-16T15:32:04Z</time>
      </trkpt>
      <trkpt lat="43.30492" lon="5.74266">
        <ele>617</ele>
        <time>2019-10-16T15:32:10Z</time>
      </trkpt>
      <trkpt lat="43.3049" lon="5.74273">
        <ele>617</ele>
        <time>2019-10-16T15:32:16Z</time>
      </trkpt>
      <trkpt lat="43.3049" lon="5.7428">
        <ele>616</ele>
        <time>2019-10-16T15:32:22Z</time>
      </trkpt>
      <trkpt lat="43.3049" lon="5.74287">
        <ele>615</ele>
        <time>2019-10-16T15:32:36Z</time>
      </trkpt>
      <trkpt lat="43.30487" lon="5.74292">
        <ele>615</ele>
        <time>2019-10-16T15:32:44Z</time>
      </trkpt>
      <trkpt lat="43.30485" lon="5.74298">
        <ele>612</ele>
        <time>2019-10-16T15:32:52Z</time>
      </trkpt>
      <trkpt lat="43.30481" lon="5.74301">
        <ele>613</ele>
        <time>2019-10-16T15:32:58Z</time>
      </trkpt>
      <trkpt lat="43.30476" lon="5.74303">
        <ele>614</ele>
        <time>2019-10-16T15:33:04Z</time>
      </trkpt>
      <trkpt lat="43.30472" lon="5.74308">
        <ele>611</ele>
        <time>2019-10-16T15:33:10Z</time>
      </trkpt>
      <trkpt lat="43.30469" lon="5.74312">
        <ele>612</ele>
        <time>2019-10-16T15:33:18Z</time>
      </trkpt>
      <trkpt lat="43.3047" lon="5.74319">
        <ele>609</ele>
        <time>2019-10-16T15:33:34Z</time>
      </trkpt>
      <trkpt lat="43.30464" lon="5.7432">
        <ele>608</ele>
        <time>2019-10-16T15:33:46Z</time>
      </trkpt>
      <trkpt lat="43.30459" lon="5.74318">
        <ele>607</ele>
        <time>2019-10-16T15:33:56Z</time>
      </trkpt>
      <trkpt lat="43.30454" lon="5.74317">
        <ele>606</ele>
        <time>2019-10-16T15:34:02Z</time>
      </trkpt>
      <trkpt lat="43.30449" lon="5.7432">
        <ele>606</ele>
        <time>2019-10-16T15:34:10Z</time>
      </trkpt>
      <trkpt lat="43.30444" lon="5.74324">
        <ele>604</ele>
        <time>2019-10-16T15:34:20Z</time>
      </trkpt>
      <trkpt lat="43.30437" lon="5.74326">
        <ele>605</ele>
        <time>2019-10-16T15:34:26Z</time>
      </trkpt>
      <trkpt lat="43.3043" lon="5.74329">
        <ele>607</ele>
        <time>2019-10-16T15:34:32Z</time>
      </trkpt>
      <trkpt lat="43.30426" lon="5.74331">
        <ele>610</ele>
        <time>2019-10-16T15:34:36Z</time>
      </trkpt>
      <trkpt lat="43.3042" lon="5.74335">
        <ele>610</ele>
        <time>2019-10-16T15:34:42Z</time>
      </trkpt>
      <trkpt lat="43.30415" lon="5.74338">
        <ele>611</ele>
        <time>2019-10-16T15:34:48Z</time>
      </trkpt>
      <trkpt lat="43.30412" lon="5.74343">
        <ele>607</ele>
        <time>2019-10-16T15:34:54Z</time>
      </trkpt>
      <trkpt lat="43.30407" lon="5.74347">
        <ele>601</ele>
        <time>2019-10-16T15:35:02Z</time>
      </trkpt>
      <trkpt lat="43.30403" lon="5.74355">
        <ele>602</ele>
        <time>2019-10-16T15:35:08Z</time>
      </trkpt>
      <trkpt lat="43.30402" lon="5.74361">
        <ele>599</ele>
        <time>2019-10-16T15:35:14Z</time>
      </trkpt>
      <trkpt lat="43.30401" lon="5.7437">
        <ele>603</ele>
        <time>2019-10-16T15:35:20Z</time>
      </trkpt>
      <trkpt lat="43.304" lon="5.74379">
        <ele>607</ele>
        <time>2019-10-16T15:35:24Z</time>
      </trkpt>
      <trkpt lat="43.304" lon="5.74385">
        <ele>608</ele>
        <time>2019-10-16T15:35:28Z</time>
      </trkpt>
      <trkpt lat="43.30401" lon="5.74392">
        <ele>609</ele>
        <time>2019-10-16T15:35:32Z</time>
      </trkpt>
      <trkpt lat="43.30402" lon="5.74399">
        <ele>608</ele>
        <time>2019-10-16T15:35:38Z</time>
      </trkpt>
      <trkpt lat="43.30403" lon="5.74408">
        <ele>610</ele>
        <time>2019-10-16T15:35:44Z</time>
      </trkpt>
      <trkpt lat="43.30405" lon="5.74416">
        <ele>609</ele>
        <time>2019-10-16T15:35:50Z</time>
      </trkpt>
      <trkpt lat="43.30406" lon="5.74425">
        <ele>609</ele>
        <time>2019-10-16T15:35:56Z</time>
      </trkpt>
      <trkpt lat="43.30407" lon="5.74432">
        <ele>610</ele>
        <time>2019-10-16T15:36:00Z</time>
      </trkpt>
      <trkpt lat="43.30409" lon="5.74438">
        <ele>610</ele>
        <time>2019-10-16T15:36:04Z</time>
      </trkpt>
      <trkpt lat="43.3041" lon="5.74444">
        <ele>609</ele>
        <time>2019-10-16T15:36:08Z</time>
      </trkpt>
      <trkpt lat="43.30413" lon="5.74452">
        <ele>608</ele>
        <time>2019-10-16T15:36:14Z</time>
      </trkpt>
      <trkpt lat="43.30415" lon="5.74459">
        <ele>608</ele>
        <time>2019-10-16T15:36:18Z</time>
      </trkpt>
      <trkpt lat="43.30418" lon="5.74466">
        <ele>608</ele>
        <time>2019-10-16T15:36:24Z</time>
      </trkpt>
      <trkpt lat="43.3042" lon="5.74474">
        <ele>606</ele>
        <time>2019-10-16T15:36:30Z</time>
      </trkpt>
      <trkpt lat="43.30422" lon="5.7448">
        <ele>606</ele>
        <time>2019-10-16T15:36:34Z</time>
      </trkpt>
      <trkpt lat="43.30423" lon="5.74488">
        <ele>606</ele>
        <time>2019-10-16T15:36:40Z</time>
      </trkpt>
      <trkpt lat="43.30426" lon="5.74496">
        <ele>605</ele>
        <time>2019-10-16T15:36:46Z</time>
      </trkpt>
      <trkpt lat="43.30428" lon="5.74503">
        <ele>605</ele>
        <time>2019-10-16T15:36:52Z</time>
      </trkpt>
      <trkpt lat="43.30431" lon="5.74511">
        <ele>606</ele>
        <time>2019-10-16T15:36:58Z</time>
      </trkpt>
      <trkpt lat="43.30431" lon="5.74518">
        <ele>607</ele>
        <time>2019-10-16T15:37:04Z</time>
      </trkpt>
      <trkpt lat="43.30433" lon="5.74527">
        <ele>608</ele>
        <time>2019-10-16T15:37:10Z</time>
      </trkpt>
      <trkpt lat="43.30435" lon="5.74536">
        <ele>608</ele>
        <time>2019-10-16T15:37:16Z</time>
      </trkpt>
      <trkpt lat="43.30437" lon="5.74544">
        <ele>606</ele>
        <time>2019-10-16T15:37:22Z</time>
      </trkpt>
      <trkpt lat="43.30438" lon="5.74552">
        <ele>607</ele>
        <time>2019-10-16T15:37:28Z</time>
      </trkpt>
      <trkpt lat="43.30438" lon="5.7456">
        <ele>607</ele>
        <time>2019-10-16T15:37:34Z</time>
      </trkpt>
      <trkpt lat="43.30441" lon="5.74568">
        <ele>609</ele>
        <time>2019-10-16T15:37:40Z</time>
      </trkpt>
      <trkpt lat="43.30441" lon="5.74576">
        <ele>612</ele>
        <time>2019-10-16T15:37:44Z</time>
      </trkpt>
      <trkpt lat="43.30442" lon="5.74585">
        <ele>613</ele>
        <time>2019-10-16T15:37:50Z</time>
      </trkpt>
      <trkpt lat="43.30442" lon="5.74594">
        <ele>615</ele>
        <time>2019-10-16T15:37:56Z</time>
      </trkpt>
      <trkpt lat="43.30441" lon="5.74603">
        <ele>616</ele>
        <time>2019-10-16T15:38:02Z</time>
      </trkpt>
      <trkpt lat="43.3044" lon="5.74612">
        <ele>616</ele>
        <time>2019-10-16T15:38:08Z</time>
      </trkpt>
      <trkpt lat="43.30439" lon="5.7462">
        <ele>616</ele>
        <time>2019-10-16T15:38:14Z</time>
      </trkpt>
      <trkpt lat="43.30438" lon="5.74626">
        <ele>615</ele>
        <time>2019-10-16T15:38:18Z</time>
      </trkpt>
      <trkpt lat="43.30436" lon="5.74633">
        <ele>616</ele>
        <time>2019-10-16T15:38:24Z</time>
      </trkpt>
      <trkpt lat="43.30434" lon="5.74642">
        <ele>617</ele>
        <time>2019-10-16T15:38:30Z</time>
      </trkpt>
      <trkpt lat="43.30431" lon="5.7465">
        <ele>617</ele>
        <time>2019-10-16T15:38:36Z</time>
      </trkpt>
      <trkpt lat="43.30431" lon="5.74657">
        <ele>617</ele>
        <time>2019-10-16T15:38:40Z</time>
      </trkpt>
      <trkpt lat="43.30429" lon="5.74665">
        <ele>616</ele>
        <time>2019-10-16T15:38:46Z</time>
      </trkpt>
      <trkpt lat="43.30428" lon="5.74673">
        <ele>616</ele>
        <time>2019-10-16T15:38:52Z</time>
      </trkpt>
      <trkpt lat="43.30426" lon="5.74681">
        <ele>616</ele>
        <time>2019-10-16T15:38:58Z</time>
      </trkpt>
      <trkpt lat="43.30425" lon="5.74689">
        <ele>617</ele>
        <time>2019-10-16T15:39:04Z</time>
      </trkpt>
      <trkpt lat="43.30424" lon="5.74696">
        <ele>617</ele>
        <time>2019-10-16T15:39:08Z</time>
      </trkpt>
      <trkpt lat="43.30423" lon="5.74703">
        <ele>618</ele>
        <time>2019-10-16T15:39:12Z</time>
      </trkpt>
      <trkpt lat="43.30422" lon="5.74709">
        <ele>619</ele>
        <time>2019-10-16T15:39:16Z</time>
      </trkpt>
      <trkpt lat="43.30421" lon="5.74717">
        <ele>618</ele>
        <time>2019-10-16T15:39:22Z</time>
      </trkpt>
      <trkpt lat="43.30419" lon="5.74724">
        <ele>618</ele>
        <time>2019-10-16T15:39:28Z</time>
      </trkpt>
      <trkpt lat="43.30418" lon="5.74733">
        <ele>619</ele>
        <time>2019-10-16T15:39:34Z</time>
      </trkpt>
      <trkpt lat="43.30419" lon="5.7474">
        <ele>618</ele>
        <time>2019-10-16T15:39:38Z</time>
      </trkpt>
      <trkpt lat="43.30416" lon="5.74747">
        <ele>620</ele>
        <time>2019-10-16T15:39:44Z</time>
      </trkpt>
      <trkpt lat="43.30412" lon="5.7475">
        <ele>620</ele>
        <time>2019-10-16T15:39:50Z</time>
      </trkpt>
      <trkpt lat="43.30413" lon="5.74757">
        <ele>620</ele>
        <time>2019-10-16T15:40:58Z</time>
      </trkpt>
      <trkpt lat="43.30408" lon="5.74761">
        <ele>621</ele>
        <time>2019-10-16T15:41:04Z</time>
      </trkpt>
      <trkpt lat="43.30402" lon="5.74764">
        <ele>622</ele>
        <time>2019-10-16T15:41:10Z</time>
      </trkpt>
      <trkpt lat="43.30401" lon="5.74771">
        <ele>620</ele>
        <time>2019-10-16T15:41:16Z</time>
      </trkpt>
      <trkpt lat="43.30401" lon="5.74777">
        <ele>618</ele>
        <time>2019-10-16T15:41:20Z</time>
      </trkpt>
      <trkpt lat="43.30403" lon="5.74785">
        <ele>616</ele>
        <time>2019-10-16T15:41:26Z</time>
      </trkpt>
      <trkpt lat="43.30401" lon="5.74791">
        <ele>617</ele>
        <time>2019-10-16T15:41:32Z</time>
      </trkpt>
      <trkpt lat="43.304" lon="5.74798">
        <ele>617</ele>
        <time>2019-10-16T15:41:38Z</time>
      </trkpt>
      <trkpt lat="43.30401" lon="5.74806">
        <ele>615</ele>
        <time>2019-10-16T15:41:44Z</time>
      </trkpt>
      <trkpt lat="43.304" lon="5.74813">
        <ele>612</ele>
        <time>2019-10-16T15:41:50Z</time>
      </trkpt>
      <trkpt lat="43.30401" lon="5.7482">
        <ele>611</ele>
        <time>2019-10-16T15:41:56Z</time>
      </trkpt>
      <trkpt lat="43.304" lon="5.74827">
        <ele>612</ele>
        <time>2019-10-16T15:42:00Z</time>
      </trkpt>
      <trkpt lat="43.30398" lon="5.74835">
        <ele>609</ele>
        <time>2019-10-16T15:42:06Z</time>
      </trkpt>
      <trkpt lat="43.30395" lon="5.74841">
        <ele>609</ele>
        <time>2019-10-16T15:42:12Z</time>
      </trkpt>
      <trkpt lat="43.30397" lon="5.74848">
        <ele>605</ele>
        <time>2019-10-16T15:42:18Z</time>
      </trkpt>
      <trkpt lat="43.30397" lon="5.74855">
        <ele>601</ele>
        <time>2019-10-16T15:42:22Z</time>
      </trkpt>
      <trkpt lat="43.30395" lon="5.74863">
        <ele>598</ele>
        <time>2019-10-16T15:42:28Z</time>
      </trkpt>
      <trkpt lat="43.30394" lon="5.74869">
        <ele>594</ele>
        <time>2019-10-16T15:42:34Z</time>
      </trkpt>
      <trkpt lat="43.30392" lon="5.74877">
        <ele>593</ele>
        <time>2019-10-16T15:42:42Z</time>
      </trkpt>
      <trkpt lat="43.30388" lon="5.74882">
        <ele>593</ele>
        <time>2019-10-16T15:42:48Z</time>
      </trkpt>
      <trkpt lat="43.30389" lon="5.74891">
        <ele>590</ele>
        <time>2019-10-16T15:42:56Z</time>
      </trkpt>
      <trkpt lat="43.30388" lon="5.74897">
        <ele>593</ele>
        <time>2019-10-16T15:43:00Z</time>
      </trkpt>
      <trkpt lat="43.30387" lon="5.74903">
        <ele>595</ele>
        <time>2019-10-16T15:43:04Z</time>
      </trkpt>
      <trkpt lat="43.30386" lon="5.74911">
        <ele>599</ele>
        <time>2019-10-16T15:43:10Z</time>
      </trkpt>
      <trkpt lat="43.30387" lon="5.74918">
        <ele>597</ele>
        <time>2019-10-16T15:43:16Z</time>
      </trkpt>
      <trkpt lat="43.30389" lon="5.74925">
        <ele>590</ele>
        <time>2019-10-16T15:43:22Z</time>
      </trkpt>
      <trkpt lat="43.30388" lon="5.74932">
        <ele>590</ele>
        <time>2019-10-16T15:43:26Z</time>
      </trkpt>
      <trkpt lat="43.30386" lon="5.74939">
        <ele>589</ele>
        <time>2019-10-16T15:43:32Z</time>
      </trkpt>
      <trkpt lat="43.30384" lon="5.74947">
        <ele>585</ele>
        <time>2019-10-16T15:43:38Z</time>
      </trkpt>
      <trkpt lat="43.3038" lon="5.74953">
        <ele>583</ele>
        <time>2019-10-16T15:43:44Z</time>
      </trkpt>
      <trkpt lat="43.30375" lon="5.74957">
        <ele>583</ele>
        <time>2019-10-16T15:43:48Z</time>
      </trkpt>
      <trkpt lat="43.30372" lon="5.74961">
        <ele>583</ele>
        <time>2019-10-16T15:43:52Z</time>
      </trkpt>
      <trkpt lat="43.30369" lon="5.74967">
        <ele>582</ele>
        <time>2019-10-16T15:43:56Z</time>
      </trkpt>
      <trkpt lat="43.30366" lon="5.74973">
        <ele>581</ele>
        <time>2019-10-16T15:44:00Z</time>
      </trkpt>
      <trkpt lat="43.30359" lon="5.74976">
        <ele>581</ele>
        <time>2019-10-16T15:44:06Z</time>
      </trkpt>
      <trkpt lat="43.30354" lon="5.74979">
        <ele>581</ele>
        <time>2019-10-16T15:44:12Z</time>
      </trkpt>
      <trkpt lat="43.30348" lon="5.7498">
        <ele>582</ele>
        <time>2019-10-16T15:44:18Z</time>
      </trkpt>
      <trkpt lat="43.30343" lon="5.74981">
        <ele>584</ele>
        <time>2019-10-16T15:44:26Z</time>
      </trkpt>
      <trkpt lat="43.30339" lon="5.74983">
        <ele>585</ele>
        <time>2019-10-16T15:44:32Z</time>
      </trkpt>
      <trkpt lat="43.30334" lon="5.74983">
        <ele>585</ele>
        <time>2019-10-16T15:44:38Z</time>
      </trkpt>
      <trkpt lat="43.30328" lon="5.74984">
        <ele>586</ele>
        <time>2019-10-16T15:44:44Z</time>
      </trkpt>
      <trkpt lat="43.30323" lon="5.74985">
        <ele>586</ele>
        <time>2019-10-16T15:44:50Z</time>
      </trkpt>
      <trkpt lat="43.30321" lon="5.74993">
        <ele>588</ele>
        <time>2019-10-16T15:45:30Z</time>
      </trkpt>
      <trkpt lat="43.30321" lon="5.75001">
        <ele>583</ele>
        <time>2019-10-16T15:45:38Z</time>
      </trkpt>
      <trkpt lat="43.3032" lon="5.75009">
        <ele>584</ele>
        <time>2019-10-16T15:45:44Z</time>
      </trkpt>
      <trkpt lat="43.30317" lon="5.75015">
        <ele>585</ele>
        <time>2019-10-16T15:45:48Z</time>
      </trkpt>
      <trkpt lat="43.30315" lon="5.75021">
        <ele>583</ele>
        <time>2019-10-16T15:45:52Z</time>
      </trkpt>
      <trkpt lat="43.30312" lon="5.75027">
        <ele>584</ele>
        <time>2019-10-16T15:45:56Z</time>
      </trkpt>
      <trkpt lat="43.30309" lon="5.75033">
        <ele>585</ele>
        <time>2019-10-16T15:46:02Z</time>
      </trkpt>
      <trkpt lat="43.30304" lon="5.7504">
        <ele>586</ele>
        <time>2019-10-16T15:46:08Z</time>
      </trkpt>
      <trkpt lat="43.30301" lon="5.75044">
        <ele>588</ele>
        <time>2019-10-16T15:46:12Z</time>
      </trkpt>
      <trkpt lat="43.30301" lon="5.75051">
        <ele>587</ele>
        <time>2019-10-16T15:46:16Z</time>
      </trkpt>
      <trkpt lat="43.303" lon="5.7506">
        <ele>587</ele>
        <time>2019-10-16T15:46:22Z</time>
      </trkpt>
      <trkpt lat="43.30299" lon="5.75067">
        <ele>588</ele>
        <time>2019-10-16T15:46:26Z</time>
      </trkpt>
      <trkpt lat="43.30298" lon="5.75076">
        <ele>588</ele>
        <time>2019-10-16T15:46:32Z</time>
      </trkpt>
      <trkpt lat="43.30298" lon="5.75083">
        <ele>588</ele>
        <time>2019-10-16T15:46:36Z</time>
      </trkpt>
      <trkpt lat="43.303" lon="5.75091">
        <ele>591</ele>
        <time>2019-10-16T15:46:42Z</time>
      </trkpt>
      <trkpt lat="43.30299" lon="5.75098">
        <ele>592</ele>
        <time>2019-10-16T15:46:46Z</time>
      </trkpt>
      <trkpt lat="43.30298" lon="5.75104">
        <ele>592</ele>
        <time>2019-10-16T15:46:50Z</time>
      </trkpt>
      <trkpt lat="43.30301" lon="5.7511">
        <ele>588</ele>
        <time>2019-10-16T15:46:54Z</time>
      </trkpt>
      <trkpt lat="43.30304" lon="5.75115">
        <ele>587</ele>
        <time>2019-10-16T15:46:58Z</time>
      </trkpt>
      <trkpt lat="43.30307" lon="5.7512">
        <ele>586</ele>
        <time>2019-10-16T15:47:02Z</time>
      </trkpt>
      <trkpt lat="43.30308" lon="5.75127">
        <ele>586</ele>
        <time>2019-10-16T15:47:06Z</time>
      </trkpt>
      <trkpt lat="43.30307" lon="5.75133">
        <ele>588</ele>
        <time>2019-10-16T15:47:10Z</time>
      </trkpt>
      <trkpt lat="43.30305" lon="5.7514">
        <ele>589</ele>
        <time>2019-10-16T15:47:14Z</time>
      </trkpt>
      <trkpt lat="43.30307" lon="5.75146">
        <ele>589</ele>
        <time>2019-10-16T15:47:18Z</time>
      </trkpt>
      <trkpt lat="43.3031" lon="5.75152">
        <ele>589</ele>
        <time>2019-10-16T15:47:22Z</time>
      </trkpt>
      <trkpt lat="43.30312" lon="5.75158">
        <ele>588</ele>
        <time>2019-10-16T15:47:26Z</time>
      </trkpt>
      <trkpt lat="43.30313" lon="5.75166">
        <ele>588</ele>
        <time>2019-10-16T15:47:32Z</time>
      </trkpt>
      <trkpt lat="43.30315" lon="5.75171">
        <ele>587</ele>
        <time>2019-10-16T15:47:36Z</time>
      </trkpt>
      <trkpt lat="43.30317" lon="5.75179">
        <ele>587</ele>
        <time>2019-10-16T15:47:42Z</time>
      </trkpt>
      <trkpt lat="43.30314" lon="5.75186">
        <ele>587</ele>
        <time>2019-10-16T15:47:48Z</time>
      </trkpt>
      <trkpt lat="43.30313" lon="5.75195">
        <ele>587</ele>
        <time>2019-10-16T15:47:54Z</time>
      </trkpt>
      <trkpt lat="43.30312" lon="5.75204">
        <ele>587</ele>
        <time>2019-10-16T15:48:00Z</time>
      </trkpt>
      <trkpt lat="43.30313" lon="5.75211">
        <ele>588</ele>
        <time>2019-10-16T15:48:06Z</time>
      </trkpt>
      <trkpt lat="43.30312" lon="5.75219">
        <ele>589</ele>
        <time>2019-10-16T15:48:12Z</time>
      </trkpt>
      <trkpt lat="43.30312" lon="5.75225">
        <ele>588</ele>
        <time>2019-10-16T15:48:18Z</time>
      </trkpt>
      <trkpt lat="43.30308" lon="5.75231">
        <ele>588</ele>
        <time>2019-10-16T15:48:24Z</time>
      </trkpt>
      <trkpt lat="43.30304" lon="5.75234">
        <ele>586</ele>
        <time>2019-10-16T15:48:30Z</time>
      </trkpt>
      <trkpt lat="43.303" lon="5.75236">
        <ele>583</ele>
        <time>2019-10-16T15:48:40Z</time>
      </trkpt>
      <trkpt lat="43.30294" lon="5.75236">
        <ele>582</ele>
        <time>2019-10-16T15:48:48Z</time>
      </trkpt>
      <trkpt lat="43.3029" lon="5.75233">
        <ele>577</ele>
        <time>2019-10-16T15:49:18Z</time>
      </trkpt>
      <trkpt lat="43.30285" lon="5.75234">
        <ele>576</ele>
        <time>2019-10-16T15:49:32Z</time>
      </trkpt>
      <trkpt lat="43.30279" lon="5.75233">
        <ele>578</ele>
        <time>2019-10-16T15:49:40Z</time>
      </trkpt>
      <trkpt lat="43.30274" lon="5.75231">
        <ele>578</ele>
        <time>2019-10-16T15:49:44Z</time>
      </trkpt>
      <trkpt lat="43.30269" lon="5.75228">
        <ele>578</ele>
        <time>2019-10-16T15:49:50Z</time>
      </trkpt>
      <trkpt lat="43.30265" lon="5.75224">
        <ele>575</ele>
        <time>2019-10-16T15:49:56Z</time>
      </trkpt>
      <trkpt lat="43.30259" lon="5.7522">
        <ele>574</ele>
        <time>2019-10-16T15:50:02Z</time>
      </trkpt>
      <trkpt lat="43.30252" lon="5.7522">
        <ele>575</ele>
        <time>2019-10-16T15:50:08Z</time>
      </trkpt>
      <trkpt lat="43.30246" lon="5.75223">
        <ele>578</ele>
        <time>2019-10-16T15:50:12Z</time>
      </trkpt>
      <trkpt lat="43.30242" lon="5.75228">
        <ele>577</ele>
        <time>2019-10-16T15:50:18Z</time>
      </trkpt>
      <trkpt lat="43.30237" lon="5.75233">
        <ele>578</ele>
        <time>2019-10-16T15:50:26Z</time>
      </trkpt>
      <trkpt lat="43.30234" lon="5.75239">
        <ele>578</ele>
        <time>2019-10-16T15:50:32Z</time>
      </trkpt>
      <trkpt lat="43.3023" lon="5.75243">
        <ele>576</ele>
        <time>2019-10-16T15:50:38Z</time>
      </trkpt>
      <trkpt lat="43.30227" lon="5.7525">
        <ele>574</ele>
        <time>2019-10-16T15:50:44Z</time>
      </trkpt>
      <trkpt lat="43.30228" lon="5.75257">
        <ele>572</ele>
        <time>2019-10-16T15:50:48Z</time>
      </trkpt>
      <trkpt lat="43.30231" lon="5.75265">
        <ele>570</ele>
        <time>2019-10-16T15:50:52Z</time>
      </trkpt>
      <trkpt lat="43.30235" lon="5.7527">
        <ele>568</ele>
        <time>2019-10-16T15:50:56Z</time>
      </trkpt>
      <trkpt lat="43.30239" lon="5.75275">
        <ele>565</ele>
        <time>2019-10-16T15:51:00Z</time>
      </trkpt>
      <trkpt lat="43.30243" lon="5.75281">
        <ele>563</ele>
        <time>2019-10-16T15:51:04Z</time>
      </trkpt>
      <trkpt lat="43.30245" lon="5.75287">
        <ele>565</ele>
        <time>2019-10-16T15:51:08Z</time>
      </trkpt>
      <trkpt lat="43.30247" lon="5.75295">
        <ele>562</ele>
        <time>2019-10-16T15:51:14Z</time>
      </trkpt>
      <trkpt lat="43.3025" lon="5.75304">
        <ele>559</ele>
        <time>2019-10-16T15:51:22Z</time>
      </trkpt>
      <trkpt lat="43.30253" lon="5.75312">
        <ele>558</ele>
        <time>2019-10-16T15:51:28Z</time>
      </trkpt>
      <trkpt lat="43.30253" lon="5.75319">
        <ele>559</ele>
        <time>2019-10-16T15:51:38Z</time>
      </trkpt>
      <trkpt lat="43.30254" lon="5.75325">
        <ele>561</ele>
        <time>2019-10-16T15:52:00Z</time>
      </trkpt>
      <trkpt lat="43.30254" lon="5.75332">
        <ele>562</ele>
        <time>2019-10-16T15:52:06Z</time>
      </trkpt>
      <trkpt lat="43.30252" lon="5.7534">
        <ele>561</ele>
        <time>2019-10-16T15:52:12Z</time>
      </trkpt>
      <trkpt lat="43.30249" lon="5.75347">
        <ele>561</ele>
        <time>2019-10-16T15:52:18Z</time>
      </trkpt>
      <trkpt lat="43.30244" lon="5.75349">
        <ele>561</ele>
        <time>2019-10-16T15:52:24Z</time>
      </trkpt>
      <trkpt lat="43.30238" lon="5.7535">
        <ele>562</ele>
        <time>2019-10-16T15:52:30Z</time>
      </trkpt>
      <trkpt lat="43.30232" lon="5.75351">
        <ele>561</ele>
        <time>2019-10-16T15:52:36Z</time>
      </trkpt>
      <trkpt lat="43.30227" lon="5.75352">
        <ele>561</ele>
        <time>2019-10-16T15:52:42Z</time>
      </trkpt>
      <trkpt lat="43.30222" lon="5.75354">
        <ele>560</ele>
        <time>2019-10-16T15:52:48Z</time>
      </trkpt>
      <trkpt lat="43.30216" lon="5.75358">
        <ele>559</ele>
        <time>2019-10-16T15:52:54Z</time>
      </trkpt>
      <trkpt lat="43.30212" lon="5.7536">
        <ele>559</ele>
        <time>2019-10-16T15:52:58Z</time>
      </trkpt>
      <trkpt lat="43.30208" lon="5.75362">
        <ele>559</ele>
        <time>2019-10-16T15:53:02Z</time>
      </trkpt>
      <trkpt lat="43.30202" lon="5.75365">
        <ele>558</ele>
        <time>2019-10-16T15:53:08Z</time>
      </trkpt>
      <trkpt lat="43.30195" lon="5.75365">
        <ele>558</ele>
        <time>2019-10-16T15:53:14Z</time>
      </trkpt>
      <trkpt lat="43.30188" lon="5.75364">
        <ele>557</ele>
        <time>2019-10-16T15:53:20Z</time>
      </trkpt>
      <trkpt lat="43.30183" lon="5.75367">
        <ele>557</ele>
        <time>2019-10-16T15:53:24Z</time>
      </trkpt>
      <trkpt lat="43.30179" lon="5.7537">
        <ele>557</ele>
        <time>2019-10-16T15:53:28Z</time>
      </trkpt>
      <trkpt lat="43.30179" lon="5.75379">
        <ele>555</ele>
        <time>2019-10-16T15:53:34Z</time>
      </trkpt>
      <trkpt lat="43.30182" lon="5.75386">
        <ele>553</ele>
        <time>2019-10-16T15:53:40Z</time>
      </trkpt>
      <trkpt lat="43.30184" lon="5.75393">
        <ele>551</ele>
        <time>2019-10-16T15:53:46Z</time>
      </trkpt>
      <trkpt lat="43.30187" lon="5.75402">
        <ele>551</ele>
        <time>2019-10-16T15:53:52Z</time>
      </trkpt>
      <trkpt lat="43.30191" lon="5.75409">
        <ele>549</ele>
        <time>2019-10-16T15:53:58Z</time>
      </trkpt>
      <trkpt lat="43.30193" lon="5.75416">
        <ele>549</ele>
        <time>2019-10-16T15:54:04Z</time>
      </trkpt>
      <trkpt lat="43.30196" lon="5.75422">
        <ele>549</ele>
        <time>2019-10-16T15:54:08Z</time>
      </trkpt>
      <trkpt lat="43.302" lon="5.75429">
        <ele>551</ele>
        <time>2019-10-16T15:54:14Z</time>
      </trkpt>
      <trkpt lat="43.30205" lon="5.75435">
        <ele>551</ele>
        <time>2019-10-16T15:54:20Z</time>
      </trkpt>
      <trkpt lat="43.30206" lon="5.75441">
        <ele>551</ele>
        <time>2019-10-16T15:54:24Z</time>
      </trkpt>
      <trkpt lat="43.30209" lon="5.7545">
        <ele>551</ele>
        <time>2019-10-16T15:54:30Z</time>
      </trkpt>
      <trkpt lat="43.30212" lon="5.75455">
        <ele>552</ele>
        <time>2019-10-16T15:54:34Z</time>
      </trkpt>
      <trkpt lat="43.30214" lon="5.75461">
        <ele>551</ele>
        <time>2019-10-16T15:54:38Z</time>
      </trkpt>
      <trkpt lat="43.30216" lon="5.75469">
        <ele>551</ele>
        <time>2019-10-16T15:54:44Z</time>
      </trkpt>
      <trkpt lat="43.30218" lon="5.75475">
        <ele>549</ele>
        <time>2019-10-16T15:54:48Z</time>
      </trkpt>
      <trkpt lat="43.30221" lon="5.75483">
        <ele>550</ele>
        <time>2019-10-16T15:54:54Z</time>
      </trkpt>
      <trkpt lat="43.30224" lon="5.75491">
        <ele>550</ele>
        <time>2019-10-16T15:55:00Z</time>
      </trkpt>
      <trkpt lat="43.30225" lon="5.75498">
        <ele>551</ele>
        <time>2019-10-16T15:55:06Z</time>
      </trkpt>
      <trkpt lat="43.30227" lon="5.75506">
        <ele>552</ele>
        <time>2019-10-16T15:55:12Z</time>
      </trkpt>
      <trkpt lat="43.30229" lon="5.75514">
        <ele>553</ele>
        <time>2019-10-16T15:55:18Z</time>
      </trkpt>
      <trkpt lat="43.30231" lon="5.75523">
        <ele>553</ele>
        <time>2019-10-16T15:55:24Z</time>
      </trkpt>
      <trkpt lat="43.30232" lon="5.75529">
        <ele>554</ele>
        <time>2019-10-16T15:55:28Z</time>
      </trkpt>
      <trkpt lat="43.30232" lon="5.75536">
        <ele>554</ele>
        <time>2019-10-16T15:55:32Z</time>
      </trkpt>
      <trkpt lat="43.30234" lon="5.75545">
        <ele>555</ele>
        <time>2019-10-16T15:55:38Z</time>
      </trkpt>
      <trkpt lat="43.30236" lon="5.75554">
        <ele>555</ele>
        <time>2019-10-16T15:55:44Z</time>
      </trkpt>
      <trkpt lat="43.30238" lon="5.7556">
        <ele>554</ele>
        <time>2019-10-16T15:55:48Z</time>
      </trkpt>
      <trkpt lat="43.30241" lon="5.75568">
        <ele>555</ele>
        <time>2019-10-16T15:55:54Z</time>
      </trkpt>
      <trkpt lat="43.30244" lon="5.75576">
        <ele>555</ele>
        <time>2019-10-16T15:56:00Z</time>
      </trkpt>
      <trkpt lat="43.30245" lon="5.75585">
        <ele>556</ele>
        <time>2019-10-16T15:56:06Z</time>
      </trkpt>
      <trkpt lat="43.30247" lon="5.75591">
        <ele>555</ele>
        <time>2019-10-16T15:56:10Z</time>
      </trkpt>
      <trkpt lat="43.3025" lon="5.756">
        <ele>556</ele>
        <time>2019-10-16T15:56:16Z</time>
      </trkpt>
      <trkpt lat="43.30252" lon="5.75608">
        <ele>557</ele>
        <time>2019-10-16T15:56:22Z</time>
      </trkpt>
      <trkpt lat="43.30254" lon="5.75616">
        <ele>557</ele>
        <time>2019-10-16T15:56:28Z</time>
      </trkpt>
      <trkpt lat="43.30256" lon="5.75623">
        <ele>557</ele>
        <time>2019-10-16T15:56:34Z</time>
      </trkpt>
      <trkpt lat="43.30257" lon="5.75629">
        <ele>558</ele>
        <time>2019-10-16T15:56:38Z</time>
      </trkpt>
      <trkpt lat="43.30259" lon="5.75638">
        <ele>558</ele>
        <time>2019-10-16T15:56:44Z</time>
      </trkpt>
      <trkpt lat="43.30261" lon="5.75648">
        <ele>557</ele>
        <time>2019-10-16T15:56:50Z</time>
      </trkpt>
      <trkpt lat="43.30262" lon="5.75655">
        <ele>558</ele>
        <time>2019-10-16T15:56:54Z</time>
      </trkpt>
      <trkpt lat="43.30263" lon="5.75661">
        <ele>559</ele>
        <time>2019-10-16T15:56:58Z</time>
      </trkpt>
      <trkpt lat="43.30265" lon="5.75668">
        <ele>559</ele>
        <time>2019-10-16T15:57:02Z</time>
      </trkpt>
      <trkpt lat="43.30267" lon="5.75677">
        <ele>559</ele>
        <time>2019-10-16T15:57:08Z</time>
      </trkpt>
      <trkpt lat="43.30271" lon="5.75685">
        <ele>559</ele>
        <time>2019-10-16T15:57:14Z</time>
      </trkpt>
      <trkpt lat="43.30273" lon="5.75691">
        <ele>560</ele>
        <time>2019-10-16T15:57:18Z</time>
      </trkpt>
      <trkpt lat="43.30274" lon="5.75696">
        <ele>560</ele>
        <time>2019-10-16T15:57:22Z</time>
      </trkpt>
      <trkpt lat="43.30276" lon="5.75702">
        <ele>561</ele>
        <time>2019-10-16T15:57:26Z</time>
      </trkpt>
      <trkpt lat="43.30278" lon="5.75708">
        <ele>562</ele>
        <time>2019-10-16T15:57:30Z</time>
      </trkpt>
      <trkpt lat="43.30281" lon="5.75717">
        <ele>563</ele>
        <time>2019-10-16T15:57:36Z</time>
      </trkpt>
      <trkpt lat="43.30284" lon="5.75722">
        <ele>563</ele>
        <time>2019-10-16T15:57:40Z</time>
      </trkpt>
      <trkpt lat="43.3029" lon="5.75727">
        <ele>561</ele>
        <time>2019-10-16T15:57:44Z</time>
      </trkpt>
      <trkpt lat="43.30293" lon="5.75732">
        <ele>562</ele>
        <time>2019-10-16T15:57:48Z</time>
      </trkpt>
      <trkpt lat="43.30297" lon="5.75736">
        <ele>561</ele>
        <time>2019-10-16T15:57:52Z</time>
      </trkpt>
      <trkpt lat="43.30302" lon="5.75742">
        <ele>563</ele>
        <time>2019-10-16T15:57:58Z</time>
      </trkpt>
      <trkpt lat="43.30305" lon="5.75747">
        <ele>562</ele>
        <time>2019-10-16T15:58:02Z</time>
      </trkpt>
      <trkpt lat="43.30309" lon="5.75752">
        <ele>563</ele>
        <time>2019-10-16T15:58:06Z</time>
      </trkpt>
      <trkpt lat="43.30314" lon="5.75757">
        <ele>564</ele>
        <time>2019-10-16T15:58:12Z</time>
      </trkpt>
      <trkpt lat="43.30318" lon="5.75763">
        <ele>563</ele>
        <time>2019-10-16T15:58:18Z</time>
      </trkpt>
      <trkpt lat="43.30322" lon="5.7577">
        <ele>563</ele>
        <time>2019-10-16T15:58:24Z</time>
      </trkpt>
      <trkpt lat="43.30326" lon="5.75777">
        <ele>563</ele>
        <time>2019-10-16T15:58:30Z</time>
      </trkpt>
      <trkpt lat="43.3033" lon="5.75783">
        <ele>564</ele>
        <time>2019-10-16T15:58:36Z</time>
      </trkpt>
      <trkpt lat="43.30335" lon="5.75788">
        <ele>565</ele>
        <time>2019-10-16T15:58:42Z</time>
      </trkpt>
      <trkpt lat="43.30339" lon="5.75792">
        <ele>566</ele>
        <time>2019-10-16T15:59:08Z</time>
      </trkpt>
      <trkpt lat="43.30341" lon="5.75799">
        <ele>565</ele>
        <time>2019-10-16T15:59:14Z</time>
      </trkpt>
      <trkpt lat="43.30345" lon="5.75805">
        <ele>566</ele>
        <time>2019-10-16T15:59:20Z</time>
      </trkpt>
      <trkpt lat="43.30346" lon="5.75813">
        <ele>566</ele>
        <time>2019-10-16T15:59:28Z</time>
      </trkpt>
      <trkpt lat="43.30349" lon="5.75819">
        <ele>565</ele>
        <time>2019-10-16T15:59:34Z</time>
      </trkpt>
      <trkpt lat="43.3035" lon="5.75825">
        <ele>564</ele>
        <time>2019-10-16T15:59:38Z</time>
      </trkpt>
      <trkpt lat="43.30351" lon="5.75833">
        <ele>567</ele>
        <time>2019-10-16T15:59:44Z</time>
      </trkpt>
      <trkpt lat="43.30353" lon="5.75839">
        <ele>567</ele>
        <time>2019-10-16T15:59:48Z</time>
      </trkpt>
      <trkpt lat="43.30354" lon="5.75848">
        <ele>570</ele>
        <time>2019-10-16T15:59:54Z</time>
      </trkpt>
      <trkpt lat="43.30356" lon="5.75857">
        <ele>567</ele>
        <time>2019-10-16T16:00:00Z</time>
      </trkpt>
      <trkpt lat="43.30357" lon="5.75864">
        <ele>565</ele>
        <time>2019-10-16T16:00:04Z</time>
      </trkpt>
      <trkpt lat="43.30359" lon="5.75872">
        <ele>566</ele>
        <time>2019-10-16T16:00:10Z</time>
      </trkpt>
      <trkpt lat="43.30361" lon="5.75881">
        <ele>565</ele>
        <time>2019-10-16T16:00:16Z</time>
      </trkpt>
      <trkpt lat="43.30363" lon="5.75887">
        <ele>564</ele>
        <time>2019-10-16T16:00:20Z</time>
      </trkpt>
      <trkpt lat="43.30364" lon="5.75897">
        <ele>566</ele>
        <time>2019-10-16T16:00:26Z</time>
      </trkpt>
      <trkpt lat="43.30366" lon="5.75905">
        <ele>567</ele>
        <time>2019-10-16T16:00:32Z</time>
      </trkpt>
      <trkpt lat="43.30367" lon="5.75911">
        <ele>568</ele>
        <time>2019-10-16T16:00:36Z</time>
      </trkpt>
      <trkpt lat="43.30369" lon="5.75919">
        <ele>568</ele>
        <time>2019-10-16T16:00:42Z</time>
      </trkpt>
      <trkpt lat="43.30371" lon="5.75928">
        <ele>566</ele>
        <time>2019-10-16T16:00:48Z</time>
      </trkpt>
      <trkpt lat="43.30372" lon="5.75935">
        <ele>566</ele>
        <time>2019-10-16T16:00:52Z</time>
      </trkpt>
      <trkpt lat="43.30373" lon="5.75942">
        <ele>567</ele>
        <time>2019-10-16T16:00:56Z</time>
      </trkpt>
      <trkpt lat="43.30374" lon="5.7595">
        <ele>567</ele>
        <time>2019-10-16T16:01:02Z</time>
      </trkpt>
      <trkpt lat="43.30374" lon="5.75957">
        <ele>567</ele>
        <time>2019-10-16T16:01:06Z</time>
      </trkpt>
      <trkpt lat="43.30374" lon="5.75963">
        <ele>567</ele>
        <time>2019-10-16T16:01:10Z</time>
      </trkpt>
      <trkpt lat="43.30376" lon="5.7597">
        <ele>565</ele>
        <time>2019-10-16T16:01:14Z</time>
      </trkpt>
      <trkpt lat="43.30377" lon="5.7598">
        <ele>566</ele>
        <time>2019-10-16T16:01:20Z</time>
      </trkpt>
      <trkpt lat="43.30377" lon="5.75987">
        <ele>565</ele>
        <time>2019-10-16T16:01:24Z</time>
      </trkpt>
      <trkpt lat="43.30377" lon="5.75994">
        <ele>566</ele>
        <time>2019-10-16T16:01:28Z</time>
      </trkpt>
      <trkpt lat="43.30377" lon="5.76">
        <ele>566</ele>
        <time>2019-10-16T16:01:32Z</time>
      </trkpt>
      <trkpt lat="43.30377" lon="5.76007">
        <ele>566</ele>
        <time>2019-10-16T16:01:36Z</time>
      </trkpt>
      <trkpt lat="43.30376" lon="5.76014">
        <ele>566</ele>
        <time>2019-10-16T16:01:40Z</time>
      </trkpt>
      <trkpt lat="43.30376" lon="5.7602">
        <ele>566</ele>
        <time>2019-10-16T16:01:44Z</time>
      </trkpt>
      <trkpt lat="43.30377" lon="5.76027">
        <ele>566</ele>
        <time>2019-10-16T16:01:48Z</time>
      </trkpt>
      <trkpt lat="43.30377" lon="5.76037">
        <ele>566</ele>
        <time>2019-10-16T16:01:54Z</time>
      </trkpt>
      <trkpt lat="43.30377" lon="5.76044">
        <ele>566</ele>
        <time>2019-10-16T16:01:58Z</time>
      </trkpt>
      <trkpt lat="43.30378" lon="5.76054">
        <ele>566</ele>
        <time>2019-10-16T16:02:04Z</time>
      </trkpt>
      <trkpt lat="43.30378" lon="5.76061">
        <ele>566</ele>
        <time>2019-10-16T16:02:08Z</time>
      </trkpt>
      <trkpt lat="43.30378" lon="5.76068">
        <ele>567</ele>
        <time>2019-10-16T16:02:12Z</time>
      </trkpt>
      <trkpt lat="43.30378" lon="5.76075">
        <ele>567</ele>
        <time>2019-10-16T16:02:16Z</time>
      </trkpt>
      <trkpt lat="43.30379" lon="5.76081">
        <ele>567</ele>
        <time>2019-10-16T16:02:20Z</time>
      </trkpt>
      <trkpt lat="43.3038" lon="5.7609">
        <ele>568</ele>
        <time>2019-10-16T16:02:26Z</time>
      </trkpt>
      <trkpt lat="43.30381" lon="5.76097">
        <ele>568</ele>
        <time>2019-10-16T16:02:30Z</time>
      </trkpt>
      <trkpt lat="43.30381" lon="5.76106">
        <ele>570</ele>
        <time>2019-10-16T16:02:36Z</time>
      </trkpt>
      <trkpt lat="43.30383" lon="5.76115">
        <ele>570</ele>
        <time>2019-10-16T16:02:42Z</time>
      </trkpt>
      <trkpt lat="43.30385" lon="5.76125">
        <ele>568</ele>
        <time>2019-10-16T16:02:48Z</time>
      </trkpt>
      <trkpt lat="43.30387" lon="5.76132">
        <ele>568</ele>
        <time>2019-10-16T16:02:52Z</time>
      </trkpt>
      <trkpt lat="43.30389" lon="5.76138">
        <ele>568</ele>
        <time>2019-10-16T16:02:56Z</time>
      </trkpt>
      <trkpt lat="43.30391" lon="5.76145">
        <ele>568</ele>
        <time>2019-10-16T16:03:00Z</time>
      </trkpt>
      <trkpt lat="43.30394" lon="5.7615">
        <ele>567</ele>
        <time>2019-10-16T16:03:04Z</time>
      </trkpt>
      <trkpt lat="43.30396" lon="5.76156">
        <ele>566</ele>
        <time>2019-10-16T16:03:08Z</time>
      </trkpt>
      <trkpt lat="43.304" lon="5.76164">
        <ele>566</ele>
        <time>2019-10-16T16:03:14Z</time>
      </trkpt>
      <trkpt lat="43.30401" lon="5.7617">
        <ele>567</ele>
        <time>2019-10-16T16:03:18Z</time>
      </trkpt>
      <trkpt lat="43.30404" lon="5.76179">
        <ele>567</ele>
        <time>2019-10-16T16:03:24Z</time>
      </trkpt>
      <trkpt lat="43.30406" lon="5.76185">
        <ele>568</ele>
        <time>2019-10-16T16:03:30Z</time>
      </trkpt>
      <trkpt lat="43.30406" lon="5.76192">
        <ele>569</ele>
        <time>2019-10-16T16:03:46Z</time>
      </trkpt>
      <trkpt lat="43.30408" lon="5.76198">
        <ele>569</ele>
        <time>2019-10-16T16:03:50Z</time>
      </trkpt>
      <trkpt lat="43.30411" lon="5.76205">
        <ele>568</ele>
        <time>2019-10-16T16:03:54Z</time>
      </trkpt>
      <trkpt lat="43.30412" lon="5.76212">
        <ele>567</ele>
        <time>2019-10-16T16:03:58Z</time>
      </trkpt>
      <trkpt lat="43.30414" lon="5.76218">
        <ele>568</ele>
        <time>2019-10-16T16:04:02Z</time>
      </trkpt>
      <trkpt lat="43.30417" lon="5.76224">
        <ele>567</ele>
        <time>2019-10-16T16:04:06Z</time>
      </trkpt>
      <trkpt lat="43.30419" lon="5.7623">
        <ele>568</ele>
        <time>2019-10-16T16:04:10Z</time>
      </trkpt>
      <trkpt lat="43.30421" lon="5.76236">
        <ele>567</ele>
        <time>2019-10-16T16:04:14Z</time>
      </trkpt>
      <trkpt lat="43.30423" lon="5.76242">
        <ele>568</ele>
        <time>2019-10-16T16:04:18Z</time>
      </trkpt>
      <trkpt lat="43.30428" lon="5.76249">
        <ele>567</ele>
        <time>2019-10-16T16:04:24Z</time>
      </trkpt>
      <trkpt lat="43.30432" lon="5.76257">
        <ele>570</ele>
        <time>2019-10-16T16:04:30Z</time>
      </trkpt>
      <trkpt lat="43.30435" lon="5.76263">
        <ele>569</ele>
        <time>2019-10-16T16:04:34Z</time>
      </trkpt>
      <trkpt lat="43.30439" lon="5.7627">
        <ele>569</ele>
        <time>2019-10-16T16:04:38Z</time>
      </trkpt>
      <trkpt lat="43.30441" lon="5.76275">
        <ele>569</ele>
        <time>2019-10-16T16:04:42Z</time>
      </trkpt>
      <trkpt lat="43.30443" lon="5.76281">
        <ele>569</ele>
        <time>2019-10-16T16:04:46Z</time>
      </trkpt>
      <trkpt lat="43.30446" lon="5.76287">
        <ele>568</ele>
        <time>2019-10-16T16:04:50Z</time>
      </trkpt>
      <trkpt lat="43.30448" lon="5.76292">
        <ele>567</ele>
        <time>2019-10-16T16:04:54Z</time>
      </trkpt>
      <trkpt lat="43.3045" lon="5.76298">
        <ele>566</ele>
        <time>2019-10-16T16:04:58Z</time>
      </trkpt>
      <trkpt lat="43.30453" lon="5.76303">
        <ele>566</ele>
        <time>2019-10-16T16:05:02Z</time>
      </trkpt>
      <trkpt lat="43.30455" lon="5.76309">
        <ele>567</ele>
        <time>2019-10-16T16:05:06Z</time>
      </trkpt>
      <trkpt lat="43.30458" lon="5.76314">
        <ele>567</ele>
        <time>2019-10-16T16:05:10Z</time>
      </trkpt>
      <trkpt lat="43.30462" lon="5.76319">
        <ele>567</ele>
        <time>2019-10-16T16:05:14Z</time>
      </trkpt>
      <trkpt lat="43.30467" lon="5.76325">
        <ele>567</ele>
        <time>2019-10-16T16:05:20Z</time>
      </trkpt>
      <trkpt lat="43.3047" lon="5.76329">
        <ele>567</ele>
        <time>2019-10-16T16:05:24Z</time>
      </trkpt>
      <trkpt lat="43.30476" lon="5.76334">
        <ele>566</ele>
        <time>2019-10-16T16:05:30Z</time>
      </trkpt>
      <trkpt lat="43.30478" lon="5.7634">
        <ele>567</ele>
        <time>2019-10-16T16:05:38Z</time>
      </trkpt>
    </trkseg>
  </trk>
</gpx>